GFSSE_con_sbcape_000.txt.gz
CAPE
46 312 971 943 645 511 628 246 74 12 8 0 0 0 21 26 2 0 6 27 10 5 22 35 45 63 54 51 44 29 37 25 4 0 0 0 0 0 13 7 0 2 6
103 295 1215 1164 665 611 443 174 41 10 8 0 0 0 0 0 0 0 0 7 11 7 6 20 24 23 36 32 11 16 18 6 3 0 0 0 0 0 3 3 0 3 43
54 192 689 1465 1163 850 497 119 33 5 0 0 0 7 0 5 7 6 4 7 13 13 11 2 0 0 0 11 30 31 24 7 0 0 0 0 0 0 0 0 0 0 23
80 149 349 1625 1088 829 594 154 59 29 0 0 0 18 43 20 24 26 9 7 11 7 0 0 0 0 0 6 28 23 29 22 5 0 0 0 0 15 0 0 0 0 0
17 266 970 1593 1380 1002 401 140 68 54 19 0 0 7 33 45 84 21 22 18 19 5 0 0 0 0 0 0 1 10 11 20 10 0 0 0 0 0 8 0 0 0 0
18 711 1388 1661 1629 1199 748 349 139 86 67 37 0 14 16 67 152 159 47 67 17 6 0 0 0 0 0 0 0 0 0 0 8 0 0 0 0 0 0 7 4 0 0
61 911 1327 1710 1475 1275 1051 578 276 161 77 40 11 4 19 92 203 227 128 53 8 0 2 0 0 0 3 9 0 0 0 0 0 0 0 0 0 0 0 0 3 4 3
111 359 1080 1348 1241 1348 1031 825 566 357 213 129 18 0 7 56 133 201 226 85 1 0 0 0 0 0 0 1 10 5 4 0 0 0 0 0 0 0 0 0 0 0 1
143 230 256 718 958 1411 1203 1093 779 624 495 251 85 14 90 49 43 104 148 42 13 0 0 0 0 0 0 0 0 1 5 0 0 0 0 0 0 0 0 0 0 0 0
195 246 212 327 389 698 455 765 719 596 554 294 153 120 78 77 67 76 84 84 28 0 0 0 0 0 0 0 0 0 0 0 0 0 0 0 0 0 0 0 0 0 0
264 288 295 335 454 374 353 447 544 430 431 278 132 90 71 0 0 0 1 0 0 0 0 0 0 0 0 0 0 0 0 0 0 0 0 0 0 0 0 0 0 2 3
245 322 377 380 447 388 301 305 268 161 170 142 105 73 18 0 0 0 0 0 2 59 48 0 6 19 5 0 0 0 0 0 0 0 0 0 0 0 0 0 0 1 4
133 265 374 446 442 442 345 241 215 177 133 85 62 17 5 0 0 0 0 0 0 0 0 1 7 0 0 0 0 0 0 0 0 0 0 0 0 0 0 20 33 2 7
35 185 296 384 496 481 436 330 243 131 117 75 56 37 13 2 0 0 0 0 0 0 0 1 1 4 2 2 2 2 1 0 0 0 0 0 22 50 12 23 115 79 26
3 12 108 243 438 508 482 378 303 172 126 99 105 106 68 60 58 65 51 59 59 15 24 11 6 7 5 6 8 10 7 3 4 5 2 3 7 142 258 78 60 64 73
3 10 12 57 232 398 438 375 297 224 142 134 112 118 104 79 73 86 102 14 6 2 7 10 13 4 2 0 0 0 0 0 0 0 0 0 0 30 234 299 139 124 122
0 0 0 0 29 209 266 311 201 142 118 108 80 65 60 47 11 42 4 0 0 0 0 0 0 0 0 0 0 0 0 0 0 0 0 0 0 5 76 324 651 344 331
0 0 0 0 0 69 185 177 132 75 53 30 34 25 0 0 0 0 0 0 0 0 0 0 0 0 0 0 0 0 0 0 0 0 0 0 7 15 49 170 192 275 259
0 0 0 0 0 62 105 3 0 0 0 0 0 0 0 0 0 0 0 0 0 0 0 0 0 0 0 0 0 0 0 0 0 0 0 0 0 0 0 4 88 164 201
0 0 0 0 11 17 0 0 0 0 0 0 0 0 0 0 0 0 0 0 0 0 0 0 0 0 0 0 0 0 0 0 0 0 0 0 0 0 0 0 0 2 106
0 0 0 0 0 0 0 0 0 0 0 0 0 0 0 0 0 0 0 0 0 0 0 0 0 0 0 0 0 0 0 0 0 0 0 0 0 0 0 0 0 0 0
0 0 0 0 0 0 0 0 0 0 0 0 0 0 0 0 0 0 0 0 0 0 0 0 0 0 0 0 0 0 0 0 0 0 0 0 0 0 0 0 0 0 0
0 0 0 0 0 0 0 0 0 0 0 0 0 0 0 0 0 0 0 0 0 0 0 0 0 0 0 0 0 0 0 0 0 0 0 0 0 0 0 0 0 0 0
0 0 0 0 0 0 0 0 0 0 0 0 0 0 0 0 0 0 0 0 0 0 0 0 0 0 0 0 0 0 0 0 0 0 0 0 0 0 0 0 0 0 0
0 0 0 0 0 0 0 0 0 0 0 0 0 0 0 0 0 0 0 0 0 0 0 0 0 0 0 0 0 0 0 0 0 0 0 0 0 0 0 0 0 0 0
0 0 0 0 0 0 0 0 0 0 0 0 0 0 0 0 0 0 0 0 0 0 0 0 0 0 0 0 0 0 0 0 0 0 0 0 0 0 0 0 0 0 0

GFSSE_con_sbcape_003.txt.gz
CAPE
49 754 1775 1168 1142 1005 832 426 62 28 1 0 0 16 83 29 1 0 14 10 8 7 3 24 27 58 83 86 62 28 39 19 10 0 0 0 0 0 11 22 0 3 2
153 829 1648 1295 1036 909 856 341 92 28 0 0 0 1 2 8 0 6 11 4 0 1 0 2 22 24 25 28 15 13 25 21 9 0 0 0 0 0 6 1 0 0 23
557 979 1244 1724 1572 1261 793 153 58 12 0 0 0 5 7 9 14 20 13 1 1 6 0 0 0 0 0 0 7 23 35 12 2 0 0 0 0 0 8 0 0 0 2
492 765 1025 1850 1641 1344 723 184 51 19 0 0 0 18 10 31 17 16 20 16 20 6 0 0 0 0 0 0 0 8 15 22 3 2 0 0 0 0 13 6 0 0 0
261 494 970 1859 1702 1589 620 236 88 59 6 0 0 0 18 51 105 66 32 9 12 0 0 0 0 0 0 0 0 0 0 0 0 1 0 0 0 0 10 3 0 0 0
283 675 1634 1795 2037 1514 903 308 150 94 51 23 0 0 8 69 160 300 121 135 21 0 0 0 0 0 0 0 0 0 0 0 0 0 0 0 0 0 0 4 2 0 0
732 998 1524 2100 1903 1553 1125 732 322 192 112 49 26 0 19 84 177 279 143 106 29 2 0 0 0 0 0 2 12 1 0 0 0 0 0 0 0 0 0 0 1 4 3
1113 1470 1615 1818 1767 1673 1578 1167 741 434 230 137 11 8 10 32 81 261 339 111 31 7 0 1 0 0 0 1 8 14 18 2 0 0 0 0 0 0 1 3 1 3 6
818 1274 1281 1239 1311 1281 1297 1241 1013 866 621 264 109 30 97 39 33 101 386 136 62 35 24 40 22 0 0 0 0 15 37 6 0 0 0 0 0 0 0 3 5 5 2
246 419 856 980 1047 1240 1011 1025 754 630 553 496 215 161 83 59 46 79 158 148 93 85 58 4 0 0 0 0 0 0 0 0 0 0 0 0 0 0 0 0 4 4 6
126 147 279 550 582 810 422 520 574 436 449 305 151 91 63 7 0 0 32 75 61 41 31 12 19 31 114 42 20 8 0 0 0 0 0 0 0 0 0 0 2 0 3
205 215 132 335 521 490 468 399 301 245 239 163 103 52 45 4 0 3 0 6 20 132 216 146 151 339 149 0 0 0 0 0 0 0 0 0 0 0 2 97 112 26 0
131 219 237 201 336 277 342 224 121 90 82 69 62 27 22 0 0 0 0 0 0 0 0 1 0 1 1 0 0 0 0 0 0 0 0 3 14 17 35 280 376 333 265
98 206 256 257 302 288 109 118 69 60 38 2 9 1 0 0 0 0 0 0 0 2 5 4 11 14 12 17 13 12 0 0 0 0 0 0 30 78 144 390 443 484 477
13 163 228 253 287 248 210 180 153 35 30 26 29 33 14 29 53 43 48 46 38 24 26 10 5 6 0 0 0 0 0 0 0 0 0 0 14 148 264 297 262 281 292
0 88 181 202 310 267 203 175 131 49 23 11 15 38 64 40 46 81 47 3 0 0 0 0 0 0 0 0 0 0 0 0 0 0 0 0 1 47 106 317 496 270 117
0 0 3 145 284 271 208 133 50 26 1 1 0 5 25 16 3 5 0 0 0 0 0 0 0 0 0 0 0 0 0 0 0 0 0 0 0 0 54 89 324 390 206
0 0 0 35 171 143 116 50 6 0 0 0 0 0 0 0 0 0 0 0 0 0 0 0 0 0 0 0 0 0 0 0 0 0 0 0 0 0 0 26 45 28 115
0 0 0 0 72 38 0 0 0 0 0 0 0 0 0 0 0 0 0 0 0 0 0 0 0 0 0 0 0 0 0 0 0 0 0 0 0 0 0 0 0 18 10
0 0 0 0 0 0 0 0 0 0 0 0 0 0 0 0 0 0 0 0 0 0 0 0 0 0 0 0 0 0 0 0 0 0 0 0 0 0 0 0 0 0 0
0 0 0 0 0 0 0 0 0 0 0 0 0 0 0 0 0 0 0 0 0 0 0 0 0 0 0 0 0 0 0 0 0 0 0 0 0 0 0 0 0 0 0
0 0 0 0 0 0 0 0 0 0 0 0 0 0 0 0 0 0 0 0 0 0 0 0 0 0 0 0 0 0 0 0 0 0 0 0 0 0 0 0 0 0 0
0 0 0 0 0 0 0 0 0 0 0 0 0 0 0 0 0 0 0 0 0 0 0 0 0 0 0 0 0 0 0 0 0 0 0 0 0 0 0 0 0 0 0
0 0 0 0 0 0 0 0 0 0 0 0 0 0 0 0 0 0 0 0 0 0 0 0 0 0 0 0 0 0 0 0 0 0 0 0 0 0 0 0 0 0 0
0 0 0 0 0 0 0 0 0 0 0 0 0 0 0 0 0 0 0 0 0 0 0 0 0 0 0 0 0 0 0 0 0 0 0 0 0 0 0 0 0 0 0
0 0 0 0 0 0 0 0 0 0 0 0 0 0 0 0 0 0 0 0 0 0 0 0 0 0 0 0 0 0 0 0 0 0 0 0 0 0 0 0 0 0 0

GFSSE_con_sbcape_006.txt.gz
CAPE
60 654 1973 1469 1495 1176 760 138 47 9 0 0 0 5 50 37 20 21 27 3 1 0 0 10 24 46 97 126 60 30 19 5 0 0 0 0 0 0 0 21 6 0 0
96 824 1867 1582 1420 1091 738 135 48 2 0 0 1 2 27 22 6 12 12 7 0 0 0 0 1 13 16 11 11 3 9 4 2 0 0 0 0 0 0 14 0 0 18
609 970 1290 1632 1527 1293 735 127 49 2 0 0 0 5 5 7 29 26 10 0 0 0 0 0 0 0 0 0 0 0 6 2 0 0 0 0 0 0 4 12 0 0 0
786 1033 1093 1762 1580 1230 545 111 42 3 0 0 0 2 12 12 12 2 22 18 0 0 0 0 0 0 0 0 0 0 0 7 0 0 0 0 0 0 0 11 11 0 0
688 824 1106 1904 1872 1411 538 143 50 15 0 0 0 2 21 36 26 31 32 16 0 0 0 0 0 0 0 0 0 0 0 0 0 0 0 0 0 0 17 17 13 9 0
327 571 1282 1943 1930 1701 1018 281 124 53 4 0 0 0 14 69 126 185 58 150 20 0 0 0 0 0 0 0 0 0 1 0 10 0 0 0 0 0 0 20 20 12 0
170 484 1512 1923 2067 1512 823 505 222 118 74 11 0 0 25 51 126 192 202 272 15 0 0 0 0 0 0 3 13 74 18 25 0 0 0 0 0 0 1 11 17 23 19
529 1029 1352 1915 1747 1366 1113 888 506 211 181 73 10 4 26 13 68 244 184 91 28 12 2 15 20 29 9 0 1 6 94 72 0 0 0 0 0 0 0 7 25 18 17
1005 1301 1306 1410 1271 1394 1412 1225 997 762 409 173 41 16 46 36 18 92 370 162 84 30 31 43 44 8 10 16 7 2 88 62 0 0 0 0 0 0 0 4 13 21 24
1096 1175 1070 931 1006 824 1018 962 789 708 554 382 178 119 109 51 28 50 163 133 87 87 89 34 10 18 30 44 39 132 76 1 0 0 0 0 0 0 22 28 7 22 18
694 699 912 764 729 720 562 653 546 461 399 308 121 58 32 0 0 1 27 53 197 83 65 87 101 146 286 180 160 136 23 0 0 0 0 0 1 31 21 46 59 59 18
141 275 411 531 411 525 530 317 268 195 197 101 55 20 6 0 0 0 5 41 112 163 232 219 284 459 309 15 0 1 3 0 0 0 0 0 8 67 106 215 497 252 162
122 124 245 356 320 396 319 194 105 76 67 36 25 14 14 0 0 0 0 0 0 0 0 3 0 0 5 6 0 0 0 0 0 0 0 0 16 51 146 240 257 212 258
62 173 147 292 301 252 205 151 52 25 11 6 18 21 0 0 0 0 0 1 2 2 20 20 3 1 0 0 0 0 0 0 0 0 0 0 0 0 35 18 171 377 503
11 189 183 180 269 141 162 53 4 2 4 0 0 0 0 4 20 10 0 0 0 0 0 0 0 0 0 0 0 0 0 0 0 0 0 0 0 0 0 0 21 42 109
0 158 152 208 193 135 110 74 38 0 0 0 2 9 6 2 4 0 0 0 0 0 0 0 0 0 0 0 0 0 0 0 0 0 0 0 0 0 0 0 0 13 39
0 28 135 213 198 193 155 65 19 19 12 0 0 0 0 0 0 0 0 0 0 0 0 0 0 0 0 0 0 0 0 0 0 0 0 0 0 0 0 0 0 0 0
0 0 13 310 182 142 122 21 0 0 0 0 0 0 0 0 0 0 0 0 0 0 0 0 0 0 0 0 0 0 0 0 0 0 0 0 0 0 0 0 0 0 0
0 0 0 174 122 47 1 0 0 0 0 0 0 0 0 0 0 0 0 0 0 0 0 0 0 0 0 0 0 0 0 0 0 0 0 0 0 0 0 0 0 0 0
0 0 0 74 0 0 0 0 0 0 0 0 0 0 0 0 0 0 0 0 0 0 0 0 0 0 0 0 0 0 0 0 0 0 0 0 0 0 0 0 0 0 0
0 0 0 0 0 0 0 0 0 0 0 0 0 0 0 0 0 0 0 0 0 0 0 0 0 0 0 0 0 0 0 0 0 0 0 0 0 0 0 0 0 0 0
0 0 0 0 0 0 0 0 0 0 0 0 0 0 0 0 0 0 0 0 0 0 0 0 0 0 0 0 0 0 0 0 0 0 0 0 0 0 0 0 0 0 0
0 0 0 0 0 0 0 0 0 0 0 0 0 0 0 0 0 0 0 0 0 0 0 0 0 0 0 0 0 0 0 0 0 0 0 0 0 0 0 0 0 0 0
0 0 0 0 0 0 0 0 0 0 0 0 0 0 0 0 0 0 0 0 0 0 0 0 0 0 0 0 0 0 0 0 0 0 0 0 0 0 0 0 0 0 0
0 0 0 0 0 0 0 0 0 0 0 0 0 0 0 0 0 0 0 0 0 0 0 0 0 0 0 0 0 0 0 0 0 0 0 0 0 0 0 0 0 0 0
0 0 0 0 0 0 0 0 0 0 0 0 0 0 0 0 0 0 0 0 0 0 0 0 0 0 0 0 0 0 0 0 0 0 0 0 0 0 0 0 0 0 0

GFSSE_con_sbcape_009.txt.gz
CAPE
29 91 1531 1734 1451 1113 732 92 26 0 0 0 0 8 37 71 38 33 16 1 0 0 0 5 14 26 77 83 76 28 6 0 0 0 0 0 0 1 2 0 13 0 6
44 321 1996 1807 1468 1194 704 120 26 0 0 0 1 35 43 39 17 9 0 0 0 0 0 0 0 0 6 18 11 2 5 5 0 0 0 0 0 0 0 23 1 0 11
234 910 1598 1888 1931 1304 657 136 19 0 0 0 0 19 15 9 31 21 11 0 0 0 0 0 0 0 0 0 0 0 1 2 0 0 0 0 0 0 0 17 8 0 2
669 1013 1071 1894 1489 1256 667 154 33 0 0 0 0 2 0 13 23 20 20 0 0 0 0 0 0 0 0 0 0 0 0 1 0 0 0 0 0 0 5 26 19 11 3
762 972 990 1841 1663 1479 664 170 50 0 0 0 0 7 27 19 20 17 32 0 0 0 0 0 0 0 0 0 0 0 0 0 5 3 0 0 0 0 6 14 34 24 18
587 746 1166 1914 1916 1570 986 266 82 11 0 0 0 3 18 72 84 76 48 104 24 0 0 0 0 0 0 0 10 37 11 10 23 0 0 0 0 0 0 10 8 29 9
352 468 1221 2053 2032 1736 1005 483 181 56 4 0 0 0 25 51 106 137 259 208 16 0 0 0 0 2 1 0 2 21 90 140 8 0 0 0 0 0 0 10 15 18 19
263 523 1393 1941 2002 1847 1140 815 463 154 156 15 0 0 25 20 47 196 141 75 22 2 0 1 12 21 24 11 14 7 58 115 7 0 0 0 0 0 0 1 9 25 26
359 775 1214 1469 1708 1301 1076 984 801 541 486 167 33 11 30 41 9 89 269 117 69 35 17 30 52 17 6 20 47 67 131 101 12 0 0 0 0 0 45 44 20 21 25
847 1046 1131 1264 1090 931 883 948 865 656 380 251 92 30 64 32 8 27 181 115 93 67 81 68 29 50 84 114 111 238 182 95 1 0 0 0 1 59 233 223 205 126 110
1071 1077 1080 956 878 681 741 724 717 586 382 236 80 28 10 0 0 0 9 31 93 149 91 113 181 229 339 247 220 192 77 11 1 0 0 0 20 152 309 372 322 246 243
847 734 927 728 622 497 568 455 309 257 220 117 27 0 0 0 0 0 0 18 93 163 199 177 272 243 46 4 0 0 0 0 0 0 0 4 37 79 38 95 201 206 193
485 507 598 574 459 471 504 230 179 91 90 26 5 0 0 0 0 0 0 0 0 0 0 1 0 2 0 0 0 0 0 0 0 0 0 0 0 0 0 1 13 46 156
30 172 378 373 318 345 224 163 123 39 17 3 1 0 0 0 0 0 0 2 0 0 0 0 0 0 0 0 0 0 0 0 0 0 0 0 0 0 0 0 0 6 78
0 67 157 282 319 303 213 127 59 34 21 1 0 0 0 0 0 0 0 0 0 0 0 0 0 0 0 0 0 0 0 0 0 0 0 0 0 0 0 0 0 0 0
0 1 50 219 290 205 173 97 31 1 4 0 0 0 0 0 0 0 0 0 0 0 0 0 0 0 0 0 0 0 0 0 0 0 0 0 0 0 0 0 0 0 0
0 0 76 178 199 179 110 72 13 21 2 0 0 0 0 0 0 0 0 0 0 0 0 0 0 0 0 0 0 0 0 0 0 0 0 0 0 0 0 0 0 0 0
0 0 73 364 210 129 81 69 8 0 0 0 0 0 0 0 0 0 0 0 0 0 0 0 0 0 0 0 0 0 0 0 0 0 0 0 0 0 0 0 0 0 0
0 0 124 228 190 68 0 0 0 0 0 0 0 0 0 0 0 0 0 0 0 0 0 0 0 0 0 0 0 0 0 0 0 0 0 0 0 0 0 0 0 0 0
0 0 77 151 11 0 0 0 0 0 0 0 0 0 0 0 0 0 0 0 0 0 0 0 0 0 0 0 0 0 0 0 0 0 0 0 0 0 0 0 0 0 0
0 0 0 0 0 0 0 0 0 0 0 0 0 0 0 0 0 0 0 0 0 0 0 0 0 0 0 0 0 0 0 0 0 0 0 0 0 0 0 0 0 0 0
0 0 0 0 0 0 0 0 0 0 0 0 0 0 0 0 0 0 0 0 0 0 0 0 0 0 0 0 0 0 0 0 0 0 0 0 0 0 0 0 0 0 0
0 0 0 0 0 0 0 0 0 0 0 0 0 0 0 0 0 0 0 0 0 0 0 0 0 0 0 0 0 0 0 0 0 0 0 0 0 0 0 0 0 0 0
0 0 0 0 0 0 0 0 0 0 0 0 0 0 0 0 0 0 0 0 0 0 0 0 0 0 0 0 0 0 0 0 0 0 0 0 0 0 0 0 0 0 0
0 0 0 0 0 0 0 0 0 0 0 0 0 0 0 0 0 0 0 0 0 0 0 0 0 0 0 0 0 0 0 0 0 0 0 0 0 0 0 0 0 0 0
0 0 0 0 0 0 0 0 0 0 0 0 0 0 0 0 0 0 0 0 0 0 0 0 0 0 0 0 0 0 0 0 0 0 0 0 0 0 0 0 0 0 0

GFSSE_con_sbcape_012.txt.gz
CAPE
4 65 1826 1845 1462 1036 691 110 23 0 0 0 0 7 50 81 46 34 6 0 0 0 0 4 17 38 64 73 106 54 11 0 0 0 0 0 0 0 8 5 4 1 0
0 83 1334 1808 1678 1072 670 130 28 0 0 0 0 30 65 82 43 41 17 0 0 0 0 0 0 0 5 21 23 11 16 17 0 0 0 0 0 0 1 11 18 0 0
48 171 1447 2069 1938 1380 584 189 28 0 0 0 1 56 51 9 41 23 14 0 0 0 0 0 0 0 0 0 0 0 0 2 0 0 0 0 0 0 0 13 17 1 2
279 859 1304 2056 1955 1398 641 236 36 0 0 0 0 11 16 19 28 29 0 0 0 0 0 0 0 0 0 0 0 0 0 0 5 12 0 0 0 0 0 12 25 25 15
766 1046 1110 2144 1819 1341 692 250 71 1 0 0 0 0 20 21 33 27 11 2 0 0 0 0 0 0 0 0 0 0 1 0 0 0 0 0 0 0 0 20 39 49 18
657 888 1302 1909 1857 1762 1046 355 120 30 0 0 0 7 23 31 57 38 59 73 26 0 0 0 0 0 0 0 0 0 32 5 11 0 0 0 0 0 0 0 18 11 28
507 675 1307 2048 1937 1711 1032 521 171 66 8 0 0 0 15 43 66 59 228 160 8 0 0 0 0 0 1 2 1 1 15 57 3 0 0 0 0 0 0 0 5 20 29
497 652 1214 1890 2091 1782 1287 873 471 126 62 2 0 0 7 32 28 176 209 102 27 0 0 0 5 14 9 1 15 32 37 89 12 0 0 0 0 7 45 41 6 3 10
392 655 1201 1667 1841 1779 1330 1056 866 461 383 147 9 4 32 44 3 129 182 90 49 43 9 22 38 17 18 42 76 105 177 127 26 0 0 0 0 53 151 197 239 154 76
431 734 1105 1342 1465 1298 894 967 858 744 412 356 155 41 21 27 0 10 145 121 74 40 56 59 64 113 139 158 166 194 127 90 3 0 0 0 11 240 385 371 398 442 430
786 874 1048 1121 1086 818 659 763 792 662 367 195 45 11 11 0 0 0 0 0 18 55 81 112 206 259 127 31 35 13 0 0 0 0 0 0 44 178 154 123 230 312 371
929 1013 1160 991 897 685 835 642 472 358 214 93 10 0 0 0 0 0 0 0 19 25 12 33 63 10 0 0 0 0 0 0 0 0 0 0 0 0 0 0 22 18 9
577 917 1024 802 662 571 604 333 234 179 119 37 0 0 0 0 0 0 0 0 0 0 0 0 0 0 0 0 0 0 0 0 0 0 0 0 0 0 0 0 0 43 21
50 513 801 758 562 472 326 254 198 96 59 12 0 0 0 0 0 0 0 0 0 0 0 0 0 0 0 0 0 0 0 0 0 0 0 0 0 0 0 1 0 0 0
0 0 321 506 482 409 275 163 121 49 34 8 0 0 0 0 0 0 0 0 0 0 0 0 0 0 0 0 0 0 0 0 0 0 0 0 0 0 0 0 0 0 0
0 0 25 349 363 248 197 116 71 25 11 0 0 0 0 0 0 0 0 0 0 0 0 0 0 0 0 0 0 0 0 0 0 0 0 0 0 0 0 0 0 0 0
0 0 0 172 250 234 145 108 12 2 0 0 0 0 0 0 0 0 0 0 0 0 0 0 0 0 0 0 0 0 0 0 0 0 0 0 0 0 0 0 0 0 0
0 0 0 167 219 138 82 41 2 5 0 0 0 0 0 0 0 0 0 0 0 0 0 0 0 0 0 0 0 0 0 0 0 0 0 0 0 0 0 0 0 0 0
0 0 37 131 128 80 7 0 0 0 0 0 0 0 0 0 0 0 0 0 0 0 0 0 0 0 0 0 0 0 0 0 0 0 0 0 0 0 0 0 0 0 0
0 0 65 131 38 1 0 0 0 0 0 0 0 0 0 0 0 0 0 0 0 0 0 0 0 0 0 0 0 0 0 0 0 0 0 0 0 0 0 0 0 0 0
0 15 93 22 0 0 0 0 0 0 0 0 0 0 0 0 0 0 0 0 0 0 0 0 0 0 0 0 0 0 0 0 0 0 0 0 0 0 0 0 0 0 0
0 1 1 0 0 0 0 0 0 0 0 0 0 0 0 0 0 0 0 0 0 0 0 0 0 0 0 0 0 0 0 0 0 0 0 0 0 0 0 0 0 0 0
0 1 0 0 0 0 0 0 0 0 0 0 0 0 0 0 0 0 0 0 0 0 0 0 0 0 0 0 0 0 0 0 0 0 0 0 0 0 0 0 0 0 0
0 0 0 0 0 0 0 0 0 0 0 0 0 0 0 0 0 0 0 0 0 0 0 0 0 0 0 0 0 0 0 0 0 0 0 0 0 0 0 0 0 0 0
0 0 0 0 0 0 0 0 0 0 0 0 0 0 0 0 0 0 0 0 0 0 0 0 0 0 0 0 0 0 0 0 0 0 0 0 0 0 0 0 0 0 0
0 0 0 0 0 0 0 0 0 0 0 0 0 0 0 0 0 0 0 0 0 0 0 0 0 0 0 0 0 0 0 0 0 0 0 0 0 0 0 0 0 0 0

GFSSE_con_sbcape_015.txt.gz
CAPE
43 199 1682 1796 1462 1017 413 88 17 0 0 0 0 2 67 75 61 31 11 0 0 0 0 1 20 52 40 44 79 52 10 0 0 0 0 0 0 0 0 5 2 7 0
79 290 2128 2046 1632 1004 503 122 33 1 0 0 0 2 58 85 77 52 19 0 0 0 0 0 0 3 12 34 26 11 7 0 0 0 0 0 0 0 0 16 19 3 0
191 528 1378 2130 1850 1462 556 202 44 11 0 0 5 42 45 17 38 19 16 0 0 0 0 0 0 0 0 3 0 0 0 0 0 0 0 0 0 0 1 0 18 1 0
273 567 1184 2188 2019 1534 693 253 43 4 0 0 11 36 10 39 25 3 0 0 0 0 0 0 0 0 0 0 0 0 0 0 0 0 0 0 0 0 0 16 11 31 11
385 847 1405 2226 2117 1574 834 300 72 1 0 0 0 12 12 33 30 11 0 0 0 0 0 0 0 0 0 0 0 0 0 0 0 0 0 0 0 0 0 0 7 105 44
879 1284 1676 2178 2077 1532 1169 382 129 22 0 0 0 0 22 24 21 33 47 52 13 0 0 0 0 0 0 0 0 5 21 22 8 0 0 0 0 0 0 0 0 0 4
1094 1363 1622 2117 2111 1707 1304 641 214 98 16 0 0 4 16 46 59 78 121 156 8 0 0 0 1 7 7 4 3 1 0 45 3 5 0 0 0 2 37 28 6 7 31
1150 1344 1546 1783 2100 1833 1412 965 483 137 68 0 0 0 5 36 12 191 216 104 22 0 0 0 2 14 4 2 11 28 34 55 2 2 2 3 0 26 129 159 156 97 54
1039 1213 1442 1621 1766 1663 1385 1077 827 468 252 100 21 0 7 38 0 202 158 74 38 32 4 18 44 31 54 87 110 110 107 68 63 31 5 4 0 76 199 251 281 384 332
791 1119 1443 1745 1831 1707 1269 1029 903 728 521 380 142 27 8 6 0 6 98 121 70 33 59 63 124 180 180 120 92 34 0 0 0 0 0 0 15 186 234 228 240 346 407
688 991 1288 1596 1811 1667 1318 930 798 654 380 253 91 9 4 0 0 0 0 0 14 48 71 81 102 7 0 0 0 0 0 0 0 0 0 0 0 10 0 0 0 93 48
1047 1001 1236 1445 1410 1553 1160 1004 857 600 417 143 59 40 0 0 0 0 0 0 4 0 0 1 0 0 0 0 0 0 0 0 0 0 0 0 0 0 0 0 0 26 22
876 1137 1130 1310 1316 1192 1327 967 807 591 384 187 77 30 0 0 0 0 0 0 0 0 0 0 0 0 0 0 0 0 0 0 0 0 0 0 0 0 0 11 1 0 0
514 1162 1245 1187 896 1113 1218 991 749 495 380 282 137 27 14 0 0 0 3 0 0 0 0 0 0 0 0 0 0 0 0 0 0 0 0 0 0 0 0 0 0 0 1
85 347 1164 1320 912 931 1063 860 711 467 397 286 135 41 18 0 2 0 0 0 0 0 0 0 0 0 0 0 0 0 0 0 0 0 0 0 0 0 0 0 0 0 0
0 13 194 1081 1058 918 1044 710 653 464 340 210 133 86 15 0 0 0 0 0 0 0 0 0 0 0 0 0 0 0 0 0 0 0 0 0 0 0 0 0 0 0 0
0 0 0 303 1016 1072 1016 738 494 401 227 144 3 0 0 0 0 0 0 0 0 0 0 0 0 0 0 0 0 0 0 0 0 0 0 0 0 0 0 0 0 0 0
0 0 0 27 658 943 797 589 362 229 20 0 0 0 0 0 0 0 0 0 0 0 0 0 0 0 0 0 0 0 0 0 0 0 0 0 0 0 0 0 0 0 0
0 0 0 195 492 608 464 281 38 0 0 0 0 0 0 0 0 0 0 0 0 0 0 0 0 0 0 0 0 0 0 0 0 0 0 0 0 0 0 0 0 0 0
0 0 47 349 383 308 0 0 0 0 0 0 0 0 0 0 0 0 0 0 0 0 0 0 0 0 0 0 0 0 0 0 0 0 0 0 0 0 0 0 0 0 0
0 0 241 216 79 0 0 0 0 0 0 0 0 0 0 0 0 0 0 0 0 0 0 0 0 0 0 0 0 0 0 0 0 0 0 0 0 0 0 0 0 0 0
0 49 273 75 0 0 0 0 0 0 0 0 0 0 0 0 0 0 0 0 0 0 0 0 0 0 0 0 0 0 0 0 0 0 0 0 0 0 0 0 0 0 0
0 12 53 0 0 0 0 0 0 0 0 0 0 0 0 0 0 0 0 0 0 0 0 0 0 0 0 0 0 0 0 0 0 0 0 0 0 0 0 0 0 0 0
0 0 0 0 0 0 0 0 0 0 0 0 0 0 0 0 0 0 0 0 0 0 0 0 0 0 0 0 0 0 0 0 0 0 0 0 0 0 0 0 0 0 0
0 0 0 0 0 0 0 0 0 0 0 0 0 0 0 0 0 0 0 0 0 0 0 0 0 0 0 0 0 0 0 0 0 0 0 0 0 0 0 0 0 0 0
0 0 0 0 0 0 0 0 0 0 0 0 0 0 0 0 0 0 0 0 0 0 0 0 0 0 0 0 0 0 0 0 0 0 0 0 0 0 0 0 0 0 0

GFSSE_con_sbcape_018.txt.gz
CAPE
123 1174 1963 1711 1201 966 470 106 20 1 0 0 0 35 75 67 43 19 4 0 0 0 0 0 11 70 21 33 61 39 4 0 0 0 0 0 0 0 0 1 5 3 0
291 1208 2318 2141 1597 838 439 120 38 8 0 0 0 4 80 75 76 36 24 0 0 0 0 0 0 5 26 48 34 29 24 0 0 0 0 0 0 0 0 5 10 4 0
394 1100 1358 2202 1838 1239 538 182 56 23 0 0 7 18 55 45 47 31 6 0 0 0 0 0 0 0 1 6 1 0 0 0 0 0 0 0 0 0 0 0 4 0 0
489 1207 1174 2262 1981 1338 702 252 59 30 0 0 69 21 13 22 12 3 0 0 0 0 0 0 0 0 0 0 0 0 0 0 0 0 0 0 0 0 0 6 3 48 15
663 1132 1382 2260 2099 1492 790 282 55 4 0 0 7 11 17 20 0 0 0 0 0 0 0 0 0 0 0 0 0 1 11 0 0 1 1 1 0 0 0 0 18 24 130
624 970 1780 2268 2132 1604 1127 309 77 1 0 0 0 7 11 17 25 26 6 14 0 0 0 0 0 0 2 0 0 0 20 23 3 12 6 3 0 0 0 0 0 0 14
711 1045 1566 2374 2170 1733 1021 432 121 35 0 0 0 5 9 47 51 87 34 51 0 0 0 0 1 3 3 0 2 8 2 4 0 13 15 25 28 0 42 87 81 45 28
829 1171 1248 1848 1936 1766 1277 830 399 120 29 0 0 1 4 28 11 163 114 26 9 0 0 0 3 24 8 21 52 52 48 47 26 50 47 54 14 16 120 272 308 329 266
872 1245 1155 1315 1693 1591 1404 1101 759 302 131 42 1 0 5 22 1 177 191 74 21 24 5 20 40 62 97 150 155 110 39 9 37 34 7 43 17 101 183 278 330 390 434
981 1170 1171 1228 1233 1485 1322 1051 877 686 558 301 122 46 63 8 0 93 142 111 56 27 53 78 165 130 58 19 0 0 0 0 0 0 1 19 21 137 114 61 5 39 187
961 1130 1273 1179 1417 1545 1276 928 814 728 553 280 86 30 5 0 0 0 0 0 11 51 28 44 0 0 0 0 0 0 0 0 0 0 0 0 0 0 0 0 0 9 44
1115 1092 1384 1418 1368 1472 1309 1247 667 361 329 224 172 96 5 0 0 0 0 0 1 0 1 0 0 0 0 0 0 0 0 0 0 0 0 0 0 0 0 20 0 0 0
1046 1317 1340 1498 1653 1683 1409 1276 933 571 628 433 306 159 0 0 0 0 19 41 112 0 0 0 0 0 0 0 0 0 0 0 0 0 0 0 0 0 11 0 0 0 0
799 1296 1463 1518 1823 1765 1564 1370 1004 730 717 625 419 197 27 0 9 14 81 8 0 0 0 0 0 0 0 0 0 0 0 0 0 0 0 0 0 0 0 0 0 0 0
552 966 1436 1614 1668 1774 1763 1459 1257 924 702 656 537 202 74 53 93 104 0 0 0 0 0 0 0 0 0 0 0 0 0 0 0 0 0 0 0 0 0 0 0 0 0
197 382 834 1610 1744 1598 1913 1695 1410 1075 710 754 604 192 215 170 202 0 0 0 0 0 0 0 0 0 0 0 0 0 0 0 0 0 0 0 0 0 0 0 0 0 0
3 1 58 709 1546 1424 1906 1833 1440 1136 792 706 547 353 283 24 0 0 0 0 0 0 0 0 0 0 0 0 0 0 0 0 0 0 0 0 0 0 0 0 0 0 0
0 0 0 0 426 1423 1651 1760 1512 1117 872 859 540 308 0 0 0 0 0 0 0 0 0 0 0 0 0 0 0 0 0 0 0 0 0 0 0 0 0 0 0 0 0
0 0 0 2 36 562 1232 1529 1418 1145 775 173 16 0 0 0 0 0 0 0 0 0 0 0 0 0 0 0 0 0 0 0 0 0 0 0 0 0 0 0 0 0 0
0 0 0 72 345 669 1118 1330 972 318 0 0 0 0 0 0 0 0 0 0 0 0 0 0 0 0 0 0 0 0 0 0 0 0 0 0 0 0 0 0 0 0 0
0 0 0 262 640 814 982 403 0 0 0 0 0 0 0 0 0 0 0 0 0 0 0 0 0 0 0 0 0 0 0 0 0 0 0 0 0 0 0 0 0 0 0
0 0 140 526 671 901 439 256 1 0 0 0 0 0 0 0 0 0 0 0 0 0 0 0 0 0 0 0 0 0 0 0 0 0 0 0 0 0 0 0 0 0 0
0 4 322 626 616 563 332 10 0 0 0 0 0 0 0 0 0 0 0 0 0 0 0 0 0 0 0 0 0 0 0 0 0 0 0 0 0 0 0 0 0 0 0
0 11 420 372 556 322 0 0 0 0 0 0 0 0 0 0 0 0 0 0 0 0 0 0 0 0 0 0 0 0 0 0 0 0 0 0 0 0 0 0 0 0 0
0 38 255 200 317 0 0 0 0 0 0 0 0 0 0 0 0 0 0 0 0 0 0 0 0 0 0 0 0 0 0 0 0 0 0 0 0 0 0 0 0 0 0
0 40 98 253 78 0 0 0 0 0 0 0 0 0 0 0 0 0 0 0 0 0 0 0 0 0 0 0 0 0 0 0 0 0 0 0 0 0 0 0 0 0 0

GFSSE_con_sbcape_021.txt.gz
CAPE
185 1141 1922 1310 920 713 366 75 0 0 0 0 2 81 52 41 20 6 12 0 0 0 0 0 18 72 33 44 70 34 10 1 0 0 0 0 0 0 0 0 1 6 0
516 1397 2237 1839 1280 737 415 39 0 0 0 0 0 28 46 54 29 28 22 0 0 0 0 0 0 2 46 57 48 48 20 2 0 0 0 0 0 0 0 0 9 3 0
870 1554 1527 2018 1794 1130 431 66 25 0 0 0 2 27 77 65 39 32 8 0 0 0 0 0 0 0 0 0 0 0 0 0 0 0 0 0 0 0 0 0 0 5 0
766 1334 1358 2118 1709 1142 504 158 52 1 0 1 30 28 4 17 16 10 0 0 0 0 0 0 0 0 0 0 0 0 0 0 0 0 0 0 0 0 0 0 11 13 39
726 1167 1686 2202 1891 1358 671 190 71 25 0 71 21 6 14 0 0 0 0 0 0 0 0 0 0 0 0 0 0 0 20 1 0 1 6 6 0 3 0 0 0 3 29
728 1248 1698 2166 1984 1545 935 185 59 14 0 11 0 0 0 0 0 0 0 0 0 0 0 0 0 1 0 0 0 0 0 0 0 14 11 15 6 0 8 11 6 0 0
641 1346 1777 2255 1987 1655 930 304 71 18 5 0 0 0 10 34 23 33 23 17 6 0 0 0 2 3 3 0 2 5 4 0 0 22 21 22 32 21 53 88 192 190 114
636 1064 1742 1930 1912 1639 1095 618 211 41 9 17 5 0 9 8 5 127 104 15 11 0 0 0 8 10 13 45 86 68 44 23 5 18 15 15 45 30 99 133 274 320 380
699 985 1395 1902 1605 1370 1192 1016 692 268 71 46 48 6 27 5 123 197 88 43 0 0 0 23 75 91 121 112 76 22 3 1 0 12 0 18 39 80 92 116 66 37 103
804 960 1080 1564 1793 1326 1098 1012 805 629 387 177 89 75 101 6 88 149 247 94 38 14 40 115 64 24 10 0 0 0 0 0 0 0 0 0 0 2 12 3 0 9 91
844 972 983 1090 1459 1234 1259 853 766 667 467 246 85 55 9 0 0 0 0 10 26 27 38 0 0 0 0 0 0 0 0 0 0 0 0 0 0 0 0 5 12 0 11
911 983 1085 1069 1284 1370 1194 1028 601 348 463 151 102 35 13 0 0 0 0 3 5 8 0 0 0 0 0 0 0 0 0 0 0 0 0 0 0 0 27 0 0 11 0
881 983 1168 1264 1260 1296 1118 1286 898 565 416 301 199 147 0 0 0 0 0 0 4 0 1 0 0 0 0 0 0 0 0 0 0 0 0 0 0 11 8 0 0 0 0
692 1000 1139 1362 1496 1466 1516 1236 1064 699 723 531 379 202 0 0 0 0 17 171 0 0 0 0 0 0 0 0 0 0 0 0 0 0 0 0 0 0 0 0 0 0 0
446 743 1204 1334 1707 1790 1740 1444 1241 975 687 586 597 327 16 0 7 23 18 0 0 0 0 0 0 0 0 0 0 0 0 0 0 0 0 0 0 0 0 0 0 0 0
301 422 877 1251 1546 1798 1813 1562 1415 1103 787 802 585 407 65 59 120 50 0 0 0 0 0 0 0 0 0 0 0 0 0 0 0 0 0 0 0 0 0 0 0 0 0
5 92 333 1002 1391 1650 1721 1879 1609 1334 982 820 646 392 184 284 63 0 0 0 0 0 0 0 0 0 0 0 0 0 0 0 0 0 0 0 0 0 0 0 0 0 0
0 0 0 110 849 1586 1648 1772 1515 1258 1092 870 744 442 400 183 0 0 0 0 0 0 0 0 0 0 0 0 0 0 0 0 0 0 0 0 0 0 0 0 0 0 0
0 0 0 0 73 661 1613 1563 1477 1304 977 783 888 748 176 0 0 0 0 0 0 0 0 0 0 0 0 0 0 0 0 0 0 0 0 0 0 0 0 0 0 0 0
0 0 0 0 0 57 997 1364 1683 1183 1021 719 550 5 0 0 0 0 0 0 0 0 0 0 0 0 0 0 0 0 0 0 0 0 0 0 0 0 0 0 0 0 0
0 0 0 0 81 265 749 1605 1525 986 292 49 0 0 0 0 0 0 0 0 0 0 0 0 0 0 0 0 0 0 0 0 0 0 0 0 0 0 0 0 0 0 0
0 0 0 0 110 591 1181 1567 996 241 0 0 0 0 0 0 0 0 0 0 0 0 0 0 0 0 0 0 0 0 0 0 0 0 0 0 0 0 0 0 0 0 0
0 0 0 37 431 820 1209 666 0 0 0 0 0 0 0 0 0 0 0 0 0 0 0 0 0 0 0 0 0 0 0 0 0 0 0 0 0 0 0 0 0 0 0
0 0 14 165 637 906 925 216 0 0 0 0 0 0 0 0 0 0 0 0 0 0 0 0 0 0 0 0 0 0 0 0 0 0 0 0 0 0 0 0 0 0 0
0 0 33 254 663 806 624 5 0 0 0 0 0 0 0 0 0 0 0 0 0 0 0 0 0 0 0 0 0 0 0 0 0 0 0 0 0 0 0 0 0 0 0
0 1 124 456 459 630 230 0 0 0 0 0 0 0 0 0 0 0 0 0 0 0 0 0 0 0 0 0 0 0 0 0 0 0 0 0 0 0 0 0 0 0 0

GFSSE_con_sbcape_024.txt.gz
CAPE
903 1180 1652 1039 756 491 225 35 0 0 0 30 143 107 49 10 12 18 0 0 0 0 0 11 61 76 69 99 82 47 30 2 0 0 0 0 0 0 0 2 3 6 6
972 1250 1648 1426 970 561 219 38 0 0 0 0 14 75 58 40 37 29 10 0 0 0 0 2 0 23 50 49 51 36 16 0 0 0 0 0 0 0 0 0 0 4 0
1033 1442 1364 1683 1334 987 185 57 5 0 0 0 1 69 100 54 38 14 0 0 0 0 0 1 0 2 6 0 0 1 0 0 0 0 1 0 0 0 0 0 0 0 1
1376 1081 1190 1876 1496 940 261 82 13 0 0 2 20 25 31 27 12 0 0 0 0 0 0 0 0 0 0 0 0 0 0 0 0 0 0 0 0 0 0 0 0 13 41
1269 998 1523 1795 1556 1048 401 151 28 0 23 80 58 21 0 0 0 0 0 0 0 0 0 0 0 0 0 0 0 0 1 0 3 10 3 0 0 1 0 0 0 0 0
1010 1441 1727 1812 1628 1261 732 178 45 0 8 54 80 23 0 0 0 0 0 2 0 0 0 1 4 1 0 0 0 0 0 0 0 0 2 2 5 40 32 5 38 38 5
1364 1509 1646 1975 1801 1371 701 315 52 4 2 26 0 0 9 13 0 14 45 7 0 0 0 1 4 9 0 0 1 0 0 1 0 5 2 13 26 63 60 37 190 233 255
1536 1582 1678 1809 1736 1385 841 548 218 40 20 30 21 0 44 0 34 111 69 0 0 0 0 1 6 1 6 54 54 40 22 10 0 1 3 10 77 57 57 66 76 58 104
955 1624 1520 1471 1397 1157 889 660 447 214 107 107 95 62 87 69 404 235 126 32 0 0 0 34 72 72 75 37 4 0 0 0 0 0 0 0 4 4 20 10 0 26 145
694 1270 1612 1485 1196 907 739 718 633 458 203 214 122 121 41 14 308 411 211 124 12 13 44 44 10 15 3 0 0 0 0 0 0 0 0 0 0 0 0 0 50 21 42
741 708 1230 1538 1313 989 753 652 645 536 291 145 50 60 9 0 37 73 19 20 62 20 13 0 0 0 0 0 0 0 0 0 0 0 0 0 0 0 29 6 12 20 3
674 732 732 1466 1454 1220 985 548 404 354 157 20 4 0 0 0 0 0 0 26 27 15 0 0 0 0 0 0 0 0 0 0 0 0 0 0 0 18 12 10 6 0 1
623 672 737 777 1055 1083 1038 573 383 222 290 73 24 0 0 0 0 0 0 0 0 0 0 0 0 0 0 0 0 0 0 0 0 0 0 0 1 20 1 9 0 0 3
625 688 812 860 943 1197 1097 938 688 365 372 221 92 43 0 0 0 0 0 0 2 0 0 0 0 0 0 0 0 0 0 0 0 0 0 0 0 0 2 0 0 0 0
363 700 808 970 1124 1152 1164 1170 834 512 380 278 232 104 0 0 0 0 1 0 0 0 0 0 0 0 0 0 0 0 0 0 0 0 0 0 0 0 0 0 0 0 0
8 393 840 1013 1268 1398 1347 1046 972 846 599 370 387 254 3 0 0 0 0 0 0 0 0 0 0 0 0 0 0 0 0 0 0 0 0 0 0 0 0 0 0 0 0
0 84 549 921 1206 1404 1355 1146 1188 998 815 545 475 403 60 7 0 0 0 0 0 0 0 0 0 0 0 0 0 0 0 0 0 0 0 0 0 0 0 0 0 0 0
0 0 61 783 982 1289 1413 1326 1106 1061 846 610 556 486 148 0 0 0 0 0 0 0 0 0 0 0 0 0 0 0 0 0 0 0 0 0 0 0 0 0 0 0 0
0 0 0 118 937 1111 1294 1270 1146 1142 774 613 582 387 226 0 0 0 0 0 0 0 0 0 0 0 0 0 0 0 0 0 0 0 0 0 0 0 0 0 0 0 0
0 0 0 0 11 459 1419 1286 1156 999 694 716 564 113 0 0 0 0 0 0 0 0 0 0 0 0 0 0 0 0 0 0 0 0 0 0 0 0 0 0 0 0 0
0 0 0 0 0 0 467 1282 1167 819 517 217 0 0 0 0 0 0 0 0 0 0 0 0 0 0 0 0 0 0 0 0 0 0 0 0 0 0 0 0 0 0 0
0 0 0 0 0 0 0 843 1182 204 0 0 0 0 0 0 0 0 0 0 0 0 0 0 0 0 0 0 0 0 0 0 0 0 0 0 0 0 0 0 0 0 0
0 0 0 0 0 0 172 231 0 0 0 0 0 0 0 0 0 0 0 0 0 0 0 0 0 0 0 0 0 0 0 0 0 0 0 0 0 0 0 0 0 0 0
0 0 0 0 0 5 807 0 0 0 0 0 0 0 0 0 0 0 0 0 0 0 0 0 0 0 0 0 0 0 0 0 0 0 0 0 0 0 0 0 0 0 0
0 0 0 0 0 328 598 0 0 0 0 0 0 0 0 0 0 0 0 0 0 0 0 0 0 0 0 0 0 0 0 0 0 0 0 0 0 0 0 0 0 0 0
0 0 0 0 222 444 244 0 0 0 0 0 0 0 0 0 0 0 0 0 0 0 0 0 0 0 0 0 0 0 0 0 0 0 0 0 0 0 0 0 0 0 0

GFSSE_con_sbcape_027.txt.gz
CAPE
715 903 1515 966 594 376 228 123 78 175 407 352 272 91 7 6 4 0 0 0 0 0 9 30 30 68 99 90 77 47 22 0 0 0 0 0 0 0 0 0 9 9 4
785 858 1408 1305 721 421 123 45 6 0 19 84 110 77 7 23 1 0 0 0 0 0 6 8 33 58 59 48 36 28 1 0 0 0 0 0 0 0 0 0 0 4 0
994 985 1068 1382 1153 702 146 61 18 0 0 1 52 64 50 48 7 0 0 0 0 0 6 3 2 8 1 9 0 0 0 0 0 0 0 0 0 0 0 0 0 0 5
1133 1008 1051 1459 1242 603 183 76 4 0 0 3 206 264 58 17 0 0 1 0 0 0 0 0 0 0 0 0 0 0 0 0 0 5 0 0 0 0 0 0 0 2 19
1137 1036 1325 1559 1219 683 256 71 0 39 33 196 82 54 16 12 1 0 2 0 0 0 2 1 0 0 0 0 0 0 0 0 4 3 0 0 0 15 8 0 0 0 0
858 1079 1504 1571 1298 954 676 140 8 106 173 32 89 51 33 1 0 0 0 0 0 0 1 3 2 0 0 0 0 0 0 0 3 0 0 37 15 51 19 4 76 82 51
990 1323 1360 1640 1464 1106 769 511 68 94 105 42 12 1 0 10 8 4 2 0 0 0 0 1 6 0 0 0 0 0 0 7 0 0 6 22 36 63 36 76 86 94 139
1280 1301 1349 1533 1459 1102 740 429 208 126 177 98 65 62 63 13 0 31 8 0 0 0 0 1 0 0 13 33 25 0 0 3 1 0 3 3 53 20 1 21 0 25 149
1401 1358 1377 1301 1118 893 675 428 310 225 293 299 188 224 59 293 479 317 53 0 0 0 0 26 25 42 33 1 0 0 0 0 0 0 0 0 1 0 0 2 31 98 45
1389 1418 1310 1153 977 652 482 486 373 283 312 329 304 329 46 279 441 439 289 144 0 1 90 41 28 16 0 0 0 0 0 0 0 0 0 0 0 0 3 19 22 35 17
1372 1337 1186 1067 803 526 400 335 423 351 271 283 129 90 5 53 178 92 47 86 126 73 48 1 2 0 0 0 0 0 0 0 0 0 0 0 0 35 16 35 16 15 24
754 1312 1283 1108 842 615 627 376 247 175 43 20 12 40 0 0 7 31 13 44 150 125 1 0 0 0 0 0 0 0 0 0 0 0 0 0 1 21 36 18 3 3 20
268 665 1447 1207 997 798 730 359 196 166 32 0 0 0 0 0 0 0 0 3 0 0 0 0 0 0 0 0 0 0 0 0 0 0 0 2 20 14 22 3 0 3 3
242 274 869 1354 1164 996 725 390 232 184 146 37 1 0 0 0 0 0 0 0 0 0 0 0 0 0 0 0 0 0 0 0 0 0 0 0 0 6 3 0 0 0 0
171 255 274 1026 1207 1001 772 454 462 219 281 240 96 19 0 0 0 0 0 0 0 0 0 0 0 0 0 0 0 0 0 0 0 0 0 0 0 0 0 0 0 0 0
28 192 456 421 694 957 940 810 663 415 323 306 97 30 0 0 0 0 0 0 0 0 0 0 0 0 0 0 0 0 0 0 0 0 0 0 0 0 0 0 0 0 0
0 71 419 655 668 970 926 1028 710 654 365 376 297 67 0 0 0 0 0 0 0 0 0 0 0 0 0 0 0 0 0 0 0 0 0 0 0 0 0 0 0 0 0
0 0 433 837 1011 1055 1104 766 855 871 419 401 332 243 13 0 0 0 0 0 0 0 0 0 0 0 0 0 0 0 0 0 0 0 0 0 0 0 0 0 0 0 0
0 0 0 720 1055 1319 1180 990 770 735 404 366 275 234 0 0 0 0 0 0 0 0 0 0 0 0 0 0 0 0 0 0 0 0 0 0 0 0 0 0 0 0 0
0 0 0 53 852 1395 1310 1245 550 662 544 468 458 149 0 0 0 0 0 0 0 0 0 0 0 0 0 0 0 0 0 0 0 0 0 0 0 0 0 0 0 0 0
0 0 0 0 455 962 1207 1105 473 711 499 433 107 0 0 0 0 0 0 0 0 0 0 0 0 0 0 0 0 0 0 0 0 0 0 0 0 0 0 0 0 0 0
0 0 0 0 0 567 1180 1237 673 106 0 0 0 0 0 0 0 0 0 0 0 0 0 0 0 0 0 0 0 0 0 0 0 0 0 0 0 0 0 0 0 0 0
0 0 0 0 0 0 437 0 0 0 0 0 0 0 0 0 0 0 0 0 0 0 0 0 0 0 0 0 0 0 0 0 0 0 0 0 0 0 0 0 0 0 0
0 0 0 0 0 0 0 0 0 50 0 0 0 0 0 0 0 0 0 0 0 0 0 0 0 0 0 0 0 0 0 0 0 0 0 0 0 0 0 0 0 0 0
0 0 0 0 0 0 17 0 55 0 0 0 0 0 0 0 0 0 0 0 0 0 0 0 0 0 0 0 0 0 0 0 0 0 0 0 0 0 0 0 0 0 0
0 0 0 0 0 32 0 0 6 0 0 0 0 0 0 0 0 0 0 0 0 0 0 0 0 0 0 0 0 0 0 0 0 0 0 0 0 0 0 0 0 0 0

GFSSE_con_sbcape_030.txt.gz
CAPE
546 881 1493 908 789 726 663 756 789 785 746 516 204 10 8 4 0 0 0 0 0 3 41 22 8 25 86 80 81 43 15 0 0 0 0 0 0 0 0 1 0 1 4
594 879 1378 1146 672 474 367 271 415 590 658 466 184 17 15 7 0 0 0 0 0 5 19 51 92 135 115 77 38 23 1 0 0 0 0 0 0 0 0 0 0 0 0
756 795 853 1149 984 483 107 87 57 73 201 214 132 19 22 2 0 0 0 0 2 5 10 7 6 5 12 2 0 0 0 0 0 0 0 0 0 0 0 0 0 4 4
718 832 767 1221 872 295 135 95 53 25 42 165 179 104 40 1 0 0 0 0 1 4 2 0 0 0 0 0 0 0 0 0 0 6 0 0 0 1 0 0 0 0 12
838 837 861 1310 911 417 185 59 21 30 44 222 470 151 2 0 1 1 0 0 0 1 0 0 0 0 0 0 0 0 0 0 6 0 0 0 0 14 3 0 0 0 0
789 844 1202 1367 1070 745 418 112 133 95 194 131 357 206 39 3 4 3 0 0 0 1 2 0 0 0 0 0 0 0 0 4 2 1 0 2 18 36 11 4 99 96 80
839 1026 1184 1445 1166 812 319 267 417 277 153 43 57 24 9 4 6 2 0 0 0 1 4 3 0 0 0 0 0 0 3 11 0 0 0 22 29 34 22 52 18 28 83
998 1176 1156 1287 1261 1051 694 340 465 659 357 228 150 99 35 32 31 28 15 0 0 0 5 9 2 1 1 0 0 0 0 0 0 0 0 0 30 11 3 1 3 130 112
1136 1147 1115 1094 984 879 718 387 394 655 361 316 326 382 310 230 239 139 70 16 1 0 13 4 3 56 16 0 0 0 0 0 0 0 0 0 2 0 2 8 63 16 15
1200 1167 1121 1062 821 540 385 387 312 542 421 363 487 354 134 314 530 489 302 220 18 41 158 155 118 31 0 0 0 0 0 0 0 0 0 0 0 2 38 41 38 32 23
1254 1236 1131 1005 641 396 267 263 316 346 376 361 339 57 91 158 245 242 87 190 191 214 191 41 33 0 0 0 0 0 0 0 0 0 0 0 58 36 59 30 22 34 22
1128 989 982 908 619 402 362 227 146 123 118 91 78 24 0 47 84 70 86 89 321 330 111 1 0 0 0 0 0 0 0 0 0 0 0 0 25 44 27 18 16 25 16
1216 1230 1037 917 695 492 433 231 125 53 4 2 5 14 0 0 14 12 0 18 10 31 0 0 0 0 0 0 0 0 0 0 0 0 0 55 8 33 16 7 4 3 5
897 1282 1240 1046 799 593 508 298 189 93 0 0 0 0 0 0 0 0 0 0 0 0 0 0 0 0 0 0 0 0 0 0 0 0 0 0 4 6 3 0 0 0 0
153 857 1371 1173 981 791 547 330 194 147 63 1 0 0 0 0 0 0 0 0 0 0 0 0 0 0 0 0 0 0 0 0 0 0 0 0 0 0 0 0 0 0 0
5 108 1197 1306 1151 975 716 374 202 107 130 85 28 5 0 0 0 0 0 0 0 0 0 0 0 0 0 0 0 0 0 0 0 0 0 0 0 0 0 0 0 0 0
0 1 65 1411 1309 1069 824 421 318 151 158 191 86 36 0 0 0 0 0 0 0 0 0 0 0 0 0 0 0 0 0 0 0 0 0 0 0 0 0 0 0 0 0
0 0 0 471 1081 1091 903 685 594 401 237 204 183 120 0 0 0 0 0 0 0 0 0 0 0 0 0 0 0 0 0 0 0 0 0 0 0 0 0 0 0 0 0
0 0 0 153 527 995 1006 899 528 510 325 190 226 139 0 0 0 0 0 0 0 0 0 0 0 0 0 0 0 0 0 0 0 0 0 0 0 0 0 0 0 0 0
0 0 0 60 490 880 847 652 317 309 200 203 111 226 0 0 0 0 0 0 0 0 0 0 0 0 0 0 0 0 0 0 0 0 0 0 0 0 0 0 0 0 0
0 0 0 0 324 787 926 609 395 488 308 130 142 7 0 0 0 0 0 0 0 0 0 0 0 0 0 0 0 0 0 0 0 0 0 0 0 0 0 0 0 0 0
0 0 0 0 0 583 1042 1008 728 652 99 288 0 0 0 0 0 0 0 0 0 0 0 0 0 0 0 0 0 0 0 0 0 0 0 0 0 0 0 0 0 0 0
0 0 0 0 0 167 988 0 0 0 0 0 0 0 0 0 0 0 0 0 0 0 0 0 0 0 0 0 0 0 0 0 0 0 0 0 0 0 0 0 0 0 0
0 0 0 0 0 0 86 99 84 151 0 0 0 0 0 0 0 0 0 0 0 0 0 0 0 0 0 0 0 0 0 0 0 0 0 0 0 0 0 0 0 0 0
0 0 0 0 0 0 2 197 81 223 87 0 0 0 0 0 0 0 0 0 0 0 0 0 0 0 0 0 0 0 0 0 0 0 0 0 0 0 0 0 0 0 0
0 0 0 0 0 0 0 79 113 159 0 0 0 0 0 0 0 0 0 0 0 0 0 0 0 0 0 0 0 0 0 0 0 0 0 0 0 0 0 0 0 0 0

GFSSE_con_sbcape_033.txt.gz
CAPE
268 725 1620 1152 650 561 999 1048 984 1081 736 245 29 8 2 0 0 0 0 0 0 2 6 2 15 66 66 68 54 38 0 0 0 0 0 0 0 0 0 0 0 0 1
509 808 1287 1010 687 615 1135 1065 1314 1204 980 379 63 12 8 0 0 0 0 0 3 10 31 101 41 62 90 75 52 20 0 0 0 0 0 0 0 0 0 0 0 0 0
684 741 755 1160 1029 843 714 812 809 736 645 336 104 47 12 1 0 0 0 1 4 14 25 31 35 41 27 8 0 0 0 0 0 0 0 0 0 0 0 0 0 12 1
698 680 606 1180 832 458 236 189 389 486 479 329 99 22 9 2 0 0 0 2 4 15 5 5 5 1 0 0 0 0 0 0 0 0 0 0 0 4 0 0 0 0 7
652 619 650 1147 787 261 165 120 94 127 206 297 321 115 4 0 0 0 0 1 2 2 0 0 0 0 0 0 0 0 0 0 0 0 0 0 0 12 3 0 0 0 0
653 590 977 1110 924 641 293 68 52 60 167 277 451 101 0 0 1 0 0 0 0 0 0 0 0 0 0 0 0 0 3 7 0 0 0 0 9 41 25 96 83 84 102
607 662 946 1211 826 451 175 265 289 204 431 652 369 69 43 26 24 0 0 0 0 1 1 1 0 0 0 0 0 6 0 0 0 0 0 0 16 19 23 7 22 124 153
769 895 1000 1084 992 727 335 469 577 608 285 384 402 207 81 50 57 44 0 0 0 2 7 6 2 2 15 13 0 0 0 0 0 0 0 0 16 6 1 0 66 41 46
880 911 980 880 820 786 493 455 730 602 373 310 305 237 222 237 263 130 47 12 0 11 48 41 42 66 19 0 0 0 0 0 0 0 0 0 0 0 2 109 33 27 7
935 939 857 809 734 594 472 346 550 511 438 389 339 430 289 221 318 425 300 168 23 45 98 130 139 74 0 0 0 0 0 0 0 0 0 0 0 28 67 53 46 25 20
1066 1051 967 864 581 355 240 216 325 478 363 377 378 237 121 160 252 302 158 217 187 210 295 202 118 7 0 0 0 0 0 0 0 0 0 12 46 95 42 20 38 23 4
996 1120 975 792 517 286 258 155 123 192 202 147 192 50 43 101 144 185 113 185 348 424 307 72 3 0 0 0 0 0 0 0 0 0 0 68 57 39 19 32 27 18 6
1143 1031 825 684 509 338 262 118 61 48 43 28 43 5 0 29 45 30 22 65 77 169 0 0 0 0 0 0 0 0 0 0 0 0 17 41 35 26 21 9 9 7 5
1086 1006 912 751 545 384 248 145 87 40 5 0 2 0 0 0 3 0 0 0 0 0 0 0 0 0 0 0 0 0 0 0 0 0 0 24 11 6 2 0 0 0 0
1094 1065 1017 795 641 529 289 169 117 76 14 0 0 0 0 0 0 0 0 0 0 0 0 0 0 0 0 0 0 0 0 0 0 0 0 0 0 0 0 0 0 0 0
443 1185 1291 963 830 652 468 232 139 101 42 0 0 0 0 0 0 0 0 0 0 0 0 0 0 0 0 0 0 0 0 0 0 0 0 0 0 0 0 0 0 0 0
0 10 1174 1251 1048 797 661 370 126 100 67 26 0 0 0 0 0 0 0 0 0 0 0 0 0 0 0 0 0 0 0 0 0 0 0 0 0 0 0 0 0 0 0
0 0 0 1382 1188 1022 846 544 237 70 59 48 35 0 0 0 0 0 0 0 0 0 0 0 0 0 0 0 0 0 0 0 0 0 0 0 0 0 0 0 0 0 0
0 0 0 165 1234 1213 972 632 394 178 46 46 59 36 0 0 0 0 0 0 0 0 0 0 0 0 0 0 0 0 0 0 0 0 0 0 0 0 0 0 0 0 0
0 0 0 4 425 1136 1076 715 478 255 138 38 76 73 0 0 0 0 0 0 0 0 0 0 0 0 0 0 0 0 0 0 0 0 0 0 0 0 0 0 0 0 0
0 0 0 0 60 525 769 677 487 294 148 46 58 79 0 0 0 0 0 0 0 0 0 0 0 0 0 0 0 0 0 0 0 0 0 0 0 0 0 0 0 0 0
0 0 0 0 0 266 671 816 539 538 429 146 15 0 0 0 0 0 0 0 0 0 0 0 0 0 0 0 0 0 0 0 0 0 0 0 0 0 0 0 0 0 0
0 0 0 0 0 19 586 212 0 0 0 0 0 0 0 0 0 0 0 0 0 0 0 0 0 0 0 0 0 0 0 0 0 0 0 0 0 0 0 0 0 0 0
0 0 0 0 0 0 7 153 60 244 102 4 38 0 0 0 0 0 0 0 0 0 0 0 0 0 0 0 0 0 0 0 0 0 0 0 0 0 0 0 0 0 0
0 0 0 0 0 0 0 164 189 258 175 2 0 0 0 0 0 0 0 0 0 0 0 0 0 0 0 0 0 0 0 0 0 0 0 0 0 0 0 0 0 0 0
0 0 0 0 0 0 0 7 205 308 0 0 0 0 0 0 0 0 0 0 0 0 0 0 0 0 0 0 0 0 0 0 0 0 0 0 0 0 0 0 0 0 0

GFSSE_con_sbcape_036.txt.gz
CAPE
59 580 1860 1476 1290 1240 1391 1359 1247 1023 626 281 74 28 1 0 0 0 0 0 0 1 4 4 55 74 73 64 51 1 0 0 0 0 0 0 0 2 1 0 0 0 0
179 737 1734 1517 1234 1066 1282 1396 1503 1244 799 154 56 30 0 0 0 0 0 1 4 31 49 24 51 78 76 68 39 0 0 0 0 0 0 0 0 0 0 0 0 0 6
545 623 863 1501 1245 1232 1673 1210 1140 932 607 349 85 42 4 0 0 0 0 2 6 44 59 105 81 62 23 0 0 0 0 0 0 0 0 0 0 0 0 0 0 25 0
609 523 579 1388 1333 1273 1169 1105 1014 892 595 247 139 13 8 0 0 0 1 3 13 33 15 2 1 0 0 0 0 0 0 0 0 0 0 0 0 5 0 0 0 0 3
548 468 579 1349 1239 773 613 659 752 716 633 307 169 59 13 0 0 0 2 4 8 4 0 0 0 0 0 0 2 1 0 0 0 0 0 0 0 12 20 65 18 0 0
408 375 889 1190 1005 656 390 174 199 310 367 277 273 85 0 0 0 0 0 2 1 1 0 0 0 0 0 0 0 1 0 0 0 0 0 0 4 57 67 39 72 127 155
356 424 826 1118 739 453 299 164 141 159 296 357 432 97 34 5 0 0 0 0 0 0 0 0 0 1 4 7 4 0 0 0 0 0 0 0 0 19 0 42 129 126 154
542 659 736 933 847 669 328 300 392 345 488 643 556 157 92 68 46 4 0 0 1 7 9 11 22 39 44 8 0 0 0 0 0 0 0 0 18 4 1 64 49 12 13
636 661 669 684 635 626 412 647 594 518 633 825 572 428 278 247 192 75 24 0 12 31 75 48 80 97 14 0 0 0 0 0 0 0 0 0 1 3 92 61 31 8 8
706 701 583 547 512 402 242 516 632 553 412 473 463 331 240 225 252 345 205 102 27 75 125 113 179 50 0 0 0 0 0 0 0 0 0 0 3 77 63 51 31 11 0
633 767 619 516 467 344 205 175 406 437 331 290 228 262 201 98 135 234 143 172 163 190 277 282 169 0 0 0 0 0 0 0 0 0 0 81 84 44 23 34 25 4 0
528 825 759 753 491 260 299 143 152 215 177 171 197 140 33 65 106 179 132 189 267 332 263 171 33 0 0 0 0 0 0 0 0 0 0 91 48 22 18 27 13 5 2
686 613 850 883 673 276 241 81 48 114 103 91 135 54 7 59 65 73 46 89 71 114 1 0 0 0 0 0 0 0 0 0 0 0 9 50 24 9 0 11 2 1 0
960 848 798 813 641 400 182 82 56 52 52 63 58 27 0 15 38 25 24 7 0 0 0 0 0 0 0 0 0 0 0 0 0 0 0 18 11 3 0 0 0 0 0
959 878 976 873 729 525 179 111 59 41 34 84 23 8 0 0 8 0 0 0 0 0 0 0 0 0 0 0 0 0 0 0 0 0 0 0 0 0 0 0 0 0 0
1034 1053 934 929 842 592 367 130 88 49 18 2 2 0 0 0 0 0 0 0 0 0 0 0 0 0 0 0 0 0 0 0 0 0 0 0 0 0 0 0 0 0 0
155 1072 1099 961 840 699 508 201 97 69 19 0 0 0 0 0 0 0 0 0 0 0 0 0 0 0 0 0 0 0 0 0 0 0 0 0 0 0 0 0 0 0 0
0 0 791 1257 1023 708 546 472 203 100 55 0 0 0 0 0 0 0 0 0 0 0 0 0 0 0 0 0 0 0 0 0 0 0 0 0 0 0 0 0 0 0 0
0 0 0 441 1238 1073 797 706 398 114 45 16 0 0 0 0 0 0 0 0 0 0 0 0 0 0 0 0 0 0 0 0 0 0 0 0 0 0 0 0 0 0 0
0 0 0 0 750 1080 1052 826 412 97 44 16 12 8 0 0 0 0 0 0 0 0 0 0 0 0 0 0 0 0 0 0 0 0 0 0 0 0 0 0 0 0 0
0 0 0 0 0 820 1053 793 532 353 186 48 36 55 20 0 0 0 0 0 0 0 0 0 0 0 0 0 0 0 0 0 0 0 0 0 0 0 0 0 0 0 0
0 0 0 0 0 16 774 886 747 657 410 253 60 47 17 0 0 0 0 0 0 0 0 0 0 0 0 0 0 0 0 0 0 0 0 0 0 0 0 0 0 0 0
0 0 0 0 0 0 69 457 0 0 0 1 0 0 0 0 0 0 0 0 0 0 0 0 0 0 0 0 0 0 0 0 0 0 0 0 0 0 0 0 0 0 0
0 0 0 0 0 0 0 76 210 413 345 24 132 51 0 0 0 0 0 0 0 0 0 0 0 0 0 0 0 0 0 0 0 0 0 0 0 0 0 0 0 0 0
0 0 0 0 0 0 0 108 136 175 181 0 5 4 0 0 0 0 0 0 0 0 0 0 0 0 0 0 0 0 0 0 0 0 0 0 0 0 0 0 0 0 0
0 0 0 0 0 0 0 0 195 227 138 0 0 0 0 0 0 0 0 0 0 0 0 0 0 0 0 0 0 0 0 0 0 0 0 0 0 0 0 0 0 0 0

GFSSE_con_sbcape_039.txt.gz
CAPE
116 1153 2178 2027 1590 1521 1654 1497 1654 1413 979 548 226 8 2 0 0 0 1 0 0 0 8 16 76 81 58 37 4 0 0 0 0 0 0 0 0 1 0 0 0 0 5
213 1293 1914 1849 1773 1674 1844 1832 1632 1305 866 372 113 7 4 0 0 0 1 0 2 26 1 43 74 65 68 10 0 0 0 0 0 0 0 0 0 0 0 0 0 0 8
578 1064 1146 1795 1556 1889 1857 1583 1414 1004 692 160 102 31 3 0 0 0 1 0 21 81 53 76 97 69 10 0 0 0 0 0 0 0 0 0 0 0 0 0 10 1 0
868 837 466 1315 1203 1818 1812 1483 1309 847 446 410 135 11 1 0 0 0 1 0 40 51 35 23 5 1 0 0 0 2 0 0 0 0 0 0 4 2 0 0 0 0 0
730 553 450 1125 1140 1708 1378 1262 1250 984 512 314 171 33 2 0 0 2 4 9 13 3 1 1 0 0 1 0 3 1 0 0 0 0 0 0 16 34 60 80 37 20 0
634 552 840 1248 1372 1314 1167 947 887 951 630 318 304 54 0 0 1 3 4 5 0 0 0 0 0 0 0 1 4 1 0 0 0 0 0 1 37 45 12 106 157 147 197
620 647 641 1257 1016 625 446 446 601 559 650 286 254 70 0 0 2 1 2 2 1 0 0 0 3 8 10 9 4 0 0 0 0 0 1 19 25 16 4 143 48 43 161
651 726 507 864 832 685 548 408 428 563 600 659 525 131 50 13 1 0 1 2 9 3 11 17 46 61 30 0 0 0 0 0 0 1 1 1 22 0 54 64 12 7 12
686 756 692 606 557 616 399 398 401 469 537 857 594 348 246 209 75 0 0 3 29 52 56 84 133 48 0 0 0 0 0 0 0 0 0 0 0 58 107 37 13 6 7
798 779 757 683 564 369 199 541 471 463 668 865 495 326 194 163 206 174 88 33 43 114 152 155 153 0 0 0 0 0 0 0 0 0 0 0 73 87 50 29 14 5 1
486 790 784 709 616 378 229 363 433 396 288 307 269 207 150 185 185 207 70 94 135 173 197 272 115 0 0 0 0 0 0 0 0 0 0 187 39 27 25 15 9 3 0
438 467 732 754 664 478 212 219 401 388 255 197 210 228 204 211 218 221 139 135 205 245 275 218 3 0 0 0 0 0 0 0 0 0 0 105 30 29 17 1 9 1 1
456 396 459 442 632 585 420 205 190 348 240 225 205 217 186 160 187 238 309 223 185 118 37 0 0 0 0 0 0 0 0 0 0 0 17 36 14 5 0 0 3 0 0
636 634 541 732 896 631 521 288 148 234 213 200 220 186 141 151 216 306 280 240 177 132 0 0 0 0 0 0 0 0 0 0 0 0 10 10 0 1 0 0 0 0 0
617 636 839 768 705 604 434 293 187 134 250 196 170 154 99 118 206 230 217 161 121 42 0 0 0 0 0 0 0 0 0 0 0 0 1 0 0 0 0 0 0 0 0
951 936 813 895 872 745 535 225 250 139 111 210 179 131 87 48 137 161 144 115 69 12 0 0 0 0 0 0 0 0 0 0 0 0 0 0 0 0 0 0 0 0 0
532 1031 1092 891 912 784 675 366 328 168 92 88 110 112 80 24 39 105 104 80 52 0 0 0 0 0 0 0 0 0 0 0 0 0 0 0 0 0 0 0 0 0 0
0 186 1041 1132 1037 941 847 654 318 391 169 116 65 48 73 40 12 18 54 53 15 0 0 0 0 0 0 0 0 0 0 0 0 0 0 0 0 0 0 0 0 0 0
0 0 0 952 1202 1078 903 887 461 348 315 247 60 27 22 21 12 0 0 23 0 0 0 0 0 0 0 0 0 0 0 0 0 0 0 0 0 0 0 0 0 0 0
0 0 0 1 813 1370 1305 901 590 324 269 366 99 34 7 0 0 0 0 0 0 0 0 0 0 0 0 0 0 0 0 0 0 0 0 0 0 0 0 0 0 0 0
0 0 0 0 0 644 904 860 644 501 355 131 208 114 33 3 0 0 0 0 0 0 0 0 0 0 0 0 0 0 0 0 0 0 0 0 0 0 0 0 0 0 0
0 0 0 0 0 0 427 716 710 623 478 446 255 143 108 30 0 0 0 0 0 0 0 0 0 0 0 0 0 0 0 0 0 0 0 0 0 0 0 0 0 0 0
0 0 0 0 0 0 0 598 155 10 1 210 180 122 148 119 19 0 0 0 0 0 0 0 0 0 0 0 0 0 0 0 0 0 0 0 0 0 0 0 0 0 0
0 0 0 0 0 0 0 198 341 269 270 321 333 245 210 85 37 8 0 0 0 0 0 0 0 0 0 0 0 0 0 0 0 0 0 0 0 0 0 0 0 0 0
0 0 0 0 0 0 0 0 301 306 391 478 380 405 233 1 1 0 0 0 0 0 0 0 0 0 0 0 0 0 0 0 0 0 0 0 0 0 0 0 0 0 0
0 0 0 0 0 0 0 0 0 193 344 101 86 188 166 6 1 1 0 0 0 0 0 0 0 0 0 0 0 0 0 0 0 0 0 0 0 0 0 0 0 0 0

GFSSE_con_sbcape_042.txt.gz
CAPE
730 1092 2440 1941 1623 1780 1606 1867 1857 1525 1097 663 337 113 16 4 4 3 0 0 0 0 5 52 93 66 57 17 0 0 0 0 0 0 0 0 0 0 0 0 0 3 0
827 1284 2256 2382 2080 1964 2066 1929 1882 1566 1086 511 138 12 4 0 0 1 0 2 11 0 4 63 67 70 17 0 0 0 0 0 0 0 0 0 0 0 0 0 2 0 2
957 1261 1245 2278 2227 2312 2222 1689 1430 929 639 399 40 16 3 0 0 1 0 26 87 24 15 68 77 35 0 0 0 0 0 0 0 0 0 0 0 0 0 0 0 0 0
957 1087 930 1728 2175 2259 1877 1399 1154 867 411 272 41 9 0 0 0 0 0 32 87 117 65 22 10 0 0 0 0 0 0 0 0 0 7 15 9 0 0 0 0 0 0
913 734 673 1269 2009 2052 1845 1538 1089 904 510 266 32 0 0 0 0 1 1 13 13 10 11 10 1 0 0 1 1 0 0 0 0 0 13 31 33 32 61 85 50 0 0
872 643 532 902 1507 1970 1849 1665 1462 825 567 195 146 0 0 0 1 2 5 3 0 0 0 0 0 0 0 2 4 0 0 0 0 0 19 12 27 0 94 152 224 232 160
684 563 457 1053 1566 1412 1309 1126 1216 1020 741 182 110 5 0 0 1 2 0 0 0 0 0 0 1 2 2 4 0 0 0 0 3 3 16 22 23 0 119 60 133 110 192
660 546 466 843 1058 820 672 734 819 856 735 399 311 45 0 0 2 2 1 1 1 1 3 16 41 39 5 0 0 0 0 0 4 16 14 24 0 14 74 19 5 15 31
755 597 549 552 552 626 600 541 558 737 807 833 526 295 181 92 11 0 1 30 28 33 39 67 77 0 0 0 0 0 0 0 7 3 0 4 1 114 73 26 7 12 5
871 620 444 453 450 225 200 343 357 440 502 856 431 283 191 149 115 31 56 56 77 164 139 211 49 0 0 0 0 0 0 0 0 0 0 3 90 110 44 21 10 6 3
839 727 522 425 299 205 170 180 261 331 482 561 249 160 117 111 134 65 6 71 168 193 175 226 3 0 0 0 0 0 0 0 0 0 2 102 31 32 17 6 4 6 4
478 711 596 471 324 306 160 206 163 178 353 608 434 301 180 98 128 118 57 77 171 219 345 184 0 0 0 0 0 0 0 0 0 0 10 83 34 25 4 2 0 1 1
496 580 621 516 471 421 277 191 197 232 212 190 253 228 116 115 211 219 221 155 35 116 190 71 0 0 0 0 0 0 0 0 0 0 22 39 19 5 3 2 0 0 0
643 556 497 536 520 587 507 400 206 237 243 186 121 103 118 133 172 187 233 183 143 90 129 68 0 0 0 0 0 0 0 0 0 0 16 15 2 0 0 0 0 0 0
747 721 604 512 618 848 757 693 537 255 274 224 171 129 106 111 142 195 223 190 182 95 73 8 0 0 0 0 0 0 0 0 0 0 8 7 0 0 0 0 0 0 0
989 926 710 669 759 733 712 713 845 684 328 313 221 180 153 102 117 223 317 208 238 154 63 5 0 0 0 0 0 0 0 0 0 0 1 6 0 0 0 0 0 0 0
22 431 1067 1030 1079 944 865 860 664 946 682 438 403 266 177 120 100 165 268 360 262 173 63 0 0 0 0 0 0 0 0 0 0 0 0 0 0 0 0 0 0 0 0
0 0 0 574 1151 1272 1005 827 884 780 819 811 513 411 294 135 94 114 182 229 204 167 62 0 0 0 0 0 0 0 0 0 0 0 0 0 0 0 0 0 0 0 0
0 0 0 0 476 1028 1267 1004 872 1146 973 1176 921 535 395 280 154 83 90 138 159 145 22 0 0 0 0 0 0 0 0 0 0 0 0 0 0 0 0 0 0 0 0
0 0 0 0 0 306 906 1160 992 811 978 892 1143 932 605 383 281 131 60 69 101 118 13 0 0 0 0 0 0 0 0 0 0 0 0 0 0 0 0 0 0 0 0
0 0 0 0 0 0 98 1184 1056 883 679 623 596 1055 900 587 355 232 139 70 64 77 28 0 0 0 0 0 0 0 0 0 0 0 0 0 0 0 0 0 0 0 0
0 0 0 0 0 0 0 197 948 961 836 810 492 403 688 777 512 340 233 191 82 62 33 0 0 0 0 0 0 0 0 0 0 0 0 0 0 0 0 0 0 0 0
0 0 0 0 0 0 0 0 193 781 1063 759 612 580 453 782 713 474 294 293 164 35 44 19 0 0 0 0 0 0 0 0 0 0 0 0 0 0 0 0 0 0 0
0 0 0 0 0 0 0 0 0 124 419 408 511 667 849 405 526 599 387 236 92 23 3 1 0 0 0 0 0 0 0 0 0 0 0 0 0 0 0 0 0 0 0
0 0 0 0 0 0 0 0 0 0 23 66 389 561 636 651 302 303 244 342 213 51 17 2 0 0 0 0 0 0 0 0 0 0 0 0 0 0 0 0 0 0 0
0 0 0 0 0 0 0 0 0 0 0 1 354 677 785 657 261 187 121 198 190 161 58 24 0 0 0 0 0 0 0 0 0 0 0 0 0 0 0 0 0 0 0

GFSSE_con_sbcape_045.txt.gz
CAPE
852 1139 2514 2174 1745 1870 1827 1774 1784 1692 1231 900 574 350 115 13 3 2 0 0 0 5 10 87 58 30 20 0 0 0 0 0 0 0 0 0 0 0 0 0 9 4 0
1002 1007 2262 2183 1976 1945 1970 2121 1849 1581 938 537 214 10 1 0 0 0 0 5 1 1 17 69 42 40 1 0 0 0 0 0 0 0 0 0 0 0 0 0 0 0 0
1103 1176 981 2224 2304 2323 2177 1575 1430 1054 674 332 47 13 3 0 0 0 10 53 47 0 71 79 56 1 0 0 0 0 0 0 0 0 0 0 0 0 0 0 0 0 0
1098 1075 989 2056 2433 2327 1993 1415 1134 795 540 144 14 9 0 0 0 0 29 81 90 95 72 19 0 0 0 0 1 0 0 0 0 0 7 15 24 37 14 0 0 0 0
1038 944 1407 2095 2373 2202 1813 1395 962 820 526 286 0 0 0 0 1 1 26 23 22 11 13 4 0 0 0 1 0 0 0 0 0 6 23 36 32 9 125 200 112 0 0
841 726 786 1563 2134 2063 1878 1541 957 599 453 93 0 0 0 0 2 6 10 0 0 6 0 0 0 1 0 1 0 0 0 0 0 11 20 16 10 84 144 215 229 251 236
584 738 477 929 1990 2022 1883 1776 1503 952 489 101 37 0 0 1 4 9 1 0 0 0 0 0 0 0 3 3 0 0 0 0 10 10 15 25 3 26 96 54 105 136 105
586 618 430 776 1455 1601 1423 1266 1416 1245 501 254 114 0 0 0 1 1 0 0 0 0 0 3 5 5 1 0 0 0 0 0 8 11 6 9 0 72 27 0 2 19 15
565 508 416 534 576 667 729 837 935 1066 834 536 305 117 85 35 0 0 0 0 0 0 24 46 36 0 0 0 0 0 0 0 2 0 0 6 53 135 21 1 4 5 7
698 510 477 488 385 367 225 336 389 586 732 802 280 198 93 38 15 2 61 43 18 63 92 132 3 0 0 0 0 0 0 0 0 0 0 3 144 51 15 3 3 6 7
845 576 421 327 287 142 92 114 166 239 313 491 183 109 35 7 0 0 3 73 100 219 178 116 0 0 0 0 0 0 0 0 0 0 18 124 45 28 5 1 1 4 5
867 723 461 301 240 126 98 160 56 46 142 304 209 133 128 25 23 6 0 52 124 170 205 132 0 0 0 0 0 0 0 0 0 0 20 50 20 13 1 0 0 2 1
671 864 575 448 254 187 140 176 128 137 163 367 373 244 162 55 101 89 116 21 16 86 156 94 0 0 0 0 0 0 0 0 0 0 8 53 17 11 2 0 0 0 0
842 649 548 584 448 343 302 166 163 181 174 138 203 203 159 103 129 121 148 85 31 59 125 142 39 0 0 0 0 0 0 0 0 0 0 3 11 0 0 0 0 0 0
835 932 662 634 593 551 520 427 269 217 228 194 110 101 91 95 107 140 157 205 105 63 74 77 35 0 0 0 0 0 0 0 0 0 3 0 4 0 0 0 0 0 0
754 887 906 690 541 627 750 753 817 659 370 355 238 157 74 84 101 155 163 237 182 129 68 57 5 0 0 0 0 0 0 0 0 0 1 0 0 0 0 0 0 0 0
491 666 836 830 808 899 770 783 899 1002 775 577 523 307 143 103 97 98 175 282 166 216 115 55 0 0 0 0 0 0 0 0 0 0 0 0 0 0 0 0 0 0 0
0 0 94 732 1000 1023 1057 772 788 719 955 929 709 642 403 218 145 131 189 276 310 353 189 88 5 0 0 0 0 0 0 0 0 0 0 0 0 0 0 0 0 0 0
0 0 0 0 140 833 1118 1274 890 784 752 947 1160 884 718 526 296 196 171 234 163 275 197 123 2 0 0 0 0 0 0 0 0 0 0 0 0 0 0 0 0 0 0
0 0 0 0 0 0 238 787 1629 882 946 864 1376 1335 984 824 683 491 279 202 197 255 219 113 9 0 0 0 0 0 0 0 0 0 0 0 0 0 0 0 0 0 0
0 0 0 0 0 0 0 77 1272 1259 927 891 961 1278 1293 1091 895 751 598 334 282 258 290 107 2 0 0 0 0 0 0 0 0 0 0 0 0 0 0 0 0 0 0
0 0 0 0 0 0 0 0 19 1214 860 747 606 618 956 1265 1026 902 820 658 389 277 319 148 6 0 0 0 0 0 0 0 0 0 0 0 0 0 0 0 0 0 0
0 0 0 0 0 0 0 0 0 85 972 1152 1052 741 535 801 1175 1129 849 751 657 385 342 267 45 0 0 0 0 0 0 0 0 0 0 0 0 0 0 0 0 0 0
0 0 0 0 0 0 0 0 0 0 24 649 741 811 804 665 399 929 765 664 679 574 443 289 88 0 0 0 0 0 0 0 0 0 0 0 0 0 0 0 0 0 0
0 0 0 0 0 0 0 0 0 0 0 0 175 268 274 668 841 491 604 637 529 496 530 226 159 16 0 0 0 0 0 0 0 0 0 0 0 0 0 0 0 0 0
0 0 0 0 0 0 0 0 0 0 0 0 0 87 256 542 765 858 384 403 438 413 365 165 166 42 0 0 0 0 0 0 0 0 0 0 0 0 0 0 0 0 0

GFSSE_con_sbcape_048.txt.gz
CAPE
737 1249 2218 2282 2477 2539 2195 1928 1636 1780 1631 1016 673 334 100 14 3 0 0 0 0 3 79 83 49 34 6 2 0 0 0 0 0 0 0 0 0 0 0 1 20 0 1
729 906 2133 2265 2321 2324 2288 1986 1885 1598 1178 660 285 28 4 0 0 0 3 4 0 16 69 58 51 1 2 2 0 0 0 0 0 0 0 0 0 0 0 0 0 0 0
730 1168 1571 2183 2272 2307 2275 1910 1565 1146 891 355 107 17 0 0 0 0 73 38 0 60 76 68 11 0 1 0 0 0 0 0 0 0 4 0 0 0 0 0 0 0 0
810 693 902 2323 2378 2313 1997 1625 1303 794 429 177 11 2 0 0 0 38 131 116 58 80 42 0 0 0 1 1 0 0 0 0 0 5 7 23 12 88 68 31 0 0 0
774 637 1526 2309 2395 2199 1851 1570 1196 660 272 5 0 0 0 0 1 58 63 40 16 17 13 0 0 0 1 1 0 0 0 0 1 6 1 3 2 110 232 276 75 0 0
716 983 1527 2204 2283 1965 1694 1431 1147 737 273 4 0 0 0 2 8 22 6 3 2 11 1 0 0 0 2 1 0 0 0 0 5 0 5 21 0 146 197 226 262 278 265
744 721 866 2057 2115 1894 1670 1393 1204 934 184 84 0 0 1 3 11 13 2 0 0 0 0 0 0 2 3 0 0 0 0 0 0 0 0 0 0 40 23 86 74 61 54
514 396 364 1258 1710 1748 1784 1607 1296 1020 417 144 17 0 1 3 6 10 1 0 0 0 0 2 4 2 0 0 0 0 0 0 0 0 0 0 85 44 7 1 0 7 7
436 240 117 734 883 973 1121 1080 1175 988 499 325 85 59 50 3 2 3 0 0 0 0 23 40 23 0 0 0 0 0 0 0 0 0 0 0 228 37 8 0 1 8 8
339 247 134 400 398 271 258 493 572 799 416 323 134 64 0 0 0 1 0 21 43 121 104 83 0 0 0 0 0 0 0 0 0 0 0 57 106 29 7 0 0 4 9
440 329 190 262 181 126 100 122 187 291 373 330 98 16 0 0 0 0 0 22 64 181 236 94 0 0 0 0 0 0 0 0 0 0 1 148 51 17 5 0 0 2 5
601 374 264 182 135 50 27 37 44 103 153 197 102 41 18 0 0 0 0 31 76 148 256 106 0 0 0 0 0 0 0 0 0 0 0 76 2 4 0 0 0 1 1
453 522 278 144 89 52 46 32 0 3 42 134 114 87 61 25 0 0 0 2 3 61 68 57 0 0 0 0 0 0 0 0 0 0 7 55 1 7 0 0 0 0 0
495 479 502 247 115 76 70 66 40 44 59 130 198 103 74 25 14 16 7 0 0 0 29 61 0 0 0 0 0 0 0 0 0 0 0 0 3 0 0 0 0 0 0
595 535 511 387 310 212 133 66 50 44 38 42 179 148 121 38 35 37 34 27 6 0 12 71 19 0 0 0 0 0 0 0 0 0 0 0 0 0 0 0 0 0 0
518 596 538 466 431 389 333 282 143 98 81 96 48 22 15 9 27 46 38 70 40 17 0 10 0 0 0 0 0 0 0 0 0 0 0 0 0 0 0 0 0 0 0
349 545 680 534 453 390 425 520 523 560 415 153 182 47 22 3 11 20 36 35 50 58 27 8 0 0 0 0 0 0 0 0 0 0 0 0 0 0 0 0 0 0 0
0 0 508 750 641 478 512 556 493 520 516 586 286 223 92 34 12 2 16 50 56 52 60 3 0 0 0 0 0 0 0 0 0 0 0 0 0 0 0 0 0 0 0
0 0 0 0 338 630 659 624 475 540 549 542 533 523 321 120 51 14 0 22 59 39 62 19 0 0 0 0 0 0 0 0 0 0 0 0 0 0 0 0 0 0 0
0 0 0 0 0 0 119 689 536 426 563 535 547 587 591 349 150 54 20 18 20 33 39 28 0 0 0 0 0 0 0 0 0 0 0 0 0 0 0 0 0 0 0
0 0 0 0 0 0 0 0 347 682 424 499 533 692 809 731 493 215 78 53 24 19 45 11 0 0 0 0 0 0 0 0 0 0 0 0 0 0 0 0 0 0 0
0 0 0 0 0 0 0 0 0 365 739 627 393 456 561 431 574 441 273 84 81 30 16 24 0 0 0 0 0 0 0 0 0 0 0 0 0 0 0 0 0 0 0
0 0 0 0 0 0 0 0 0 0 68 399 360 344 383 470 368 513 533 384 112 67 36 40 3 0 0 0 0 0 0 0 0 0 0 0 0 0 0 0 0 0 0
0 0 0 0 0 0 0 0 0 0 0 10 410 465 399 351 346 459 445 359 422 360 184 68 29 0 0 0 0 0 0 0 0 0 0 0 0 0 0 0 0 0 0
0 0 0 0 0 0 0 0 0 0 0 0 0 0 70 252 317 250 251 285 387 414 444 158 133 30 0 0 0 0 0 0 0 0 0 0 0 0 0 0 0 0 0
0 0 0 0 0 0 0 0 0 0 0 0 0 0 0 0 5 276 207 370 324 364 384 368 219 117 9 0 0 0 0 0 0 0 0 0 0 0 0 0 0 0 0

GFSSE_con_sbcape_051.txt.gz
CAPE
648 1500 2425 2760 2367 2205 1998 1881 1786 1686 1511 924 573 302 121 4 0 0 0 1 1 94 114 77 32 17 10 1 0 0 0 0 0 0 0 2 4 7 11 1 0 0 119
846 1429 2329 2614 2531 2487 2245 1824 1971 1720 1427 1101 410 136 12 1 0 1 2 0 18 83 60 17 4 5 3 0 0 0 0 0 0 0 0 0 0 0 0 0 0 0 14
894 1385 2022 2329 2389 2412 2165 1796 1556 1035 1108 700 206 20 1 0 0 46 6 1 53 75 67 2 3 2 1 0 0 0 0 0 0 0 0 0 2 0 0 0 2 1 0
1043 1203 1581 2223 2426 2368 1982 1566 1347 1060 804 363 3 0 0 0 79 241 22 14 104 54 1 0 0 0 0 0 0 0 0 0 1 10 5 2 29 120 130 0 1 36 115
743 933 1839 2260 2369 2092 1877 1555 1115 699 172 1 0 0 0 0 107 114 62 83 59 8 0 0 0 0 0 0 0 0 0 0 21 4 1 0 22 137 252 145 66 161 259
447 1146 1980 2265 2178 1911 1706 1487 1093 349 47 0 0 0 0 6 50 40 31 11 8 19 0 0 1 1 1 0 0 0 0 4 3 2 0 16 0 154 177 195 218 199 122
850 1034 1763 2259 2119 1827 1596 1360 1249 698 76 0 0 0 2 9 14 5 1 0 0 0 0 0 0 2 0 0 0 0 0 0 0 0 0 0 0 9 51 14 10 30 52
727 867 1484 1807 1740 1639 1495 1344 1204 809 321 12 0 1 4 8 12 5 0 0 0 0 0 1 1 1 0 0 0 0 0 0 0 0 0 0 108 10 9 0 0 3 6
276 370 842 914 1080 1180 1328 1205 1016 761 535 77 27 19 6 9 26 5 1 0 0 0 12 28 19 0 0 0 0 0 0 0 0 0 0 0 139 15 8 0 0 4 5
111 80 354 548 731 714 701 797 739 472 379 109 85 50 10 0 26 76 47 57 59 101 102 67 1 0 0 0 0 0 0 0 0 0 0 55 92 15 3 0 0 2 8
143 88 227 202 137 113 190 319 502 266 171 102 59 20 5 0 0 0 0 44 119 202 172 68 0 0 0 0 0 0 0 0 0 0 2 194 48 6 1 0 0 1 3
125 87 157 125 67 64 126 103 95 168 142 85 36 8 0 0 0 0 0 14 83 203 225 88 0 0 0 0 0 0 0 0 0 0 24 147 14 2 0 0 2 1 1
248 166 72 113 50 44 52 13 2 31 73 92 38 4 0 0 0 0 1 9 12 67 108 65 2 0 0 0 0 0 0 0 0 0 16 111 0 1 0 0 0 0 0
220 231 246 9 6 0 0 0 0 0 0 36 55 21 9 2 0 0 0 0 0 7 5 16 0 0 0 0 0 0 0 0 0 0 7 40 15 1 0 0 0 0 0
294 272 288 176 14 0 0 0 0 0 0 5 93 37 22 0 0 0 0 0 0 0 2 23 1 0 0 0 0 0 0 0 0 0 0 0 9 0 0 0 0 0 0
377 351 292 277 207 65 0 0 0 0 0 0 102 73 22 0 0 0 1 1 0 0 0 20 11 0 0 0 0 0 0 0 0 0 0 0 0 0 0 0 0 0 0
336 356 403 371 230 185 145 126 161 133 0 0 0 0 2 0 0 0 0 0 0 0 0 0 1 0 0 0 0 0 0 0 0 0 0 0 0 0 0 0 0 1 1
0 222 448 556 303 229 209 200 194 177 193 254 63 0 0 0 0 0 0 0 0 0 0 0 0 0 0 0 0 0 0 0 0 0 0 0 0 0 0 0 0 0 0
0 0 55 498 441 298 137 243 231 216 150 170 185 193 21 0 0 0 0 0 3 0 0 0 0 0 0 0 0 0 0 0 0 0 0 0 0 0 0 0 0 0 1
0 0 0 0 154 354 326 319 208 83 103 132 183 134 248 28 0 0 0 0 0 0 0 0 0 0 0 0 0 0 0 0 0 0 0 0 0 0 0 0 0 0 0
0 0 0 0 0 0 0 39 208 313 185 58 124 279 163 136 54 0 0 0 0 12 32 4 0 0 0 0 0 0 0 0 0 0 0 0 0 0 0 0 0 0 0
0 0 0 0 0 0 0 0 0 132 234 279 284 266 310 232 116 131 54 0 0 0 0 0 0 0 0 0 0 0 0 0 0 0 0 0 0 0 0 0 0 0 0
0 0 0 0 0 0 0 0 0 0 0 110 92 86 156 229 215 115 139 33 1 0 0 0 0 0 0 0 0 0 0 0 0 0 0 0 0 0 0 0 0 0 0
0 0 0 0 0 0 0 0 0 0 0 0 10 89 115 90 160 173 130 69 30 13 15 0 0 0 0 0 0 0 0 0 0 0 0 0 0 0 0 0 0 0 0
0 0 0 0 0 0 0 0 0 0 0 0 0 0 0 68 96 142 157 117 38 11 121 22 0 0 0 0 0 0 0 0 0 0 0 0 0 0 0 0 0 0 0
0 0 0 0 0 0 0 0 0 0 0 0 0 0 0 0 0 5 28 42 4 10 13 83 23 10 0 0 0 0 0 0 0 0 0 0 0 0 0 0 0 0 0

GFSSE_con_sbcape_054.txt.gz
CAPE
1187 1766 2684 2359 1888 1837 1717 1621 1705 1579 1421 891 525 283 43 0 0 0 0 2 107 120 64 32 25 7 2 0 0 0 0 0 0 0 0 9 8 16 2 0 2 48 108
1000 1807 2561 2470 2326 2239 2206 2077 1892 1716 1414 1016 526 145 6 0 1 5 0 50 137 10 4 2 3 3 1 0 0 0 0 0 0 0 0 0 0 0 0 0 0 5 9
1233 1786 2287 2502 2481 2396 2170 1880 1860 1622 1204 759 128 17 1 0 9 10 7 60 125 11 5 4 2 2 0 0 0 0 0 0 0 0 0 0 0 0 0 0 0 0 0
1200 1810 1833 2517 2492 2254 1942 1617 1318 745 667 340 4 0 0 29 259 4 16 158 155 5 2 0 1 0 0 0 0 0 0 0 1 0 0 7 43 107 0 25 61 153 158
1121 1425 1601 2401 2391 2216 1831 1479 1108 836 153 0 0 0 0 224 333 71 42 229 5 0 0 0 0 0 0 0 0 0 0 3 7 0 0 0 13 133 64 88 159 283 400
814 1357 1843 2270 2181 1957 1745 1329 1013 302 34 0 0 0 1 233 273 175 130 95 7 0 0 0 0 0 0 0 0 0 0 0 0 0 0 15 1 138 176 186 162 103 221
969 1541 1869 2197 2107 1871 1666 1319 839 157 8 0 0 0 14 98 69 60 57 13 0 0 0 0 0 0 0 0 0 0 0 0 0 0 0 0 0 52 19 16 21 16 16
900 1571 1866 1918 1846 1720 1580 1439 937 522 33 0 0 2 8 65 65 49 41 31 0 0 0 1 1 0 0 0 0 0 0 0 0 0 0 0 55 7 6 2 0 0 3
917 1337 1542 1453 1402 1349 1260 1293 1038 700 169 61 40 31 54 91 60 44 27 9 0 0 0 22 39 24 0 0 0 0 0 0 0 0 0 0 115 12 6 1 1 0 4
595 873 855 890 901 821 849 903 702 639 146 100 80 61 16 6 36 64 69 73 62 82 97 94 61 0 0 0 0 0 0 0 0 0 0 1 81 6 4 0 0 2 5
139 306 369 363 636 591 509 636 401 336 107 95 76 25 3 0 22 26 2 39 124 175 146 98 21 0 0 0 0 0 0 0 0 0 0 214 89 3 0 0 1 0 2
35 101 218 134 111 187 421 274 210 113 66 38 21 4 0 0 4 13 11 26 112 196 210 120 28 4 0 0 0 0 0 0 0 0 15 185 38 1 0 0 0 0 2
14 52 146 75 45 63 101 52 47 66 53 22 0 0 0 0 0 0 0 12 23 73 129 114 11 0 0 0 0 0 0 0 0 0 54 172 61 1 0 0 0 0 1
158 100 63 64 23 24 0 3 0 5 18 39 10 0 0 0 0 0 0 1 6 25 55 29 0 0 0 0 0 0 0 0 0 0 10 95 73 0 0 0 0 0 0
157 167 95 14 12 0 0 0 0 0 0 2 19 0 0 0 0 0 0 0 0 2 7 8 3 0 0 0 0 0 0 0 0 0 0 11 75 39 0 0 0 0 0
155 136 153 43 0 0 0 0 0 0 0 0 0 0 0 0 0 0 0 0 0 0 0 0 2 1 0 0 0 0 0 0 0 0 0 0 1 30 0 0 0 1 1
259 180 121 197 74 0 0 0 0 0 0 0 0 19 0 0 0 0 0 0 0 0 0 0 0 0 0 0 0 0 0 0 0 0 0 0 0 0 0 0 0 2 3
176 328 204 297 149 100 0 0 0 21 5 0 0 0 0 0 0 0 0 0 0 0 0 0 0 0 0 0 0 0 0 0 0 0 0 0 0 0 0 0 0 1 3
3 63 235 317 362 145 30 17 48 46 3 91 50 0 0 0 0 0 0 0 0 0 0 0 0 0 0 0 0 0 0 0 0 0 0 0 0 0 0 0 0 0 6
0 0 0 66 296 211 114 12 0 0 0 4 46 79 114 16 0 0 0 0 0 0 0 0 0 0 0 0 0 0 0 0 0 0 0 0 0 0 0 0 0 0 0
0 0 0 0 0 0 0 87 107 178 75 0 0 20 0 61 99 0 0 0 0 0 0 0 0 0 0 0 0 0 0 0 0 0 0 0 0 0 0 0 0 0 0
0 0 0 0 0 0 0 0 0 24 64 92 5 0 0 0 0 0 0 0 0 0 0 0 0 0 0 0 0 0 0 0 0 0 0 0 0 0 0 0 0 0 0
0 0 0 0 0 0 0 0 0 0 0 0 10 14 16 12 7 0 0 0 0 0 0 0 0 0 0 0 0 0 0 0 0 0 0 0 0 0 0 0 0 0 0
0 0 0 0 0 0 0 0 0 0 0 0 0 0 0 0 0 0 0 0 1 0 0 0 0 0 0 0 0 0 0 0 0 0 0 0 0 0 0 0 0 0 0
0 0 0 0 0 0 0 0 0 0 0 0 0 0 0 0 0 0 0 0 0 0 0 0 0 0 0 0 0 0 0 0 0 0 0 0 0 0 0 0 0 0 0
0 0 0 0 0 0 0 0 0 0 0 0 0 0 0 0 0 0 0 0 0 0 0 0 0 0 0 0 0 0 0 0 0 0 0 0 0 0 0 0 0 0 0

GFSSE_con_sbcape_057.txt.gz
CAPE
726 1523 2420 1970 1729 1654 1601 1507 1438 1389 1155 742 449 132 0 0 0 0 0 61 113 65 48 25 7 6 1 0 0 0 0 0 0 0 1 5 10 1 1 8 81 44 105
1087 1782 2249 2153 2072 1944 2017 1950 1940 1703 1325 784 423 47 0 0 2 0 46 186 10 2 2 3 4 2 0 0 0 0 0 0 0 0 0 0 0 0 0 0 3 18 45
1338 1900 1977 2219 2349 2357 2185 1677 1657 1501 1155 598 179 4 0 11 12 0 115 133 6 6 2 0 2 0 0 0 0 0 0 0 0 0 0 0 0 0 0 0 0 0 0
1462 1873 1903 2411 2456 2263 1944 1777 1676 1256 409 104 1 0 0 80 17 6 150 199 10 3 0 0 0 0 0 0 0 0 0 0 0 0 0 0 10 0 28 78 153 127 18
1567 1745 2015 2446 2389 2128 1837 1667 1186 674 174 31 0 0 70 481 5 67 361 169 1 0 0 0 0 0 0 0 0 0 0 0 0 0 0 0 0 2 82 159 136 301 250
1132 1219 2107 2335 2338 2049 1695 1436 969 328 93 0 0 0 235 349 190 75 325 26 14 0 0 0 0 0 0 0 0 0 0 0 0 0 0 45 1 192 178 171 113 118 220
1089 1225 1732 2249 2188 1932 1540 1270 830 134 18 0 0 0 276 168 235 173 119 32 0 0 0 0 0 0 0 0 0 0 0 0 0 0 0 0 2 57 48 21 43 34 23
1243 1465 1493 1917 1942 1813 1490 1112 733 107 25 0 0 4 251 155 120 74 86 64 21 0 0 0 0 0 0 0 0 0 0 0 0 0 0 0 12 0 2 0 0 0 0
1319 1461 1530 1505 1514 1493 1433 1050 794 404 93 48 41 41 82 118 80 54 84 67 38 0 0 1 18 0 0 0 0 0 0 0 0 0 0 0 95 5 5 1 0 0 1
1102 1222 1197 1219 1186 1055 965 1017 697 441 147 81 71 59 50 28 34 77 77 80 62 35 37 47 49 27 0 0 0 0 0 0 0 0 0 0 80 1 1 0 0 2 4
641 835 725 715 681 655 535 749 636 277 104 73 54 25 14 4 26 32 17 25 77 131 109 92 62 0 0 0 0 0 0 0 0 0 0 90 100 6 0 0 0 0 1
266 400 414 368 341 356 513 403 171 121 50 22 11 3 0 0 5 18 13 30 96 165 166 128 49 11 0 0 0 0 0 0 0 0 0 230 95 32 1 0 0 0 0
63 172 275 120 71 228 385 140 59 42 16 0 0 0 0 0 0 1 0 5 17 84 72 128 35 0 0 0 0 0 0 0 0 0 22 222 139 59 1 1 0 0 0
36 62 134 60 43 51 43 51 29 19 0 0 0 0 0 0 0 0 0 0 2 7 31 39 3 0 0 0 0 0 0 0 0 0 1 123 204 68 1 0 0 0 0
93 47 62 43 29 21 8 6 0 1 0 0 0 0 0 0 0 0 0 0 0 0 4 13 4 0 0 0 0 0 0 0 0 0 0 44 113 136 26 0 0 0 0
110 119 85 37 38 0 0 0 0 0 0 0 0 0 0 0 0 0 0 0 0 0 0 0 0 0 0 0 0 0 0 0 0 0 0 0 31 150 90 1 0 1 2
63 74 121 55 14 0 0 0 0 0 0 0 0 0 0 0 0 0 0 0 0 0 0 0 0 0 0 0 0 0 0 0 0 0 0 0 0 37 80 7 0 1 3
80 168 65 247 55 0 0 0 0 0 0 0 0 0 0 0 0 0 0 0 0 0 0 0 0 0 0 0 0 0 0 0 0 0 0 0 0 0 6 72 32 0 3
17 69 144 100 115 4 0 0 0 0 0 0 0 0 0 0 0 0 0 0 0 0 0 0 0 0 0 0 0 0 0 0 0 0 0 0 0 0 0 0 11 6 0
0 0 0 2 142 35 6 0 0 0 0 0 0 0 0 0 0 0 0 0 0 0 0 0 0 0 0 0 0 0 0 0 0 0 0 0 0 0 0 0 0 0 0
0 0 0 0 0 0 0 0 0 5 0 0 0 0 0 0 0 0 0 0 0 0 0 0 0 0 0 0 0 0 0 0 0 0 0 0 0 0 0 0 0 0 0
0 0 0 0 0 0 0 0 0 0 0 0 0 0 0 0 0 0 0 0 0 0 0 0 0 0 0 0 0 0 0 0 0 0 0 0 0 0 0 0 0 0 0
0 0 0 0 0 0 0 0 0 0 0 0 0 0 0 0 0 0 0 0 0 0 0 0 0 0 0 0 0 0 0 0 0 0 0 0 0 0 0 0 0 0 0
0 0 0 0 0 0 0 0 0 0 0 0 0 0 0 0 0 0 0 0 0 0 0 0 0 0 0 0 0 0 0 0 0 0 0 0 0 0 0 0 0 0 0
0 0 0 0 0 0 0 0 0 0 0 0 0 0 0 0 0 0 0 0 0 0 0 0 0 0 0 0 0 0 0 0 0 0 0 0 0 0 0 0 0 0 0
0 0 0 0 0 0 0 0 0 0 0 0 0 0 0 0 0 0 0 0 1 1 1 0 0 0 0 0 0 0 0 0 0 0 0 0 0 0 0 0 0 0 0

GFSSE_con_sbcape_060.txt.gz
CAPE
275 1246 2307 1938 1786 1685 1676 1454 1206 1287 1035 521 305 51 1 0 0 0 41 93 80 18 5 5 6 4 0 0 0 0 0 0 0 0 0 2 0 5 31 109 105 62 72
641 1591 2174 2061 1911 1798 1804 1640 1680 1569 1271 569 234 17 0 0 0 3 190 34 2 1 1 6 9 1 1 1 0 0 0 0 0 0 0 0 0 0 0 0 6 5 16
1118 1734 1783 2091 2188 2251 2212 1715 1471 1296 875 482 110 0 0 5 0 239 235 2 6 3 1 2 4 0 3 0 0 0 0 0 0 0 0 0 0 0 6 0 0 0 0
1514 1597 1523 2363 2426 2350 2004 1512 1408 931 342 165 30 0 7 3 5 334 207 13 5 1 0 2 0 0 1 0 0 0 0 0 0 0 0 0 0 13 123 214 201 73 0
1551 1632 1774 2413 2411 2209 1908 1811 1269 441 140 17 0 0 224 48 70 264 348 61 4 0 0 0 0 0 0 0 0 0 0 0 0 0 0 0 0 63 169 201 255 260 179
1415 1542 2073 2308 2300 2144 1855 1400 874 308 86 11 0 0 497 65 89 601 234 37 0 0 0 0 0 0 0 0 0 0 0 0 0 0 0 2 89 232 208 181 105 116 188
1140 1526 1995 2348 2192 1879 1676 1225 914 278 38 17 0 108 699 462 210 615 147 30 0 0 0 0 0 0 0 0 0 0 0 0 0 0 0 0 0 44 58 36 13 4 3
1011 1357 1549 2031 1936 1678 1444 1168 731 74 18 11 13 120 341 123 198 99 87 60 17 0 0 0 0 0 0 0 0 0 0 0 0 0 0 0 1 0 3 0 0 0 0
1150 1117 1329 1404 1488 1299 1139 920 627 311 39 32 52 188 425 291 152 143 132 91 49 0 0 0 30 17 0 0 0 0 0 0 0 0 0 0 10 3 3 0 0 0 0
1086 1120 1051 1076 1092 1030 804 625 470 324 90 72 54 51 31 37 82 116 89 83 60 31 34 50 47 36 0 0 0 0 0 0 0 0 0 0 68 1 0 0 0 0 1
961 835 788 806 785 671 627 528 399 189 73 60 42 29 31 7 15 25 22 34 71 101 83 97 68 15 0 0 0 0 0 0 0 0 0 6 136 36 0 0 0 0 0
454 420 373 535 443 411 494 449 219 88 32 14 8 3 0 0 1 17 12 23 74 128 139 107 62 22 0 0 0 0 0 0 0 0 1 66 163 80 0 0 0 0 0
279 387 432 322 193 243 327 141 65 41 8 0 0 0 0 0 0 1 0 1 10 61 50 91 34 0 0 0 0 0 0 0 0 0 8 83 199 120 36 0 0 0 0
131 219 275 175 87 59 61 82 41 32 0 0 0 0 0 0 0 0 0 0 0 0 9 13 5 0 0 0 0 0 0 0 0 0 0 23 222 145 60 0 0 0 0
100 73 138 88 30 23 25 24 23 20 0 0 0 0 0 0 0 0 0 0 0 0 0 0 0 0 0 0 0 0 0 0 0 0 0 0 70 220 78 27 0 0 0
110 77 53 71 41 11 7 0 1 0 0 0 0 0 0 0 0 0 0 0 0 0 0 0 0 0 0 0 0 0 0 0 0 0 0 0 3 118 228 60 15 2 2
100 91 81 64 47 15 7 0 0 0 0 1 0 0 0 0 0 0 0 0 0 0 0 0 0 0 0 0 0 0 0 0 0 0 0 0 0 10 127 96 40 16 4
72 133 100 243 56 14 0 0 0 0 0 0 0 0 0 0 0 0 0 0 0 0 0 0 0 0 0 0 0 0 0 0 0 0 0 0 0 0 12 167 180 39 9
42 72 107 92 164 7 0 0 0 0 0 0 0 0 0 0 0 0 0 0 0 0 0 0 0 0 0 0 0 0 0 0 0 0 0 0 0 0 0 0 44 52 60
0 0 5 69 80 38 0 0 0 0 0 0 0 0 0 0 0 0 0 0 0 0 0 0 0 0 0 0 0 0 0 0 0 0 0 0 0 0 0 0 0 0 1
0 0 0 0 0 22 29 24 0 19 0 0 0 0 0 0 0 0 0 0 0 0 0 0 0 0 0 0 0 0 0 0 0 0 0 0 0 0 0 0 0 0 0
0 0 0 0 0 0 0 0 0 0 0 0 0 0 0 0 0 0 0 0 0 0 0 0 0 0 0 0 0 0 0 0 0 0 0 0 0 0 0 0 0 0 0
0 0 0 0 0 0 0 0 0 0 0 0 0 0 0 0 0 0 0 0 0 0 0 0 0 0 0 0 0 0 0 0 0 0 0 0 0 0 0 0 0 0 0
0 0 0 0 0 0 0 0 0 0 0 0 0 0 0 0 0 0 0 1 1 0 0 0 0 0 0 0 1 0 0 0 0 0 0 0 0 0 0 0 0 0 0
0 0 0 0 0 0 0 0 0 0 0 0 0 0 0 0 0 0 0 0 0 0 0 0 1 1 0 0 0 0 0 0 0 0 0 0 0 0 0 0 0 0 0
0 0 0 0 0 0 0 0 0 0 0 0 0 0 0 0 0 0 0 0 0 0 1 1 0 1 1 0 0 0 0 0 0 0 0 0 0 0 0 0 0 0 0

GFSSE_con_sbcape_063.txt.gz
CAPE
390 1462 2330 2369 1945 1861 1614 1098 1181 814 448 328 192 35 0 0 0 98 175 124 93 14 7 8 4 5 1 0 0 0 0 0 0 0 0 2 8 33 99 86 73 68 84
615 1731 2221 2292 2152 2080 1961 1752 1657 1365 1070 423 140 1 0 0 26 272 167 3 2 2 6 7 8 7 3 3 3 4 3 0 0 0 0 0 0 0 0 0 1 4 0
1192 1543 1511 2174 2118 2158 2138 1551 1477 1155 859 267 43 0 5 8 312 360 1 7 3 1 4 10 5 6 2 1 0 0 0 0 0 0 0 0 4 78 112 1 0 0 0
1491 1469 1304 2002 2144 2297 2151 1630 1445 830 473 224 4 0 3 92 506 237 41 9 2 0 3 3 2 5 2 0 0 0 0 0 0 0 36 0 6 163 232 306 79 0 95
1570 1412 1490 2338 2377 2294 1902 1647 1057 427 174 57 0 21 34 145 441 422 135 18 0 0 0 0 0 0 0 0 0 0 0 0 0 29 89 7 15 165 207 244 232 261 242
1531 1478 1987 2352 2286 2123 1915 1399 802 270 67 0 0 105 431 143 475 587 130 0 0 0 0 0 0 0 0 0 0 0 0 0 0 0 78 139 254 210 154 111 60 54 110
1486 1601 1778 2187 2246 1972 1554 1175 852 275 42 0 0 597 502 126 738 453 96 24 0 0 0 0 0 0 0 0 0 0 0 0 0 0 10 27 53 1 7 2 0 0 0
1479 1742 1675 1854 1857 1728 1339 1199 842 202 25 15 88 668 761 628 486 121 74 46 3 0 1 4 1 0 0 0 0 0 0 0 0 0 0 0 22 4 3 0 0 0 0
1353 1505 1540 1525 1312 1289 1146 928 628 280 55 54 205 471 297 199 291 191 111 62 39 12 14 40 35 13 0 0 0 0 0 0 0 0 6 26 39 0 0 0 0 0 0
1389 1310 1328 1351 1163 926 646 489 380 169 56 73 53 51 48 57 111 150 92 82 45 24 37 46 41 21 0 0 0 0 0 0 0 3 36 38 67 2 0 0 0 0 0
1304 1221 1224 1223 1158 892 620 367 225 101 51 46 31 24 18 39 48 53 24 27 39 38 44 57 43 15 0 0 0 0 0 0 0 3 24 12 124 24 0 0 0 0 0
987 941 748 954 1109 951 712 541 335 105 47 33 29 27 32 26 30 31 23 13 41 80 94 83 51 12 0 0 0 0 0 0 0 1 16 21 138 78 7 0 0 0 0
525 546 434 578 922 860 785 741 489 229 57 32 12 1 1 0 10 30 26 20 37 38 75 84 60 16 0 0 0 0 0 0 0 0 0 24 146 143 55 1 0 0 0
447 593 568 838 670 692 573 601 504 320 62 32 8 0 0 0 0 0 4 4 7 15 45 47 54 32 4 0 0 0 0 0 0 0 0 0 76 204 119 29 0 0 0
429 544 640 652 591 447 466 374 382 343 130 39 9 0 0 0 0 0 0 0 0 0 4 14 18 25 13 0 0 0 0 0 0 0 0 0 2 150 164 75 25 1 0
325 430 440 505 439 281 316 284 342 300 228 77 28 0 0 0 0 0 0 0 0 0 0 0 0 2 0 0 0 0 0 0 0 0 0 0 0 27 175 123 54 25 8
154 327 295 387 344 220 222 193 204 279 174 186 99 32 0 0 0 0 0 0 0 0 0 0 0 0 0 0 0 0 0 0 0 0 0 0 0 0 24 199 107 63 28
227 204 281 270 255 275 204 182 107 40 51 84 85 67 46 14 0 0 0 0 0 0 0 0 0 0 0 0 0 0 0 0 0 0 0 0 0 0 0 52 280 202 96
242 170 213 319 412 267 188 118 64 14 0 0 0 0 1 12 2 0 0 0 0 0 0 0 0 0 0 0 0 0 0 0 0 0 0 0 0 0 0 0 37 160 252
0 51 132 220 279 302 89 35 27 15 0 0 0 0 0 0 0 0 0 0 0 0 0 0 0 0 0 0 0 0 0 0 0 0 0 0 0 0 0 0 0 8 3
0 0 0 0 149 188 176 127 80 125 107 36 0 0 0 0 0 0 0 0 1 0 0 0 0 0 0 0 1 0 0 0 0 0 0 0 0 0 0 0 0 0 0
0 0 0 0 0 17 74 58 97 93 78 63 16 0 0 11 0 0 0 0 0 0 0 0 1 0 0 0 0 0 0 1 0 0 0 0 0 0 0 0 0 0 0
0 0 0 0 0 0 0 0 0 0 0 0 0 0 0 0 1 2 4 5 5 1 1 2 1 1 8 0 0 17 0 2 0 0 0 0 0 0 0 0 0 0 0
0 0 0 0 0 0 0 0 0 0 0 0 0 0 0 0 0 0 0 0 4 4 2 1 0 1 2 3 1 0 0 0 0 0 0 0 0 0 0 0 0 0 0
0 0 0 0 0 0 0 0 0 0 0 0 0 0 0 0 0 0 0 0 0 2 1 2 5 1 1 2 0 0 1 0 0 0 1 0 0 0 0 0 0 0 0
0 0 0 0 0 0 0 0 0 0 0 0 0 0 0 0 0 0 0 0 0 0 1 2 5 8 1 0 0 1 0 0 0 0 1 0 0 0 0 0 0 0 0

GFSSE_con_sbcape_066.txt.gz
CAPE
989 1506 2135 2125 1696 1574 1508 1353 1258 707 531 334 146 32 1 0 172 299 244 82 43 9 14 12 9 7 6 4 1 0 0 0 0 0 0 1 21 59 115 50 52 19 6
919 1278 2428 2454 2159 2057 1851 1536 1326 1018 733 273 64 0 0 133 356 354 10 2 4 13 6 11 10 12 13 9 9 9 8 2 0 0 0 0 1 0 0 0 5 0 0
874 1195 1630 2439 2441 2260 1963 1352 1099 830 411 150 12 0 4 280 420 42 27 6 1 4 12 14 14 8 3 0 0 0 0 0 0 0 0 34 161 261 141 0 0 5 143
1232 1070 1155 2323 2359 2262 1787 1363 1097 684 341 68 48 10 263 587 213 104 17 1 0 6 5 10 10 3 0 0 0 0 0 0 0 9 26 33 59 237 319 97 63 215 285
1190 872 1257 2024 2350 2319 1877 1517 901 481 226 27 22 22 245 785 427 250 54 0 0 2 2 2 4 1 0 0 0 0 0 0 0 22 47 127 149 171 176 186 148 129 249
1039 948 1309 2163 2405 2147 1792 1285 604 235 111 0 54 190 217 607 766 333 15 0 0 0 0 1 1 0 0 0 0 0 0 0 0 2 67 102 74 96 75 6 1 0 18
966 1031 1332 2342 2230 2047 1513 1206 732 229 43 52 89 518 233 743 690 232 41 0 0 0 0 1 1 0 0 0 0 0 0 0 0 0 0 4 5 0 0 0 0 0 0
933 1064 1281 1864 1964 1681 1389 1158 847 273 37 224 699 875 620 739 445 156 73 22 0 1 13 5 0 0 0 0 0 0 0 0 0 0 0 5 0 1 0 0 0 0 0
1016 1153 1467 1485 1249 1205 1168 1033 750 379 168 215 396 809 691 476 511 137 81 61 29 20 45 40 24 14 0 0 0 0 0 0 0 0 0 3 0 0 0 0 0 0 0
1123 1348 1153 1191 997 850 546 534 378 228 142 175 209 75 61 65 124 224 115 80 42 34 40 49 38 19 4 0 0 0 0 0 0 0 0 22 59 1 0 0 0 0 0
1276 1234 1186 1049 863 796 652 361 145 54 48 49 45 16 26 71 82 49 18 31 41 30 37 45 29 3 0 0 0 0 0 0 0 0 0 9 67 25 1 0 0 0 0
1354 892 922 1132 1073 844 646 493 330 106 41 5 0 10 2 5 20 35 24 12 38 53 59 52 31 3 0 0 0 0 0 0 0 0 0 8 55 137 21 0 0 0 0
1235 1205 1139 1292 1148 833 722 597 518 348 199 59 14 3 0 0 0 0 11 16 50 21 19 33 42 12 0 0 0 0 0 0 0 0 0 0 43 156 125 10 0 0 0
906 718 687 929 1223 914 839 780 616 452 369 186 71 35 21 1 0 0 0 2 12 0 0 0 0 6 7 0 0 0 0 0 0 0 0 0 1 121 164 110 8 0 0
997 1080 1047 1174 1028 1015 962 817 696 600 490 390 221 74 45 18 0 0 0 0 0 0 0 0 0 0 6 0 0 0 0 0 0 0 0 0 0 19 178 134 99 30 4
1035 1201 1302 1089 1093 1141 1100 962 708 662 613 606 417 248 71 40 14 0 0 0 0 0 0 0 0 10 22 26 21 0 0 0 0 0 0 0 0 0 53 211 114 21 26
959 916 1206 1151 1190 1206 1153 1008 795 733 598 612 561 403 202 77 47 0 0 29 0 0 0 0 0 0 13 17 34 31 0 0 0 0 0 0 0 0 0 46 183 119 12
916 813 828 764 927 1028 899 890 839 807 766 694 630 537 388 205 100 56 38 54 65 42 22 24 31 46 61 76 80 78 56 42 43 37 31 3 0 0 0 0 72 210 190
851 950 852 738 715 842 925 843 814 723 745 664 540 477 409 334 224 197 141 89 84 136 156 151 141 163 205 245 215 155 130 125 120 76 84 75 41 0 0 0 1 54 274
52 675 819 790 837 856 864 912 852 775 720 696 602 469 281 203 160 242 261 248 191 201 274 331 304 329 313 302 217 74 116 137 124 102 88 57 49 0 0 0 0 0 0
0 0 428 677 765 905 988 967 946 1003 870 830 779 690 447 280 158 194 321 403 466 441 444 443 438 431 381 365 136 107 142 48 24 26 12 23 0 0 0 0 0 0 0
0 0 0 3 379 775 954 992 989 1020 942 836 785 651 448 364 411 488 518 582 534 408 484 475 365 257 187 222 158 111 33 19 19 0 0 0 0 0 0 0 0 0 0
0 0 0 0 0 1 423 174 69 1 21 166 441 546 308 54 175 102 60 86 116 100 86 157 161 113 88 122 16 134 64 24 15 4 0 0 0 0 0 0 0 0 0
0 0 0 0 0 0 0 0 27 232 330 30 0 0 0 0 0 0 0 0 1 5 4 8 12 29 34 15 2 3 33 17 43 21 14 4 0 0 0 0 0 0 0
0 0 0 0 0 0 0 0 0 0 0 0 0 0 0 0 0 0 0 0 0 0 0 0 2 9 15 24 16 0 3 4 0 1 11 12 0 1 0 0 0 0 0
0 0 0 0 0 0 0 0 0 0 0 0 0 0 0 0 0 0 0 0 0 0 0 1 4 1 10 9 24 10 14 8 7 2 3 0 1 3 4 0 0 0 0

GFSSE_con_sbcape_069.txt.gz
CAPE
1178 1537 2278 1966 1545 1561 1376 1151 1079 765 544 306 160 13 0 296 321 260 45 19 132 94 207 37 11 12 7 3 2 1 0 0 0 0 0 25 10 68 76 26 50 0 0
1179 1378 2180 2180 2027 1982 1583 1244 953 798 526 202 3 0 55 419 391 3 0 2 14 12 143 15 4 11 8 10 11 7 7 0 0 0 0 30 160 0 0 0 0 28 4
1098 1310 1617 2162 2223 2149 1616 1117 907 635 302 65 0 0 490 444 62 15 2 1 9 19 22 10 12 5 2 2 0 0 1 0 0 3 19 105 119 256 0 0 183 250 299
894 1194 1422 2360 2407 2151 1670 1184 834 442 149 58 30 198 562 201 123 7 1 3 9 13 15 6 7 2 2 1 0 0 0 13 2 71 33 65 30 263 272 243 185 289 77
894 923 1759 2486 2382 2099 1614 1295 801 465 116 55 85 324 712 407 293 41 0 3 5 6 12 9 4 2 0 0 0 0 0 0 32 27 107 122 57 70 85 29 16 22 145
761 887 1492 2309 2273 2163 1774 1314 598 233 57 43 129 194 807 722 425 5 0 0 0 1 4 4 2 1 0 0 0 0 0 0 2 3 9 9 6 5 1 0 0 0 0
686 1284 1240 2267 2200 1876 1491 1118 515 127 31 181 333 188 710 870 385 50 0 0 0 0 3 4 1 0 0 0 2 0 0 0 0 0 1 3 0 0 0 0 0 0 0
802 946 1231 1801 1897 1571 1347 1035 611 111 126 286 791 546 654 909 394 152 41 0 0 0 0 0 0 0 0 0 0 0 0 0 0 0 1 0 0 0 0 0 0 0 0
879 744 800 1443 1226 1195 1087 946 664 223 285 442 878 899 913 583 372 113 73 39 0 32 28 20 15 13 0 0 0 0 0 0 0 0 0 13 1 5 0 0 0 0 0
989 718 1302 1194 841 695 394 486 303 201 207 482 283 163 92 83 198 165 108 78 31 27 41 35 25 14 0 0 0 0 0 0 0 0 0 11 40 13 0 0 0 0 0
1206 1146 1422 918 637 465 339 243 54 35 46 63 21 12 10 58 56 15 21 53 38 30 35 35 30 6 0 0 0 0 0 0 0 0 0 9 26 21 0 0 0 0 0
1156 1284 957 846 689 620 405 278 165 15 0 0 22 38 22 19 36 34 25 11 27 31 35 40 28 4 0 0 0 0 0 0 0 0 0 0 10 70 21 0 0 0 0
1145 866 782 930 794 687 512 443 323 217 87 0 0 0 0 0 0 0 9 0 16 15 9 19 16 10 0 0 0 0 0 0 0 0 0 0 0 29 97 5 0 0 0
1184 919 1265 1098 1075 719 570 548 424 284 236 72 17 5 3 0 0 0 0 0 0 7 0 0 0 0 0 0 0 0 0 0 0 0 0 0 0 0 52 98 7 0 0
1015 871 814 1003 1130 737 662 603 545 441 321 289 166 48 23 7 0 0 0 0 0 0 0 0 0 0 1 0 0 0 0 0 0 0 0 0 0 0 17 66 61 44 3
1041 1036 1142 990 1047 675 772 708 585 429 436 426 324 204 54 28 12 0 0 0 0 0 0 0 0 2 24 24 13 3 1 0 0 0 0 0 0 0 0 27 69 45 28
1068 1290 1036 1117 880 964 990 929 674 424 395 395 323 316 238 82 49 13 5 44 27 0 0 0 0 0 7 22 23 21 20 20 11 0 6 0 0 0 0 0 6 62 61
1110 1185 1235 1112 982 952 775 694 476 586 458 469 527 536 410 250 166 84 49 60 134 157 84 77 86 89 87 72 72 75 63 57 39 38 72 58 25 0 0 0 0 0 79
911 1017 1226 1273 1126 1066 873 846 765 669 701 752 697 667 620 529 394 336 285 240 190 263 289 273 243 202 194 118 80 106 143 196 188 117 116 160 153 94 16 0 0 0 59
540 917 1178 1222 1107 1039 1045 1047 1128 989 987 940 832 711 597 558 522 503 490 466 347 303 268 247 182 190 369 352 229 94 321 223 245 241 159 113 90 115 31 0 0 0 0
0 305 964 1149 1121 1060 1191 1167 1090 1205 1223 1137 988 869 751 636 489 461 530 584 364 415 483 286 211 470 491 515 280 290 215 175 139 126 99 31 4 0 0 0 0 0 0
0 0 4 714 916 1019 1054 1248 1341 1418 1371 1284 1320 1072 1003 841 609 487 528 510 625 745 718 545 353 301 344 252 177 165 88 1 0 60 3 0 0 0 0 0 0 0 0
0 0 0 0 111 585 936 1098 964 539 519 665 857 908 781 533 617 479 382 233 200 193 199 156 109 129 100 55 123 110 74 29 20 2 0 0 0 0 0 0 0 0 0
0 0 0 0 0 0 11 541 360 481 643 697 280 163 9 0 0 0 0 0 8 4 9 12 6 16 59 49 109 22 83 71 76 43 38 0 0 0 0 0 0 0 0
0 0 0 0 0 0 0 0 16 68 0 0 0 0 0 0 0 0 0 0 0 0 0 0 0 3 6 10 5 19 23 32 4 3 35 10 22 8 4 10 0 3 0
0 0 0 0 0 0 0 0 0 0 0 0 0 0 0 0 0 0 0 0 0 0 0 0 0 1 5 2 13 6 9 16 0 2 8 19 33 22 1 0 5 0 0

GFSSE_con_sbcape_072.txt.gz
CAPE
1169 1485 2147 2057 1625 1830 1474 1078 917 735 460 266 17 4 364 421 178 18 34 68 368 388 145 76 7 15 10 9 7 0 0 0 0 1 35 40 1 5 0 30 170 0 0
1137 1356 2021 2106 1960 1769 1486 1038 1121 921 615 15 0 71 451 128 2 2 5 14 104 266 184 66 8 14 11 7 4 1 0 0 0 1 23 252 55 0 4 185 235 230 0
1110 1322 1675 2095 1974 1704 1475 878 771 434 208 83 0 542 341 77 5 2 5 18 33 77 39 9 12 9 5 0 0 0 0 13 24 24 18 18 1 243 231 201 451 67 0
1152 1165 1456 2232 1980 1914 1460 951 512 194 57 140 219 600 157 74 3 0 9 16 20 8 4 10 10 7 4 0 0 0 0 8 108 71 17 0 3 137 135 47 13 179 217
1033 1100 1606 2253 1908 1867 1402 978 447 114 109 315 431 790 597 236 8 0 8 12 15 11 7 10 6 2 2 0 0 0 0 9 7 11 2 0 0 6 2 0 0 0 6
695 1477 1968 2054 1949 1847 1575 1237 486 107 60 130 497 911 929 288 2 0 1 2 5 14 10 5 1 0 0 0 0 0 0 0 1 0 0 0 0 0 0 0 0 0 0
1220 1417 1845 2081 2064 1760 1439 971 517 76 174 219 335 845 828 332 19 0 0 0 0 1 2 0 0 0 0 0 0 0 0 0 0 0 0 0 0 0 0 0 0 0 0
956 1085 1491 1777 1688 1474 1187 813 489 263 450 574 631 780 1049 345 133 0 0 0 0 0 0 0 0 0 0 0 0 0 0 0 0 0 0 0 25 0 0 0 0 0 0
730 965 1337 1307 1149 1083 933 747 430 394 616 826 977 914 960 526 322 85 28 11 36 34 23 18 8 0 0 0 0 0 0 0 0 0 0 0 19 8 0 0 0 0 0
542 739 1196 882 665 375 355 327 160 235 432 444 615 305 116 90 148 208 96 64 35 43 40 30 17 13 0 0 0 0 0 0 0 0 0 7 39 5 0 0 0 0 0
766 773 1069 833 552 297 144 79 33 38 107 33 8 7 7 13 27 20 44 46 57 59 45 38 26 7 0 0 0 0 0 0 0 0 0 21 24 9 0 0 0 0 0
1003 1203 1037 548 386 323 228 0 0 0 0 4 10 0 0 3 2 26 3 21 49 47 54 53 35 9 0 0 0 0 0 0 0 0 0 0 0 16 6 0 0 0 0
1156 978 776 632 531 432 339 93 15 0 0 0 0 0 0 0 0 0 0 0 0 16 1 37 25 0 0 0 0 0 0 0 0 0 0 0 0 0 11 23 0 0 0
953 782 725 870 616 533 412 327 216 58 12 0 0 0 0 0 0 0 0 0 0 0 0 0 0 0 0 0 0 0 0 0 0 0 0 0 0 0 0 18 54 0 0
869 879 871 870 718 577 468 400 354 165 120 28 0 0 0 0 0 0 0 0 0 0 0 0 0 0 0 0 0 0 0 0 0 0 0 0 0 0 0 0 27 75 6
917 881 759 775 840 593 532 536 422 249 213 171 97 36 13 1 0 0 0 0 0 0 0 0 0 0 0 0 0 0 0 0 0 0 0 0 0 0 0 0 2 34 51
973 990 976 915 862 588 588 522 441 355 249 259 225 113 50 24 3 0 0 0 0 0 0 0 0 0 0 0 0 0 0 0 0 0 0 0 0 0 0 0 0 15 62
784 1038 956 1082 817 693 744 737 631 279 221 226 192 190 155 69 32 2 0 0 0 0 0 0 0 0 0 0 0 0 0 0 0 0 0 0 0 0 0 0 0 2 27
696 1068 985 853 800 715 679 563 486 457 426 312 378 417 322 217 131 114 63 43 41 73 86 53 50 24 1 1 4 3 2 8 3 21 0 0 0 4 1 0 0 0 15
640 817 929 1063 875 844 713 668 583 596 490 512 567 498 481 420 357 262 269 249 195 107 110 85 35 13 47 76 93 20 1 0 0 4 0 0 0 2 1 0 0 0 0
0 652 933 1030 854 725 824 708 684 729 753 827 731 752 569 465 415 365 346 376 249 231 232 188 12 5 60 76 6 0 0 0 0 0 0 0 0 0 0 0 0 0 0
0 0 301 969 960 786 899 910 831 792 864 829 780 804 830 729 638 443 335 401 379 495 534 436 372 302 224 184 104 46 23 1 0 0 0 0 0 0 0 0 0 0 0
0 0 0 234 840 829 838 884 665 284 365 401 611 767 582 190 161 348 287 209 172 145 172 152 88 71 43 9 58 60 33 13 0 0 0 0 0 0 0 0 0 0 0
0 0 0 0 10 16 204 692 592 374 428 392 304 114 0 0 0 0 0 4 13 9 31 23 3 4 14 12 9 9 40 7 23 1 0 0 0 0 0 0 0 0 0
0 0 0 0 0 0 0 82 190 272 0 0 0 0 0 0 0 0 0 0 0 0 0 0 0 0 0 0 0 0 11 14 11 21 8 0 0 5 0 0 0 0 0
0 0 0 0 0 0 0 0 0 0 0 0 0 0 0 0 0 0 0 0 0 0 0 0 0 0 0 0 0 2 8 14 10 4 0 0 4 0 0 0 0 0 0

GFSSE_con_sbcape_075.txt.gz
CAPE
862 1714 2227 1964 1301 1193 1224 1192 944 699 369 2 272 417 296 47 41 70 433 426 773 368 115 13 7 7 7 3 0 0 0 0 72 165 134 11 0 175 328 263 10 0 0
1072 1615 2148 2017 1848 1628 1206 864 1054 786 422 95 403 419 4 2 2 8 152 326 360 238 14 12 8 6 3 1 2 2 4 3 0 5 109 42 240 308 294 275 45 0 0
1179 1385 1733 2016 1890 1669 1170 748 545 195 187 220 869 122 28 1 1 8 17 36 16 17 14 13 7 2 0 0 9 88 66 17 16 24 25 5 80 234 105 115 206 206 180
1113 1262 1557 2007 1843 1573 1021 683 324 82 4 579 901 468 6 1 5 13 20 28 20 12 13 13 6 1 0 0 0 7 5 9 69 2 0 0 0 5 2 1 5 11 7
928 1247 1721 1836 1792 1646 905 441 168 149 45 799 881 752 124 0 5 10 16 25 11 6 10 7 2 0 0 0 0 0 1 37 2 0 0 0 0 0 0 0 0 3 5
1026 1263 1691 1722 1839 1539 1232 770 119 188 165 897 1077 947 118 0 2 4 6 11 11 8 6 2 1 0 0 0 0 0 0 6 0 0 0 0 0 0 0 0 0 0 3
1173 1472 1542 1698 1841 1573 1259 791 388 289 317 798 1079 647 191 2 0 0 1 3 6 4 2 1 0 40 29 1 0 0 0 0 0 0 0 0 0 0 0 0 0 0 0
1385 1572 1515 1557 1521 1354 937 653 394 683 672 727 1328 1060 245 64 0 0 0 0 2 1 0 0 0 0 0 0 0 0 0 0 0 0 0 0 26 0 0 0 0 0 0
1298 1340 1272 1209 990 811 698 511 464 833 775 874 989 1140 504 284 90 0 2 15 15 18 24 25 22 10 0 0 0 0 0 0 0 0 0 0 23 0 0 0 0 0 0
1126 1075 841 756 526 318 241 173 289 387 420 828 706 488 172 115 139 143 47 56 52 39 29 24 22 16 2 0 0 0 0 0 0 0 0 0 13 0 0 0 0 0 0
1005 894 569 340 200 115 38 5 88 107 116 225 182 25 9 5 21 30 13 32 63 53 43 35 19 0 0 0 0 0 0 0 0 0 0 28 0 0 0 0 0 0 0
873 862 602 372 183 92 75 0 0 17 0 0 0 0 0 0 0 4 0 8 54 59 55 41 32 11 0 0 0 0 0 0 0 0 0 0 0 0 4 0 0 0 0
739 974 574 504 360 133 2 0 0 0 0 0 0 0 0 0 0 0 0 0 0 0 2 25 6 0 0 0 0 0 0 0 0 0 0 0 0 0 2 43 0 0 0
758 657 639 501 334 262 63 2 0 0 0 0 0 0 0 0 0 0 0 0 0 0 0 0 0 0 0 0 0 0 0 0 0 0 0 0 0 0 0 0 105 2 0
766 677 717 653 499 434 358 121 107 7 0 0 0 0 0 0 0 0 0 0 0 0 0 0 0 0 0 0 0 0 0 0 0 0 0 0 0 0 0 0 10 159 52
729 728 593 645 459 481 434 254 224 100 24 0 0 0 0 0 0 0 0 0 0 0 0 0 0 0 0 0 0 0 0 0 0 0 0 0 0 0 0 0 0 42 91
787 634 615 692 646 535 496 407 264 246 135 54 33 13 0 0 0 0 0 0 0 0 0 0 0 0 0 0 0 0 0 0 0 0 0 0 0 0 0 0 0 34 89
723 749 764 884 767 495 550 577 463 438 109 158 99 47 28 4 0 0 0 0 0 0 0 0 0 0 0 0 0 0 0 0 0 1 0 0 0 0 0 3 33 79 92
617 750 810 946 898 721 675 719 675 474 218 92 66 68 99 49 4 0 0 0 0 0 0 0 0 0 0 1 3 8 1 1 0 1 0 0 0 0 0 0 3 9 38
440 666 753 661 813 710 686 658 579 418 402 364 272 257 187 115 59 34 48 25 9 34 54 3 1 3 6 10 16 7 2 0 0 0 0 0 0 0 1 1 0 0 0
425 555 579 660 561 470 484 510 490 597 598 641 431 602 376 351 314 171 155 211 193 155 151 59 32 26 24 4 20 12 0 0 0 0 0 0 0 0 0 0 0 0 0
0 464 503 750 648 621 490 531 483 385 459 432 398 445 470 501 483 312 287 201 313 435 459 437 249 299 195 118 28 22 16 0 0 0 0 0 0 0 0 0 0 0 0
0 18 338 761 768 596 569 493 322 310 302 443 447 488 302 129 229 347 284 302 233 234 264 224 137 105 106 2 24 33 27 2 0 0 0 0 0 0 0 0 0 0 0
0 0 0 93 695 525 544 497 404 413 368 256 363 80 0 0 0 0 0 5 21 20 54 27 4 0 0 0 0 0 3 8 32 5 0 0 0 0 0 0 0 0 0
0 0 0 0 6 1 126 424 295 259 202 0 0 0 0 0 0 0 0 0 0 0 0 0 0 0 0 0 0 0 0 0 0 27 12 0 0 0 0 0 0 0 0
0 0 0 0 0 0 0 19 119 153 0 0 0 0 0 0 0 0 0 0 0 0 0 0 0 0 0 0 0 0 0 0 0 1 15 5 1 0 0 0 0 0 0

GFSSE_con_sbcape_078.txt.gz
CAPE
855 1377 1902 1847 1303 1126 1035 921 706 291 90 504 305 193 126 254 553 601 556 660 550 197 10 6 8 4 0 0 0 18 143 125 85 0 0 309 403 310 159 0 0 0 1
1128 1451 1899 1815 1764 1443 1207 951 878 356 317 620 204 0 0 53 459 509 563 478 101 10 8 6 9 14 10 12 10 10 0 0 0 35 128 159 333 166 16 20 83 120 168
1317 1473 1520 1829 1614 1414 1165 687 339 50 254 767 138 1 0 4 99 225 263 85 6 10 5 3 5 11 8 113 139 67 7 45 60 68 3 0 0 13 13 23 19 14 100
1285 1426 1405 1765 1701 1278 830 552 195 6 318 744 238 2 1 5 16 14 22 11 8 10 6 2 0 0 0 0 0 31 93 89 17 0 0 0 0 0 0 2 7 6 3
1108 1255 1487 1611 1523 1300 715 399 129 175 742 839 442 1 4 8 13 41 17 17 9 6 6 2 0 0 0 0 0 35 79 19 0 0 0 0 0 0 0 0 0 4 7
861 1195 1403 1443 1354 1237 825 596 276 447 880 1010 618 1 3 7 13 56 16 18 15 9 5 1 0 0 0 0 10 20 4 8 0 0 0 0 0 0 0 0 0 1 2
1027 1273 1278 1372 1263 1062 658 600 625 690 1135 855 435 11 0 6 8 40 9 8 6 6 2 24 36 7 4 1 6 10 8 0 0 0 0 0 0 0 0 0 0 0 1
1255 1270 1164 1229 1310 1209 682 609 736 836 1185 1175 892 104 0 0 3 5 34 36 4 15 29 25 25 19 0 0 0 0 0 0 0 0 0 0 6 0 0 0 0 0 0
1364 1169 1032 1069 970 725 623 477 789 890 1079 1396 1042 561 187 27 6 0 23 49 30 28 26 26 20 16 2 0 0 0 0 0 0 0 0 0 10 0 0 0 0 0 0
1306 1141 952 635 367 203 143 367 590 631 783 771 780 366 114 36 33 110 109 97 44 33 34 32 25 11 0 0 0 0 0 0 0 0 0 0 0 0 0 0 0 0 0
1050 882 594 299 158 47 0 177 215 218 449 524 322 133 41 0 15 0 0 52 96 41 31 27 16 0 0 0 0 0 0 0 0 0 0 4 0 0 0 0 0 0 0
582 667 507 219 109 38 0 0 3 58 75 65 22 0 0 0 0 0 0 0 56 55 37 15 8 0 0 0 0 0 0 0 0 0 0 4 0 0 0 0 0 0 0
289 632 513 257 115 70 0 0 0 0 0 0 0 0 0 0 0 0 0 0 0 0 0 1 1 0 0 0 0 0 0 0 0 0 0 0 0 0 0 32 0 0 0
219 491 491 426 199 82 0 0 0 0 0 0 0 0 0 0 0 0 0 0 0 0 0 0 0 0 0 0 0 0 0 0 0 0 0 0 0 0 0 0 89 15 0
10 447 454 371 335 207 22 0 0 0 0 0 0 0 0 0 0 0 0 0 0 0 0 0 0 0 0 0 0 0 0 0 0 0 0 0 0 5 0 0 0 112 141
362 568 590 534 393 381 237 88 47 0 0 0 0 0 0 0 0 0 0 0 0 0 0 0 0 0 0 0 0 0 0 0 0 0 0 0 0 0 23 0 2 29 90
479 486 428 534 471 493 423 219 184 223 91 0 0 0 0 0 0 0 0 0 0 0 0 0 0 0 0 0 0 0 0 0 0 0 0 0 0 0 0 3 47 37 80
625 669 616 941 597 513 364 519 215 181 166 86 2 1 0 0 0 0 0 0 0 0 0 0 0 0 0 0 0 0 0 0 1 0 3 0 0 0 0 17 95 115 106
483 489 704 834 528 493 652 621 482 391 293 136 120 62 29 6 0 0 0 0 0 0 0 0 0 0 0 0 0 2 1 4 0 0 0 0 0 0 0 0 2 22 50
456 553 649 758 712 524 397 528 631 586 382 207 138 125 49 50 3 0 0 0 0 0 2 14 19 7 2 9 11 15 7 2 0 0 0 0 0 0 0 0 0 0 0
411 385 487 693 663 554 569 639 546 510 362 334 367 232 195 160 75 32 38 61 69 91 84 51 44 37 60 8 46 13 3 0 0 0 0 0 0 0 0 0 0 0 0
432 362 403 667 535 557 519 511 457 280 247 247 379 311 342 294 283 195 204 205 181 219 267 274 318 292 255 111 41 15 5 0 0 0 0 0 0 0 0 0 0 0 0
46 391 570 705 722 709 523 385 215 222 233 305 299 299 343 367 401 275 269 303 312 272 273 243 234 246 241 27 4 28 9 2 0 0 0 0 0 0 0 0 0 0 0
0 5 396 552 598 592 319 420 436 409 474 285 201 126 2 0 3 18 39 113 176 123 138 52 23 18 1 0 0 0 0 14 23 6 0 0 0 0 0 0 0 0 0
0 0 0 0 393 387 394 461 375 211 142 44 20 0 0 0 0 0 0 0 0 0 0 0 0 0 0 0 0 0 0 0 0 1 2 0 0 0 0 0 0 0 0
0 0 0 0 0 0 109 213 315 319 62 0 0 0 0 0 0 0 0 0 0 0 0 0 0 0 0 0 0 0 0 0 0 0 0 0 0 0 0 0 0 0 0

GFSSE_con_sbcape_081.txt.gz
CAPE
645 972 1637 1625 1161 1148 965 790 182 245 384 133 236 511 670 717 730 670 492 208 79 7 8 5 5 12 19 66 136 68 21 0 1 198 264 449 81 5 2 0 2 3 0
872 1064 1573 1746 1507 1142 1024 792 203 544 765 555 130 239 676 660 693 655 276 67 14 9 17 10 7 47 77 68 4 1 2 48 188 60 25 29 32 23 129 103 167 71 25
1081 1191 1334 1677 1605 1260 919 642 109 256 615 195 0 27 362 646 656 692 146 4 6 9 16 14 19 7 159 148 0 17 57 59 47 0 0 0 0 4 2 3 7 15 27
1118 1191 1158 1552 1322 1016 825 377 31 495 299 52 0 0 54 304 392 168 14 4 6 8 8 7 27 88 17 18 158 235 107 55 0 0 0 0 0 0 0 4 7 4 13
1163 1172 1199 1498 1234 963 655 230 38 706 305 31 2 5 15 76 14 13 2 7 5 3 2 1 0 0 0 58 139 76 53 23 0 0 0 0 0 0 0 0 1 4 7
918 1110 1224 1252 1138 996 608 250 207 768 280 16 1 16 62 32 13 8 8 5 3 2 1 0 0 0 13 34 36 66 38 12 0 0 0 0 0 0 0 0 0 0 4
890 1097 1053 1260 1136 627 405 311 732 1098 480 57 2 8 12 31 9 6 4 2 4 2 0 0 0 0 12 26 24 21 25 0 0 0 0 0 0 0 0 0 0 0 1
988 1082 949 1005 1165 855 529 625 750 1076 968 333 28 6 10 39 11 10 5 6 24 44 49 41 27 10 0 0 2 2 0 0 0 0 0 0 0 0 0 0 0 0 0
1055 865 788 888 822 767 657 714 882 1249 1327 890 312 28 51 61 55 10 28 42 54 59 41 28 14 0 0 0 0 0 0 0 0 0 0 0 0 0 0 0 0 0 0
685 736 554 529 332 201 211 504 653 812 1105 945 527 145 0 0 5 80 79 100 61 43 29 19 10 0 0 0 0 0 0 0 0 0 0 0 0 0 0 0 0 0 0
1134 910 375 210 83 14 21 377 449 520 587 656 283 58 0 0 0 18 0 42 79 46 24 19 8 0 0 0 0 0 0 0 0 0 0 0 0 0 0 0 0 0 0
804 826 426 151 81 18 51 82 35 140 218 276 98 18 0 0 0 0 0 17 70 67 44 24 8 0 0 0 0 0 0 0 0 0 0 0 0 0 0 0 0 0 0
463 509 263 178 125 60 21 7 0 0 6 54 2 0 0 0 0 0 0 0 0 3 0 2 0 0 0 0 0 0 0 0 0 0 0 0 0 0 0 18 0 0 0
383 385 299 249 169 130 0 0 0 5 0 1 0 0 0 0 0 0 0 0 0 0 0 0 0 0 0 0 0 0 0 0 0 0 0 0 0 0 0 0 79 6 0
158 84 47 232 205 187 47 0 0 0 0 5 0 0 0 0 0 0 0 0 0 0 0 0 0 0 0 0 0 0 0 0 0 0 0 0 0 0 2 0 0 63 264
5 14 12 201 279 293 129 45 1 0 0 0 0 0 0 0 0 0 0 0 0 0 0 0 0 0 0 0 0 0 0 0 0 0 0 0 0 0 21 3 30 39 79
1 3 254 180 346 309 246 156 71 22 0 0 0 0 0 0 0 0 0 0 0 0 0 0 0 0 0 0 0 0 0 0 0 0 0 0 0 0 0 10 73 60 98
271 228 420 502 463 354 323 286 186 155 95 32 0 0 0 0 0 0 0 0 0 0 0 0 0 0 0 0 0 0 0 0 0 0 0 0 1 0 0 4 113 176 253
428 404 441 433 496 493 442 447 280 276 190 105 23 0 0 0 0 0 0 0 0 0 0 0 0 0 0 0 0 1 1 6 1 0 0 0 0 0 0 0 0 34 72
562 500 337 356 471 526 299 129 107 386 334 176 171 59 32 15 1 0 0 0 0 0 0 0 0 0 4 21 28 33 13 5 0 0 0 0 0 0 0 0 0 0 1
374 495 689 559 491 545 510 429 386 427 465 266 142 166 116 76 10 0 0 0 0 8 18 49 70 65 60 21 34 17 3 0 0 0 0 0 0 0 0 0 0 0 8
319 573 597 665 707 660 529 552 443 428 221 146 283 281 217 146 115 59 44 27 48 90 149 137 188 288 270 192 87 39 11 0 0 0 0 0 0 0 0 0 0 0 0
218 364 571 692 745 497 539 188 102 89 135 165 211 315 225 187 212 156 106 150 157 249 331 313 314 330 278 86 35 86 17 0 0 0 0 0 0 0 0 0 0 0 0
0 68 410 483 527 556 423 393 321 280 316 171 137 92 83 45 72 108 94 100 111 131 163 170 82 97 68 78 0 0 0 2 6 0 0 0 0 0 0 0 0 0 0
0 0 25 220 485 564 453 503 419 321 228 65 0 2 0 0 0 0 0 0 0 0 0 0 0 0 0 0 0 0 0 0 0 2 1 0 0 0 0 0 0 0 0
0 0 0 0 53 216 258 330 419 353 229 49 10 4 0 0 0 0 0 0 0 0 0 0 0 0 0 0 0 0 0 0 0 0 0 0 0 0 0 0 0 0 0

GFSSE_con_sbcape_084.txt.gz
CAPE
378 787 1610 1524 1056 925 874 291 248 58 548 498 920 1150 1081 913 738 523 278 52 9 6 10 16 104 216 104 18 8 2 71 299 238 149 192 118 22 163 190 97 75 3 0
568 965 1599 1603 1438 1051 871 202 528 469 641 566 838 941 965 875 696 461 232 25 9 9 4 15 27 59 7 14 9 79 268 84 0 0 0 7 19 11 4 5 256 10 54
842 1005 1094 1418 1386 1256 892 221 448 648 367 477 734 952 796 822 782 278 44 8 11 11 10 84 5 8 117 46 90 99 115 0 0 0 0 0 0 1 4 2 8 14 20
904 970 898 1351 1298 1039 803 119 480 466 17 50 509 676 755 773 563 112 20 7 10 28 77 79 3 5 54 241 166 102 49 2 0 0 0 0 0 0 1 4 5 5 10
992 946 924 1355 1195 1033 529 55 516 476 27 0 181 641 665 632 293 109 6 8 8 45 87 116 74 51 151 228 171 65 23 0 0 0 0 0 0 0 0 0 1 4 4
891 846 1162 1281 1005 999 615 282 611 277 29 1 2 171 536 389 47 7 6 7 47 83 67 65 44 52 74 167 88 58 19 0 0 0 0 0 0 0 0 0 0 2 4
915 804 762 1037 1010 732 311 336 698 335 8 3 9 9 13 100 11 10 9 7 7 29 42 50 42 35 36 33 43 46 3 0 0 0 0 0 0 0 0 0 0 0 2
851 717 637 821 917 730 369 474 760 848 44 4 20 10 14 13 9 10 9 8 41 38 25 23 23 13 11 12 11 12 0 0 0 0 0 0 0 0 0 0 0 0 0
756 577 429 544 528 551 606 695 692 931 649 108 18 52 82 38 7 8 7 41 42 41 41 24 9 0 0 0 0 0 0 0 0 0 0 0 0 0 0 0 0 0 0
623 497 451 303 118 70 173 453 526 727 694 293 47 10 5 6 11 8 2 75 72 53 38 28 13 0 0 0 0 0 0 0 0 0 0 0 0 0 0 0 0 0 0
282 373 248 37 0 0 8 233 414 734 602 269 42 0 0 0 0 3 1 46 74 48 40 26 10 0 0 0 0 0 0 0 0 0 0 0 0 0 0 0 0 0 0
644 250 149 13 0 0 110 31 13 168 404 207 25 0 0 0 0 0 0 22 53 44 23 10 0 0 0 0 0 0 0 0 0 0 0 0 0 0 0 0 0 0 0
699 508 104 13 0 0 37 0 0 13 53 124 21 0 0 0 0 0 0 1 0 4 0 0 0 0 0 0 0 0 0 0 0 0 0 0 0 0 0 0 0 0 0
396 348 154 94 38 0 1 1 0 30 20 72 20 0 0 0 0 0 0 0 0 0 0 0 0 0 0 0 0 0 0 0 0 0 0 0 0 0 0 0 33 76 5
427 368 291 226 130 61 0 0 12 28 21 26 15 0 0 0 0 0 0 0 0 0 0 0 0 0 0 0 0 0 0 0 0 0 0 0 0 2 14 10 9 23 259
293 301 378 297 207 152 41 0 0 0 17 20 7 2 0 0 0 0 0 0 0 0 0 0 0 0 0 0 0 0 0 0 0 0 0 0 0 0 2 21 31 61 96
239 87 63 298 296 235 169 51 0 0 0 11 2 0 0 0 0 0 0 0 0 0 0 0 0 0 0 0 0 0 0 0 0 0 0 0 0 0 0 17 41 54 113
0 10 162 126 171 49 184 123 33 23 1 0 0 0 0 0 0 0 0 0 0 0 0 0 0 0 0 0 0 0 0 0 0 0 0 0 0 0 0 2 20 71 188
19 92 376 368 312 172 208 249 103 92 123 89 2 0 0 0 0 0 0 0 0 0 0 0 0 0 0 0 0 3 0 3 1 1 2 0 0 0 0 0 0 0 39
377 360 472 457 443 348 359 309 150 235 217 169 54 1 0 0 0 0 0 0 0 0 0 0 0 0 0 18 38 56 11 6 2 0 0 0 0 0 0 0 0 0 0
587 543 460 461 424 407 382 360 128 46 161 205 113 124 37 6 0 0 0 0 0 0 0 0 24 49 76 46 71 15 0 0 0 0 0 0 0 0 0 0 0 0 0
492 568 460 478 374 272 325 282 182 188 181 202 101 95 90 43 42 11 8 2 0 0 5 25 83 234 209 126 118 7 0 0 0 0 0 0 0 0 0 0 0 0 0
311 468 596 552 293 140 284 210 78 122 135 130 133 11 114 50 52 40 30 42 27 59 100 143 161 282 240 59 127 40 14 0 0 0 0 0 0 0 0 0 0 0 0
14 278 378 285 291 354 339 296 278 173 205 317 223 71 64 0 1 3 11 40 61 54 88 107 54 58 71 86 0 0 0 2 6 0 0 0 0 0 0 0 0 0 0
0 0 93 241 308 361 235 232 215 191 178 87 19 87 30 0 0 0 0 4 9 17 2 0 0 0 0 0 0 0 0 0 0 0 0 0 0 0 0 0 0 0 0
0 0 0 2 54 160 166 153 233 290 98 13 10 24 0 0 0 0 0 0 0 0 0 0 0 0 0 0 0 0 0 0 0 0 0 0 0 0 0 0 0 0 0

GFSSE_con_sbcape_087.txt.gz
CAPE
627 963 1470 1457 840 651 424 109 169 653 902 953 921 1055 963 908 745 378 71 9 6 72 15 164 277 81 28 5 4 394 283 150 95 51 66 230 233 24 65 61 10 1 0
707 1027 1350 1543 1280 943 362 505 372 614 745 904 1434 976 1033 1012 619 267 36 14 5 12 64 206 156 15 10 9 221 308 89 1 0 0 0 0 20 3 0 17 92 46 253
920 1052 1056 1531 1479 1278 349 547 239 418 561 1003 1088 1014 1033 834 599 124 31 17 5 11 106 59 7 11 85 97 129 96 16 0 0 0 0 0 0 3 0 0 1 28 150
1048 1076 981 1343 1326 1165 311 526 460 294 292 587 945 1150 874 966 366 77 10 11 38 197 75 108 7 93 157 115 109 47 0 0 0 0 0 0 0 1 3 3 4 0 7
1086 1058 972 1238 1281 1112 385 727 581 88 47 418 572 989 876 818 247 7 11 134 308 251 141 15 106 264 296 373 63 24 0 0 0 0 0 0 0 0 0 1 2 2 1
1032 1049 1099 1199 1226 875 552 733 669 19 0 30 448 536 684 710 179 8 26 181 199 125 79 69 112 164 395 140 58 18 0 0 0 0 0 0 0 0 0 0 1 2 3
1001 1054 937 1218 1125 804 625 823 724 36 0 0 84 373 524 119 17 4 7 57 83 75 89 47 58 58 59 90 71 12 0 0 0 0 0 0 0 0 0 0 0 0 1
935 978 841 783 1012 722 572 803 599 27 0 6 71 167 148 10 10 5 3 4 50 68 63 45 32 33 33 29 40 13 0 0 0 0 0 0 0 0 0 0 0 0 0
948 782 668 732 597 421 590 691 647 217 40 42 19 74 19 25 8 3 4 6 67 68 66 54 21 14 8 8 2 0 0 0 0 0 0 0 0 0 0 0 0 0 0
833 694 691 460 202 126 391 385 539 292 44 63 27 27 18 4 3 10 2 99 80 66 53 34 15 0 0 0 0 0 0 0 0 0 0 0 0 0 0 0 0 0 0
629 459 427 154 52 58 323 370 391 264 34 0 0 0 4 11 6 1 1 56 100 60 38 23 6 0 0 0 0 0 0 0 0 0 0 0 0 0 0 0 0 0 0
107 446 378 107 7 8 132 391 568 505 151 0 0 0 0 0 3 1 0 13 63 49 25 5 0 0 0 0 0 0 0 0 0 0 0 0 0 0 0 0 0 0 0
404 223 180 8 0 16 56 72 204 485 476 53 0 0 0 0 10 10 22 39 44 8 0 0 0 0 0 0 0 0 0 0 0 0 0 0 0 0 0 0 0 0 0
615 290 121 18 4 16 34 10 50 133 417 99 24 2 0 0 0 0 0 2 0 0 0 0 0 0 0 0 0 0 0 0 0 0 0 0 0 0 1 0 4 124 63
568 232 127 114 62 50 66 31 56 104 138 277 62 18 0 0 8 4 0 0 0 0 0 0 0 0 0 0 0 0 0 0 0 0 0 0 0 0 0 12 20 33 120
226 390 230 140 100 27 123 120 113 73 76 133 99 54 9 0 10 7 20 22 8 0 0 0 0 0 0 0 0 0 0 0 0 0 0 0 0 0 0 14 21 35 82
296 305 437 239 187 124 71 144 158 125 61 60 97 111 67 20 31 38 36 35 29 0 0 0 0 0 0 0 0 0 0 0 0 0 0 2 0 0 0 0 36 43 99
233 181 171 288 290 220 221 186 93 50 68 99 97 114 76 57 47 35 31 28 22 4 0 0 0 0 0 0 0 0 2 1 16 11 1 5 3 0 0 0 3 36 98
101 93 33 80 176 248 285 243 190 73 8 0 17 43 38 79 35 16 7 10 0 0 0 0 0 0 0 0 0 13 37 4 26 14 24 3 0 0 0 0 0 0 12
56 101 80 158 214 228 287 341 310 263 184 165 33 0 0 8 10 0 0 0 0 0 0 0 0 0 0 19 37 45 129 140 118 81 0 0 0 0 0 0 0 0 0
96 47 134 400 288 359 436 383 177 275 260 282 196 148 95 23 1 0 0 0 0 0 0 0 0 3 16 38 208 179 75 51 35 3 0 0 0 0 0 0 0 0 0
178 150 387 457 353 410 399 296 268 225 307 374 331 202 151 113 53 15 0 0 0 0 0 36 106 230 252 187 238 230 20 2 0 0 0 0 0 0 0 0 0 0 0
202 204 257 201 363 489 263 214 156 160 125 127 140 203 219 94 33 11 36 48 30 6 40 74 130 203 241 220 134 115 57 17 0 0 0 0 0 0 0 0 0 0 0
191 353 381 162 213 299 202 276 249 129 144 145 62 57 123 38 19 52 43 29 26 4 4 6 6 69 125 165 11 0 4 51 101 8 0 0 0 0 0 0 0 0 0
0 5 135 85 153 258 238 332 179 185 168 161 101 112 113 29 44 26 53 33 1 0 0 6 0 10 26 51 25 2 0 0 1 1 1 0 0 0 0 0 0 0 0
0 0 0 86 226 215 199 206 235 267 142 70 39 60 44 2 1 3 3 10 10 0 0 0 0 0 0 0 0 0 0 0 0 0 3 1 0 0 0 0 0 0 0

GFSSE_con_sbcape_090.txt.gz
CAPE
540 956 1551 1487 966 670 220 150 347 644 903 1549 1396 894 898 800 635 235 17 16 696 678 344 457 123 195 19 420 400 164 24 58 34 42 19 229 49 86 4 2 142 30 0
547 1002 1504 1504 1205 655 350 590 1028 1062 927 1554 1629 1110 1021 830 512 144 19 8 417 292 387 130 25 14 87 481 179 8 5 0 0 0 0 0 6 1 4 9 405 91 45
739 1020 1152 1314 1430 1051 861 647 664 704 1176 1558 1427 1418 990 787 370 125 21 70 135 376 296 11 16 15 198 306 24 1 0 0 0 0 0 0 0 0 0 0 0 42 87
777 1018 1066 1349 1563 1107 1006 561 658 706 820 1429 1385 1242 1272 808 291 164 26 35 272 250 164 14 82 100 116 67 31 0 0 0 0 0 0 0 0 0 1 0 0 0 38
750 978 981 1405 1462 1100 964 681 606 586 780 968 1235 1134 1069 974 210 77 206 379 509 291 131 112 286 195 133 54 1 0 0 0 0 0 0 0 0 0 0 0 0 0 0
893 924 1129 1344 1332 1069 1190 1154 471 362 617 641 872 867 1089 706 126 160 390 364 438 298 112 186 268 285 128 58 1 0 0 0 0 0 0 0 0 0 0 1 0 0 0
973 920 1032 1302 1411 1036 1330 928 397 225 440 639 701 689 764 287 16 11 114 211 165 132 74 111 135 174 129 82 13 0 0 0 0 0 0 0 0 0 0 0 0 0 0
919 755 951 1003 1050 950 1195 863 490 172 242 600 635 678 482 235 13 6 8 51 109 69 73 77 66 52 54 75 29 0 0 0 0 0 0 0 0 0 0 0 0 0 0
868 832 869 842 524 696 959 665 310 121 121 367 491 457 214 140 19 13 10 28 69 91 68 43 28 28 19 12 4 0 0 0 0 0 0 0 0 0 0 0 0 0 0
813 810 711 679 193 33 712 313 101 57 98 152 158 10 11 10 20 21 11 95 54 89 63 25 10 0 0 0 0 0 0 0 0 0 0 0 0 0 0 0 0 0 0
807 878 751 621 72 9 507 418 69 22 1 8 10 1 2 12 9 6 6 52 128 87 50 28 2 0 0 0 0 0 0 0 0 0 0 0 0 0 0 0 0 0 0
634 742 820 307 15 20 540 540 232 6 4 15 26 8 3 3 3 1 11 62 108 78 56 11 0 0 0 0 0 0 0 0 0 0 0 0 0 0 0 0 0 0 0
353 654 587 151 1 117 562 639 598 202 32 4 1 10 5 5 6 3 39 44 10 0 0 0 0 0 0 0 0 0 0 0 0 0 0 0 0 0 0 0 15 2 0
111 430 567 196 2 82 745 742 698 598 163 71 1 0 0 0 0 0 0 0 0 0 0 0 0 0 0 0 0 0 0 0 0 0 0 0 0 0 0 6 10 97 104
81 259 502 290 103 24 494 622 697 695 385 145 80 1 0 0 0 0 0 0 0 0 0 0 0 0 0 0 0 0 0 1 0 0 0 0 0 0 0 3 28 38 51
71 17 185 328 168 95 151 431 560 641 664 492 316 165 84 45 20 13 13 49 63 30 0 0 0 0 0 0 0 0 0 3 2 2 4 8 0 0 0 2 21 58 80
8 11 209 343 248 165 93 133 376 520 529 657 586 434 229 139 112 113 137 160 119 47 23 8 0 0 0 0 0 0 0 28 32 61 34 13 7 0 0 1 20 119 196
44 98 154 359 317 217 167 190 184 244 321 361 372 396 355 248 207 181 207 166 126 85 43 32 19 20 1 0 0 6 62 75 59 30 10 7 11 7 2 0 0 3 62
30 86 85 509 407 357 331 273 228 286 249 200 268 284 286 252 227 176 149 126 80 94 65 44 35 26 7 2 12 61 85 51 47 36 57 45 13 3 2 0 0 0 0
147 96 146 177 487 461 537 483 411 288 206 188 203 219 213 212 210 167 154 124 81 89 74 35 31 33 21 91 109 81 123 87 117 129 109 50 2 0 0 0 0 0 0
96 142 96 170 291 434 465 561 718 577 374 370 300 208 139 94 64 81 184 136 102 86 131 77 54 39 72 80 112 138 158 116 98 67 49 1 0 0 0 0 0 0 10
67 134 171 179 237 411 410 403 352 447 673 739 585 411 347 362 332 220 165 87 8 0 1 87 109 207 266 303 175 197 131 49 2 1 0 0 0 0 0 0 0 0 11
33 93 151 179 225 568 535 538 348 267 448 539 698 652 535 447 385 298 152 170 48 25 146 149 153 153 257 195 96 87 96 41 3 2 5 0 0 0 0 0 0 0 0
142 154 116 94 115 168 577 317 196 260 324 353 418 377 370 298 308 266 163 88 78 34 28 2 0 4 10 22 54 69 82 48 16 8 0 0 0 0 0 0 0 0 0
190 131 58 100 96 179 215 259 277 343 198 137 216 183 222 228 217 198 169 157 125 12 5 10 1 1 0 4 31 18 11 54 109 88 0 0 0 0 0 0 0 0 0
0 0 21 238 228 308 315 197 245 292 416 228 176 163 157 200 287 231 285 347 148 37 49 15 0 0 1 1 1 17 30 1 0 0 0 0 0 0 0 0 0 0 0

GFSSE_con_sbcape_093.txt.gz
CAPE
832 1094 1758 1504 942 684 491 453 408 696 1705 1713 1318 1070 985 854 550 208 228 775 691 762 487 393 465 182 522 325 127 23 56 35 28 20 72 150 102 8 23 421 195 1 0
873 1014 1596 1649 1176 619 415 560 816 792 1667 1497 1603 1050 981 835 469 96 211 471 864 708 214 212 121 279 276 35 8 6 1 0 0 0 0 0 33 1 0 15 408 7 1
783 1083 1101 1623 1297 980 788 1058 1082 956 1567 1543 1606 1561 998 807 409 61 96 585 926 487 103 13 10 517 144 6 1 0 0 0 0 0 0 0 0 0 0 0 231 131 125
940 1154 976 1568 1429 1085 965 901 890 1200 1510 1437 1511 1636 1052 783 288 45 332 655 810 571 48 136 179 248 42 14 0 0 0 0 0 0 0 0 0 0 0 0 1 17 229
1027 1164 928 1554 1582 1304 1015 857 809 1087 1359 1330 1222 1142 1101 1080 287 60 483 798 819 549 284 117 125 120 63 1 0 0 0 0 0 0 0 0 0 0 1 0 0 1 5
787 802 1143 1372 1500 1384 1126 1216 918 964 1284 1231 1180 995 911 920 648 473 498 546 306 204 247 440 172 138 55 0 0 0 0 0 0 0 0 0 0 0 0 0 0 0 0
712 846 1156 1479 1432 1421 1071 1246 1061 967 1181 1200 979 865 809 714 29 14 525 373 246 237 210 306 240 108 79 6 0 0 0 0 0 0 0 0 0 0 0 0 0 0 0
911 929 1081 1059 1223 1383 1309 865 895 887 1004 1010 998 893 820 456 164 52 198 385 267 99 135 136 143 117 93 28 0 0 0 0 0 0 0 0 0 0 0 0 0 0 0
787 830 893 967 743 973 981 575 492 834 899 783 743 744 540 182 132 12 138 346 202 91 98 76 60 40 46 51 1 0 0 0 0 0 0 0 0 0 0 0 0 0 0
330 912 815 937 612 171 676 357 209 286 412 503 425 176 17 9 23 107 90 204 226 172 85 37 30 23 6 0 0 0 0 0 0 0 0 0 0 0 0 0 0 0 0
0 0 248 856 278 9 559 183 39 81 78 17 0 0 0 10 10 8 11 63 145 121 51 23 5 0 0 0 0 0 0 0 0 0 0 0 0 0 0 0 0 0 0
0 0 0 789 286 14 438 77 0 0 0 0 3 0 1 6 3 3 4 46 111 101 68 26 0 0 0 0 0 0 0 0 0 0 0 0 0 0 0 0 0 0 0
0 0 0 371 291 23 517 318 2 0 0 1 0 0 0 1 0 4 10 28 42 13 1 1 0 0 0 0 0 0 0 0 0 0 0 0 0 0 0 0 0 0 0
1 0 0 81 52 60 643 264 11 3 5 24 12 1 6 9 2 1 0 0 0 0 0 0 0 0 0 0 0 0 0 0 0 0 0 0 0 0 0 3 27 45 136
1 30 0 165 34 461 626 506 250 28 20 5 6 3 2 2 0 0 0 0 0 0 0 0 0 0 0 0 0 0 0 3 10 14 7 0 0 0 0 0 15 42 81
32 33 91 139 87 261 418 497 487 352 28 65 4 0 0 0 0 0 0 0 0 0 0 0 0 0 0 0 0 0 0 6 9 10 16 5 0 0 0 11 38 104 139
26 4 0 59 185 278 308 433 570 568 214 298 310 51 34 39 32 31 11 71 79 64 14 0 0 0 0 0 0 0 0 5 23 22 20 38 23 0 0 9 27 100 116
19 5 27 145 235 263 232 442 518 624 631 812 688 528 260 169 144 128 132 163 159 85 49 30 23 21 8 0 0 0 7 42 36 21 21 12 18 15 3 7 47 0 0
69 5 10 150 396 248 253 299 260 351 556 588 531 521 529 384 306 201 212 194 119 144 80 41 40 34 27 19 0 13 64 81 23 9 18 34 51 47 24 0 0 0 0
61 28 46 85 328 290 313 345 279 299 237 208 256 283 319 274 252 221 132 136 115 166 137 102 45 42 32 23 25 37 57 44 74 76 45 36 21 20 0 0 0 0 0
98 134 89 99 101 261 341 349 361 309 274 277 299 332 349 346 332 313 295 241 213 248 276 122 124 92 87 106 265 198 124 89 109 67 71 6 0 0 0 0 0 0 0
90 88 68 70 120 236 280 433 319 484 532 462 471 390 403 335 288 288 298 320 189 29 9 6 138 159 225 404 261 301 176 111 70 2 18 4 0 0 0 0 0 0 0
86 65 40 52 146 177 231 329 411 422 459 724 616 444 502 481 542 481 457 353 186 79 16 48 68 34 209 283 220 197 115 85 6 11 25 6 0 0 0 0 0 0 0
29 34 100 50 106 156 231 420 296 152 192 257 243 356 318 333 391 416 395 366 287 184 190 65 0 0 0 2 9 37 5 3 5 0 1 0 0 0 0 0 0 0 0
42 27 39 89 99 116 131 125 91 63 84 116 175 178 234 193 302 364 363 250 246 175 137 15 0 0 0 1 3 7 2 2 9 11 13 0 0 0 0 0 0 0 0
73 124 57 96 26 29 72 103 90 135 185 138 115 50 173 254 344 264 304 270 238 199 48 15 16 16 8 9 14 16 20 35 40 44 10 0 0 0 0 0 0 0 0

GFSSE_con_sbcape_096.txt.gz
CAPE
869 942 1766 1334 979 767 627 509 968 1938 1772 1692 1274 942 1048 863 698 542 353 409 635 601 659 511 538 402 355 36 21 102 110 86 89 41 73 124 148 170 217 134 170 0 90
1090 1059 1750 1627 1231 803 742 956 931 1723 1800 1515 1718 794 1026 762 407 667 975 672 625 545 661 340 599 135 11 7 3 0 0 0 0 0 0 0 71 35 63 175 252 25 298
1071 1030 1385 1679 1458 1185 1104 1079 1025 1574 1865 1722 1746 1226 1117 739 289 598 704 828 696 704 295 221 557 179 2 1 0 0 0 0 0 0 0 0 0 4 4 31 446 267 337
1052 957 962 1712 1508 1180 1119 1173 1118 1327 1859 1744 1713 1563 1285 738 261 524 779 1083 744 250 234 531 279 1 0 0 0 0 0 0 0 0 0 0 0 1 0 1 19 57 28
1093 836 1041 1639 1512 1245 1338 1295 1208 1223 1786 1686 1458 1519 1160 920 203 287 950 1030 423 18 99 328 139 0 0 0 0 0 0 0 0 0 0 0 0 0 2 1 0 1 2
1139 962 1366 1551 1456 1260 1393 1277 1174 1346 1302 1509 1382 1354 1065 985 629 810 873 497 196 272 361 161 136 11 0 0 0 0 0 0 0 0 0 0 0 0 0 0 0 0 0
1042 1079 1130 1522 1469 1328 1324 1360 1387 1398 1399 1337 1312 1030 827 842 568 688 579 380 131 391 793 187 107 39 0 0 0 0 0 0 0 0 0 0 0 0 0 0 0 0 0
956 1081 1008 1203 1303 1244 1273 1299 1253 1475 1537 1189 1102 818 745 659 13 466 189 77 143 311 405 331 138 91 24 0 0 0 0 0 0 0 0 0 0 0 0 0 0 0 0
918 1086 821 828 937 904 1061 906 986 1255 1356 1108 808 616 499 273 8 18 91 82 126 244 207 191 137 121 84 21 0 0 0 0 0 0 0 0 0 0 0 0 0 0 0
0 0 0 725 556 642 386 394 474 594 705 645 387 134 2 14 16 14 38 60 176 233 141 128 63 37 34 24 0 0 0 0 0 0 0 0 0 0 0 0 0 0 0
0 0 0 0 282 259 359 157 151 274 237 153 3 0 0 3 8 5 13 20 127 124 90 42 22 14 0 0 0 0 0 0 0 0 0 0 0 0 0 0 0 0 0
0 0 2 1 0 42 539 61 0 54 48 3 0 0 0 1 3 3 9 16 101 80 52 40 8 0 0 0 0 0 0 0 0 0 0 0 0 0 0 0 0 0 0
0 0 2 1 0 0 362 47 0 0 0 1 0 0 0 0 0 1 1 12 3 0 2 6 1 0 0 0 0 0 0 0 0 0 0 0 0 0 0 0 9 4 0
0 0 0 0 0 0 8 26 0 0 0 0 0 0 0 0 0 0 0 0 0 0 0 0 0 0 0 0 0 0 0 0 0 0 0 0 0 0 0 0 13 23 100
24 0 0 0 0 2 0 71 0 0 0 0 0 0 0 0 0 0 0 0 0 0 0 0 0 0 0 0 0 0 0 0 0 0 0 0 0 0 0 0 0 12 33
52 10 0 0 0 23 20 39 0 0 0 0 0 0 0 0 0 0 0 0 0 0 0 0 0 0 0 0 0 0 0 0 0 2 0 0 0 0 7 15 26 105 168
41 74 26 0 14 95 38 99 153 9 0 0 0 0 0 0 0 0 0 0 0 0 0 0 0 0 0 0 0 0 0 0 0 1 11 2 0 0 6 88 123 140 91
94 143 65 51 9 35 70 74 172 256 32 2 0 0 0 0 0 0 0 5 47 34 7 0 0 0 0 0 0 0 0 0 8 3 1 0 0 1 0 20 95 130 8
56 114 87 0 0 5 45 108 129 213 229 253 158 41 41 28 14 40 73 103 91 61 29 17 7 0 0 0 0 0 0 8 4 0 1 0 2 1 0 0 0 0 0
98 78 78 52 0 0 66 88 104 129 220 249 261 322 242 197 150 105 116 104 85 95 62 36 12 12 3 0 1 0 6 8 0 0 3 4 0 0 0 0 0 0 0
77 53 82 45 153 21 130 99 124 155 73 139 180 253 353 235 202 140 144 127 107 127 115 45 54 39 16 8 35 90 53 3 1 10 0 0 0 0 0 0 0 0 0
80 41 79 42 31 93 222 185 220 152 188 184 222 288 320 327 317 302 285 259 221 123 66 27 90 101 75 48 82 28 29 14 11 1 0 0 0 0 0 0 0 0 0
38 62 43 36 34 110 116 167 198 195 197 376 426 344 348 276 266 295 319 336 194 109 57 38 86 87 81 73 68 81 32 8 0 0 0 0 0 0 0 0 0 0 0
53 33 41 32 91 90 113 79 96 116 119 148 164 145 157 197 290 298 343 309 219 133 99 108 66 30 24 37 0 4 1 0 0 0 0 0 0 0 0 0 0 0 0
46 32 71 50 72 67 58 82 78 59 95 124 126 82 121 94 142 203 296 290 258 185 157 130 32 5 0 0 0 0 0 0 5 0 0 2 0 0 0 0 0 0 0
7 11 7 35 59 32 59 37 62 56 85 94 75 65 55 85 119 174 178 167 166 138 139 90 4 0 0 0 0 0 0 0 1 0 0 0 0 0 0 0 0 0 0

GFSSE_con_sbcape_099.txt.gz
CAPE
540 1138 1772 1498 950 932 1280 2020 2298 2072 1860 1538 830 856 1252 1204 862 236 96 70 186 622 732 690 612 32 10 180 206 114 106 158 138 46 42 220 308 170 44 0 12 136 352
694 1130 1634 1536 1322 1164 1204 1678 2094 1842 1590 1562 740 832 1094 994 664 410 496 594 732 630 694 604 188 8 4 6 40 4 0 0 0 0 0 8 200 304 242 132 536 336 356
850 1124 1308 1586 1464 1342 1288 1242 1854 1944 1778 1576 1122 1008 966 644 724 784 856 754 626 564 674 288 4 6 0 0 0 0 0 0 0 0 0 0 2 44 126 340 506 356 408
1018 1174 1156 1630 1524 1420 1322 1178 1466 1922 1876 1692 1420 1488 1306 602 816 938 794 916 836 470 642 288 10 0 0 0 0 0 0 0 0 0 0 0 0 2 12 66 42 8 36
1100 1130 1238 1610 1522 1362 1254 1198 1200 1908 1828 1804 1590 1712 1436 968 794 620 838 630 394 660 726 108 0 0 0 0 0 0 0 0 0 0 0 0 0 2 2 0 2 6 10
876 998 1478 1558 1482 1352 1456 1352 1096 1398 1908 1850 1638 1528 1204 952 914 1104 894 356 224 212 572 124 0 0 0 0 0 0 0 0 0 0 0 0 0 0 0 0 0 0 0
796 1032 1376 1612 1502 1454 1536 1416 1350 1310 1596 1516 1392 1480 1012 988 1040 1110 530 202 74 282 270 82 0 0 0 0 0 0 0 0 0 0 0 0 0 0 0 0 0 0 0
1002 1170 1318 1446 1426 1410 1364 1438 1438 1450 1416 1300 1188 1272 888 1008 1056 934 434 132 74 554 210 54 40 0 0 0 0 0 0 0 0 0 0 0 0 0 0 0 0 0 0
1010 994 1130 1230 1178 1118 1268 1328 1342 1314 1282 1190 998 868 608 604 670 700 18 42 230 732 606 228 76 48 30 4 0 0 0 0 0 0 0 0 0 0 0 0 0 0 0
0 0 292 832 860 776 748 790 774 1068 1098 832 580 304 160 2 78 18 12 20 296 458 350 252 100 96 66 32 0 0 0 0 0 0 0 0 0 0 0 0 0 0 0
0 0 0 0 118 412 276 388 450 574 710 490 210 14 0 0 6 8 6 16 174 162 140 60 44 30 14 0 0 0 0 0 0 0 0 0 0 0 0 0 0 0 0
0 0 0 0 0 0 406 50 92 208 210 174 10 0 0 0 0 6 8 14 50 50 38 34 24 2 0 0 0 0 0 0 0 0 0 0 0 0 0 0 0 0 0
6 0 0 0 0 0 0 6 6 60 130 36 0 0 0 0 0 6 8 16 6 0 0 2 2 0 0 0 0 0 0 0 0 0 0 0 0 0 0 0 0 0 0
28 0 0 0 0 0 0 0 0 20 2 0 0 0 0 0 0 0 6 6 0 0 0 0 0 0 0 0 0 0 0 0 0 0 0 0 0 0 0 0 20 24 90
44 8 2 0 0 0 0 0 0 0 34 0 0 0 0 0 0 0 0 0 0 0 0 0 0 0 0 0 0 0 0 0 0 0 0 0 0 8 0 0 0 10 22
50 14 0 0 0 0 0 12 2 14 0 2 0 0 0 0 0 0 0 0 0 0 0 0 0 0 0 0 0 0 0 0 0 0 0 0 0 2 14 2 34 58 92
68 2 8 0 0 0 0 0 8 34 6 0 0 0 0 0 0 0 0 0 0 0 0 0 0 0 0 0 0 0 0 0 0 0 0 0 0 0 0 78 174 126 126
68 76 26 14 0 0 0 6 60 16 10 18 0 0 0 0 0 0 0 0 0 0 0 0 0 0 0 0 0 0 0 0 0 0 0 0 0 0 0 34 146 188 84
70 126 144 180 62 60 42 86 84 26 2 10 0 0 0 0 0 0 0 0 0 0 0 0 0 0 0 0 0 0 0 0 0 0 0 0 0 2 0 0 0 2 0
52 144 120 154 162 22 66 122 70 80 70 84 100 16 0 0 0 0 0 0 18 6 6 0 0 0 0 0 0 0 0 0 0 0 0 2 0 0 0 0 0 0 0
18 110 140 0 0 14 14 32 52 96 68 104 226 190 108 42 0 28 58 46 50 56 50 22 16 4 4 0 2 26 18 2 0 0 2 0 0 0 0 0 0 0 0
8 0 60 34 4 0 72 64 64 52 66 106 102 286 322 222 168 108 90 62 74 74 60 50 70 80 40 18 60 20 22 4 2 0 0 0 0 0 0 0 0 0 0
0 4 2 68 32 6 84 96 44 52 50 88 100 104 120 170 218 260 220 186 104 80 32 12 42 44 70 108 82 70 16 2 0 0 0 0 0 0 0 0 0 0 0
78 68 44 70 82 94 100 84 26 52 32 46 50 56 62 108 120 164 200 198 132 126 90 46 38 42 46 68 8 8 0 0 0 0 0 0 0 0 0 0 0 0 0
74 48 70 4 58 36 52 40 42 30 58 54 52 52 26 46 106 122 198 210 182 130 98 68 36 30 12 2 0 0 0 0 0 0 0 0 0 0 0 0 0 0 0
12 44 2 34 36 52 58 44 64 44 36 50 72 80 64 66 68 100 112 132 146 134 94 78 46 2 2 0 0 0 0 0 0 0 0 0 0 0 0 0 0 0 0

GFSSE_con_sbcape_102.txt.gz
CAPE
470 1034 1844 1786 1815 2383 2416 2267 2034 1809 1678 1342 1092 1162 849 582 158 40 206 450 586 691 722 571 32 103 81 45 39 177 237 57 63 71 186 437 107 3 97 308 347 162 101
623 1129 1719 1717 1865 2174 2352 2321 2128 1817 1701 1530 1313 1185 1296 618 193 35 206 510 758 745 668 305 22 14 186 17 4 3 1 0 0 0 1 115 383 181 374 340 497 220 120
938 1137 1292 1574 1648 1915 2255 2290 2090 1918 1624 1130 683 1194 1286 807 398 488 374 843 735 782 465 46 6 7 37 3 0 0 0 0 0 0 0 0 2 310 176 187 443 221 407
997 1098 1035 1533 1534 1545 1785 2135 2041 1801 1698 1495 1236 1362 1187 648 749 1103 904 755 847 725 174 5 2 0 0 0 0 0 0 0 0 0 0 0 0 70 38 30 14 71 71
950 1024 1105 1587 1620 1533 1313 1752 2035 1985 1736 1561 1377 1511 1351 1303 1086 1011 964 1029 935 926 204 1 0 0 0 0 0 0 0 0 0 0 0 0 0 3 8 5 6 5 3
951 968 1409 1594 1645 1546 1491 1340 1828 2064 1916 1732 1538 1324 1225 1140 1179 1054 964 768 999 661 59 0 0 0 0 0 0 0 0 0 0 0 0 0 0 0 1 0 0 0 2
917 1093 1388 1688 1628 1579 1534 1349 1403 1720 1917 1800 1660 1512 1151 1166 1173 1003 599 262 803 675 87 0 0 0 0 0 0 0 0 0 0 0 0 0 0 0 0 0 0 0 0
853 1269 1320 1501 1520 1582 1557 1469 1285 1642 1625 1733 1627 1243 1056 1056 1305 841 461 287 503 494 88 0 0 0 0 0 0 0 0 0 0 0 0 0 0 0 0 0 0 0 0
1064 1228 1306 1224 1219 1298 1313 1337 1358 1364 1597 1328 1449 1193 897 778 1112 628 362 169 300 513 139 26 0 0 0 0 0 0 0 0 0 0 0 0 0 0 0 0 0 0 0
330 910 1086 988 953 889 1019 1130 1168 1251 1144 913 952 787 370 429 629 470 57 79 661 692 411 290 61 32 22 0 0 0 0 0 0 0 0 0 0 0 0 0 0 0 0
0 48 516 595 591 621 630 702 828 981 937 717 562 352 111 90 91 4 2 7 244 521 475 241 149 132 61 4 0 0 0 0 0 0 0 0 0 0 0 0 0 0 0
1 1 7 2 16 139 463 267 232 410 520 267 196 46 0 0 0 0 0 7 120 135 122 98 59 37 0 0 0 0 0 0 0 0 0 0 0 0 0 0 0 0 0
1 4 0 2 0 0 48 2 43 198 130 57 0 0 0 0 0 0 0 11 6 4 0 3 5 0 0 0 0 0 0 0 0 0 0 0 0 0 0 0 0 0 0
0 2 0 0 0 0 0 0 6 199 254 16 6 0 0 0 0 0 0 5 2 0 0 0 0 0 0 0 0 0 0 0 0 0 0 0 0 0 0 9 15 26 89
0 0 1 0 0 0 0 0 0 26 71 75 8 0 0 0 0 0 2 2 2 0 0 0 0 0 0 0 0 0 0 0 0 0 0 0 0 23 33 0 7 11 14
0 0 0 0 0 0 0 0 0 0 75 31 8 0 0 0 0 0 0 0 0 0 0 0 0 0 0 0 0 0 0 0 0 0 0 0 0 0 70 32 19 35 53
0 0 0 0 0 0 0 2 0 0 1 37 47 12 0 0 0 0 0 14 0 0 0 0 0 0 0 0 0 0 0 0 0 0 0 0 0 0 5 39 129 127 99
5 0 0 0 0 0 7 15 14 19 5 1 25 7 0 1 0 0 0 3 2 0 0 0 0 0 0 0 0 0 0 0 0 0 0 0 0 0 0 16 172 203 124
9 43 5 1 4 0 0 10 22 10 18 18 16 17 1 10 0 0 0 0 0 0 0 0 0 0 0 0 0 0 0 0 0 0 0 0 0 0 0 0 0 0 0
112 131 99 95 9 0 15 23 21 69 9 21 6 0 0 0 4 0 0 6 0 0 0 0 0 0 0 0 0 0 0 0 0 0 0 0 0 0 0 0 0 0 0
130 207 192 154 195 81 68 110 117 82 45 13 0 0 16 3 0 0 2 9 0 0 0 0 0 0 5 0 4 14 10 1 0 1 0 0 0 0 0 0 0 0 0
72 126 240 181 115 75 89 97 161 105 82 25 1 6 0 18 18 0 1 8 0 3 13 13 29 38 19 0 28 16 43 19 5 0 0 0 0 0 0 0 0 0 0
41 9 0 1 59 7 31 81 128 128 134 55 23 39 43 87 91 53 57 49 23 59 50 43 67 114 88 49 19 5 19 14 0 0 0 0 0 0 0 0 0 0 0
58 19 0 0 5 3 6 56 77 68 27 33 9 0 32 115 160 223 165 111 71 40 60 84 85 94 104 117 31 39 2 2 0 0 0 0 0 0 0 0 0 0 0
51 37 30 42 1 3 1 91 13 27 20 4 16 21 49 65 58 81 107 84 62 66 57 29 31 34 21 36 7 0 0 0 0 0 0 0 0 0 0 0 0 0 0
69 70 41 69 39 4 33 46 24 25 7 36 37 29 41 54 61 84 89 61 106 122 84 70 49 38 2 1 0 0 0 0 0 0 0 0 0 0 0 0 0 0 0

GFSSE_con_sbcape_105.txt.gz
CAPE
337 1048 2073 2173 2131 2274 1981 1643 1715 1731 1702 1566 1174 1092 911 576 157 184 210 239 401 681 435 50 48 29 169 294 275 57 69 92 191 294 429 154 53 268 407 303 324 0 3
515 1147 1889 2186 2304 2338 2254 2077 1920 1722 1626 1611 1231 900 599 195 91 492 269 828 874 782 364 17 78 20 36 45 24 6 11 8 16 61 80 212 322 471 417 255 480 16 3
868 1206 1414 1973 2243 2343 2357 2229 2009 1856 1733 1629 1519 1088 595 170 67 638 711 913 813 720 276 13 44 18 9 6 4 2 0 0 0 0 0 0 77 73 277 297 203 302 324
1004 1135 1144 1831 2140 2311 2274 2161 1918 1912 1642 1467 1496 1669 912 328 133 529 1013 910 804 308 41 5 7 8 5 1 0 0 0 0 0 0 0 0 2 19 14 20 110 120 59
982 1066 1088 1704 1944 2167 2231 2169 1907 1725 1592 1285 1568 1492 1325 870 714 868 926 909 910 430 10 1 0 0 0 0 0 0 0 0 0 0 0 0 0 7 5 7 3 5 7
890 944 1301 1603 1727 1775 2066 1879 1799 1636 1456 1381 1576 1528 1299 1562 1188 1113 985 923 730 284 0 0 0 0 0 0 0 0 0 0 0 0 0 0 0 1 0 0 0 2 3
730 893 1335 1699 1730 1638 1640 1915 1900 1866 1605 1457 1371 1547 1261 1240 1117 983 1038 888 676 152 0 0 0 0 0 0 0 0 0 0 0 0 0 0 0 0 0 0 0 0 0
759 1062 1294 1576 1638 1615 1479 1468 1881 1882 1738 1579 1443 1189 1176 1170 1125 1114 1158 976 517 51 0 0 0 0 0 0 0 0 0 0 0 0 0 0 0 0 0 0 0 0 0
887 1183 1170 1240 1324 1355 1303 1174 1296 1774 1653 1462 1339 1218 981 775 890 655 581 965 556 90 0 0 0 0 0 0 0 0 0 0 0 0 0 0 0 0 0 0 0 0 0
925 1170 1153 1052 1085 1114 1041 1067 988 1224 1419 1285 1155 887 654 509 528 441 221 460 667 383 160 38 0 0 0 0 0 0 0 0 0 0 0 0 0 0 0 0 0 0 0
35 582 980 847 631 632 736 881 999 976 1169 991 859 583 319 191 204 55 0 26 341 407 376 96 38 52 22 0 0 0 0 0 0 0 0 0 0 0 0 0 0 0 0
8 80 475 509 298 387 664 458 531 725 639 480 403 100 119 52 122 0 0 21 359 368 354 331 225 138 4 0 0 0 0 0 0 0 0 0 0 0 0 0 0 0 0
0 1 19 80 44 352 186 61 101 127 213 142 130 65 16 5 0 0 0 0 33 23 19 42 15 0 0 0 0 0 0 0 0 0 0 0 0 0 0 0 0 0 0
0 0 0 1 25 6 20 30 214 381 225 21 21 0 0 0 0 0 0 0 0 0 1 3 0 0 0 0 0 0 0 0 0 0 0 0 7 1 0 30 85 99 84
0 1 0 0 0 10 18 12 125 187 276 37 0 0 0 0 0 0 0 0 5 0 0 0 0 0 0 0 0 0 0 0 0 0 0 0 0 101 100 22 95 128 94
0 0 0 1 0 0 0 2 39 99 93 67 13 1 0 0 0 0 0 0 0 0 0 0 0 0 0 0 0 0 0 0 0 0 0 0 0 1 111 74 67 96 69
0 0 0 0 0 0 0 0 0 32 102 101 37 0 0 0 0 0 0 0 0 0 0 0 0 0 0 0 0 0 0 0 0 0 0 0 0 0 2 59 160 123 130
0 0 0 0 0 0 0 0 0 0 19 106 79 22 0 7 2 0 0 1 33 3 0 0 0 0 0 0 0 0 0 0 0 0 0 0 0 0 0 3 142 211 156
0 0 0 0 0 0 0 0 0 0 0 1 78 96 48 3 5 2 3 0 10 3 0 0 0 0 0 0 0 0 0 0 0 0 0 0 0 0 0 0 0 16 0
0 0 0 0 0 0 0 0 0 0 0 0 0 66 68 44 31 5 4 17 22 44 0 0 0 0 0 0 0 0 0 0 0 0 0 0 0 0 0 0 0 0 0
0 0 29 15 0 0 1 2 3 1 2 1 0 3 41 81 31 24 0 3 18 20 0 2 0 0 0 0 0 0 0 0 0 0 0 0 0 0 0 0 0 0 0
0 42 96 109 119 44 35 3 0 1 1 17 11 8 2 27 29 12 2 0 1 5 21 5 0 0 0 0 0 0 8 0 0 0 0 0 0 0 0 0 0 0 0
47 86 139 175 167 193 150 112 67 47 9 15 31 38 14 15 23 20 16 14 0 0 25 4 14 28 19 15 19 23 10 6 0 0 0 0 0 0 0 0 0 0 0
29 13 85 166 172 149 141 164 83 72 61 40 40 37 34 3 1 9 0 24 26 46 88 69 47 69 73 83 29 21 8 1 1 0 0 0 0 0 0 0 0 0 0
31 32 28 3 18 104 85 70 122 83 23 35 5 2 1 1 22 20 22 39 48 33 101 69 30 78 58 21 9 10 1 0 0 0 0 0 0 0 0 0 0 0 0
34 30 0 12 0 10 37 26 57 24 1 25 1 5 2 7 14 18 39 61 56 61 48 33 33 40 29 22 8 0 1 1 0 0 0 0 0 0 0 0 0 0 0

GFSSE_con_sbcape_108.txt.gz
CAPE
246 1181 2193 2330 2069 1864 1704 1701 2032 2092 2091 2040 1602 1324 1018 619 252 59 173 304 615 575 32 87 7 328 76 26 21 144 176 201 278 138 238 422 410 322 385 21 0 0 2
285 1259 2113 2362 2238 2092 1984 1970 1978 1953 1873 1870 1285 1111 928 471 142 137 151 522 716 454 16 25 62 57 395 265 11 15 15 119 121 156 121 221 379 418 319 145 53 6 1
836 1394 1681 2368 2395 1980 1961 1934 1927 1876 1811 1747 1239 811 519 195 300 337 796 927 764 331 41 41 10 15 13 6 3 8 10 8 0 0 0 0 7 326 329 356 473 281 343
1026 1229 1122 2368 2490 2081 1973 1997 1945 1888 1825 1665 1360 1114 513 186 560 725 1060 908 749 513 116 269 12 8 7 2 0 0 0 0 0 0 0 0 0 5 3 3 9 50 10
975 987 1097 2269 2410 2222 2104 1947 1992 1920 1819 1725 1825 1506 953 508 793 936 1092 845 736 270 171 34 7 4 0 0 0 0 0 0 0 0 0 0 0 3 4 5 4 2 3
825 844 1352 1992 2248 2263 1916 1980 1971 1917 1657 1662 1712 1379 1227 1067 779 1320 981 815 507 213 13 2 0 0 0 0 0 0 0 0 0 0 0 0 0 1 1 1 3 4 4
693 723 1286 1847 2100 2253 1948 2063 1963 1830 1748 1680 1629 1473 1255 1500 1550 1237 780 669 335 26 0 0 0 0 0 0 0 0 0 0 0 0 0 0 0 0 0 0 0 0 0
691 890 1228 1579 1797 1965 2126 1987 1966 1998 1810 1663 1595 1502 1394 1296 1125 964 865 787 236 0 0 0 0 0 0 0 0 0 0 0 0 0 0 0 0 0 0 0 0 0 0
502 935 1103 1277 1408 1476 1551 1854 1897 1981 1879 1693 1496 1355 1288 818 829 1069 925 725 181 0 0 0 0 0 0 0 0 0 0 0 0 0 0 0 0 0 0 0 0 0 0
9 553 897 1006 1139 1141 1054 1105 1529 1664 1540 1514 1300 1066 832 561 489 659 714 693 475 63 5 0 0 0 0 0 0 0 0 0 0 0 0 0 0 0 0 0 0 0 0
0 0 654 858 805 785 739 802 856 1275 1340 1214 1029 854 494 189 245 168 314 497 386 138 47 19 4 0 0 0 0 0 0 0 0 0 0 0 0 0 0 0 0 0 0
0 0 0 678 525 542 750 603 545 584 782 785 727 360 144 100 60 13 0 212 344 244 143 92 78 39 0 0 0 0 0 0 0 0 0 0 0 0 0 0 0 0 0
0 0 0 38 106 165 312 274 300 359 278 218 292 212 81 119 3 0 0 3 58 79 79 126 95 0 0 0 0 0 0 0 0 0 0 0 0 0 0 0 0 0 0
0 0 0 0 1 13 36 66 256 354 336 78 82 61 0 0 0 0 0 0 3 13 21 5 0 0 0 0 0 0 0 0 0 0 0 0 0 0 0 2 3 15 31
0 0 0 1 0 0 7 32 46 325 315 181 44 26 4 0 0 0 0 0 2 0 2 0 0 0 0 0 0 0 0 0 0 0 0 0 0 9 97 84 139 155 148
0 0 0 0 0 0 0 1 40 62 227 89 37 28 0 0 0 0 0 3 0 0 0 0 0 0 0 0 0 0 0 0 0 0 0 0 0 0 32 79 117 135 148
0 0 0 0 1 0 0 0 18 104 121 50 9 6 0 0 0 0 0 2 0 0 0 0 0 0 0 0 0 0 0 0 0 0 0 0 0 0 0 8 83 183 178
0 0 0 0 4 0 0 0 0 2 97 139 80 9 18 0 0 0 0 0 0 0 0 0 0 0 0 0 0 0 0 0 0 0 0 0 0 0 0 6 114 227 287
0 0 0 0 1 0 0 0 0 0 0 18 70 44 5 0 0 0 0 0 0 0 11 4 0 0 0 0 0 0 0 0 0 0 0 0 0 0 0 0 0 37 134
0 0 0 0 0 1 0 0 0 0 0 0 5 67 49 5 5 0 1 0 0 0 0 0 0 0 0 0 0 0 0 0 0 0 0 0 0 0 0 0 0 0 3
0 0 0 0 0 0 0 1 2 1 0 0 0 10 69 48 44 15 2 2 0 0 4 5 0 0 0 0 0 0 0 0 0 0 0 0 0 0 0 0 0 0 0
0 0 0 0 0 0 0 0 0 0 0 0 0 0 10 66 56 60 1 0 0 0 0 0 0 13 1 1 2 4 20 2 0 0 0 0 0 0 0 0 0 0 0
0 0 0 0 0 9 0 0 0 0 0 0 3 1 0 0 56 84 27 14 0 0 0 0 0 0 23 22 20 51 40 38 3 0 0 0 0 0 0 0 0 0 0
0 0 0 0 62 54 51 56 31 1 1 0 0 1 2 0 0 35 17 6 0 0 0 0 2 14 47 65 23 22 26 9 57 32 0 0 0 0 0 0 0 0 0
0 0 0 91 112 122 119 86 48 28 15 22 13 0 0 0 0 7 22 10 3 0 0 3 7 6 30 66 80 19 56 17 0 4 26 0 0 0 0 0 0 0 0
0 0 9 3 5 26 65 61 49 44 65 76 27 33 27 4 1 1 2 18 19 8 20 23 14 38 58 67 52 20 23 3 16 1 0 0 0 0 0 0 0 0 0

GFSSE_con_sbcape_111.txt.gz
CAPE
669 1586 2335 2373 2020 1932 1895 2016 2265 2296 2258 2172 1534 1193 1129 789 264 137 369 689 759 545 67 5 11 307 190 21 71 259 283 294 54 162 392 482 378 408 0 0 2 5 95
591 1587 2218 2356 2298 2128 2087 2001 1956 2143 2101 1962 1454 1126 916 583 254 259 389 822 668 342 18 321 514 130 18 32 59 22 38 81 107 154 218 269 475 349 42 0 79 0 0
675 1660 1473 2367 2339 2306 2175 2128 1974 1946 1856 1811 1771 1130 813 493 126 136 503 888 798 368 90 97 373 430 28 6 8 9 34 69 32 0 0 173 283 460 354 291 417 345 358
1083 1664 1356 2434 2302 2186 2089 1919 1981 1883 1948 1745 1585 1169 672 360 337 377 899 882 865 462 345 255 116 52 2 3 5 17 5 0 0 0 0 4 28 29 4 4 11 99 48
1241 1476 1465 2165 2152 2156 2083 1922 1916 1929 1895 1632 1425 1230 918 846 533 1273 1079 819 770 441 429 177 27 19 4 2 0 0 0 0 0 0 0 0 1 3 2 5 2 3 2
1228 1287 1262 1786 2138 2079 1960 1885 1917 1937 1899 1807 1757 1324 986 1001 1202 1343 981 898 443 361 290 39 5 1 0 0 0 0 0 0 0 0 0 0 0 2 2 3 3 3 1
912 1112 1292 1995 1761 2002 1958 1824 1916 2002 1934 1924 1923 1580 1201 1190 1481 1034 959 668 383 278 144 5 2 0 0 0 0 0 0 0 0 0 0 0 0 0 0 0 0 0 0
739 1113 1313 1434 1550 1628 1732 1839 1934 2037 1818 1931 1866 1765 1560 1383 1442 1010 842 595 306 10 1 1 1 0 0 0 0 0 0 0 0 0 0 0 0 0 0 0 0 0 0
37 736 1123 1225 1184 1213 1304 1498 1717 1942 1788 1705 1602 1575 1474 1124 1021 1210 769 503 58 0 0 57 53 0 0 0 2 0 0 0 0 0 0 0 0 0 0 0 0 0 0
0 9 714 1042 1177 1233 1214 1155 1400 1543 1580 1555 1372 1246 1093 825 650 836 620 598 233 39 3 78 161 44 1 27 57 0 0 0 0 0 0 0 0 0 0 0 0 0 0
0 0 0 539 994 1170 1160 1144 1047 1197 1401 1370 1196 999 851 869 857 647 478 414 215 61 42 81 145 86 0 0 0 0 0 0 0 0 0 0 0 0 0 0 0 0 0
0 0 0 0 548 968 1020 996 917 1158 1396 1220 1218 1227 1008 814 787 623 434 339 229 80 41 69 76 55 0 0 0 0 0 0 0 0 0 0 0 0 0 0 0 0 0
0 0 0 0 1 414 911 868 822 694 993 1051 1075 1114 922 772 629 408 507 649 390 13 0 7 17 1 0 0 0 0 0 0 0 0 0 0 0 0 0 0 0 0 0
0 0 0 0 0 0 45 520 796 553 630 816 992 885 845 796 549 206 131 404 325 158 32 58 86 13 0 0 0 0 0 0 0 0 0 0 0 0 0 0 0 1 11
0 0 0 0 0 4 4 101 469 492 548 593 609 619 713 683 488 183 15 48 172 199 82 44 52 14 0 0 0 0 0 0 0 0 0 0 0 0 78 116 144 209 243
0 0 0 0 0 0 12 51 58 255 427 509 425 466 392 359 431 84 21 27 64 127 59 19 46 4 0 0 0 0 0 0 0 0 0 0 0 0 0 106 209 266 259
0 0 0 0 0 0 4 25 36 95 372 455 298 72 97 174 182 62 34 33 93 61 19 31 2 0 0 0 0 0 0 0 0 0 0 0 0 0 0 23 74 197 301
0 0 0 0 0 0 5 11 33 90 152 298 147 77 42 29 61 33 69 48 18 0 1 0 2 0 0 0 0 0 0 0 0 0 0 0 0 0 0 0 77 154 311
0 0 0 0 0 0 1 6 1 6 116 289 228 153 49 35 33 46 90 68 15 0 0 0 16 0 0 3 0 0 0 0 0 0 0 0 0 0 0 0 0 31 107
0 0 0 0 0 0 2 12 3 4 9 131 182 127 83 53 37 67 54 36 36 32 1 0 0 0 0 21 0 0 0 0 0 0 0 0 0 0 0 0 0 1 1
0 0 0 0 0 0 5 7 5 3 2 5 108 148 73 79 77 83 77 60 48 53 20 3 0 0 0 1 12 13 17 9 0 0 0 0 0 0 0 5 1 20 14
0 0 0 0 0 0 1 1 14 13 6 15 11 26 167 131 104 110 94 36 31 56 20 2 0 0 8 0 2 8 38 60 72 58 20 2 5 0 6 0 28 33 27
0 0 0 0 0 0 1 11 1 0 2 6 5 2 9 88 157 168 113 83 97 39 0 1 0 14 26 0 0 39 72 119 64 60 58 50 39 27 14 7 23 3 0
0 0 0 0 0 0 1 8 4 6 1 0 0 0 1 3 49 200 187 106 98 49 37 12 6 3 11 10 0 10 56 76 146 100 27 10 3 2 16 41 1 0 0
0 0 0 0 0 67 111 8 3 31 8 2 0 0 0 3 4 4 129 106 10 33 5 0 6 0 4 0 0 8 45 93 44 76 118 99 9 0 0 0 0 0 0
0 0 0 1 65 133 120 90 67 78 75 69 70 67 31 28 30 20 23 75 17 13 11 1 0 22 24 4 10 23 54 88 111 79 55 41 31 22 0 0 0 0 0

GFSSE_con_sbcape_114.txt.gz
CAPE
1304 1390 2247 2304 1932 2116 2146 2233 2356 2177 2359 2051 1333 1220 1279 764 183 276 696 131 365 243 9 3 142 419 122 151 322 414 338 247 210 400 477 632 416 0 0 10 272 121 266
1184 1209 2096 2349 2261 2345 2461 2439 2317 2491 2254 2031 1708 1433 1098 607 171 463 775 576 219 116 4 18 471 288 77 197 187 228 89 135 258 270 415 411 477 11 0 0 214 0 66
1128 1436 1538 2313 2174 2259 2242 2264 2201 2370 2115 1829 1857 1338 960 642 291 416 880 722 616 294 381 479 266 19 53 68 10 52 74 126 134 66 37 312 395 443 352 319 459 443 412
1204 1584 1356 2078 2266 2343 2388 2251 2105 2212 2079 1790 1701 1503 910 648 224 347 974 866 856 746 590 724 562 180 1 11 31 68 60 64 22 2 60 107 44 108 134 118 163 107 35
1391 1697 1255 1816 2046 2167 2309 2216 2122 2070 1957 1870 1934 1686 1360 583 332 393 1126 983 872 499 677 282 78 19 0 4 35 12 0 0 0 1 6 18 14 2 5 1 1 0 0
1486 1634 1531 1734 1861 2106 1876 2050 2145 2189 2143 1865 1711 1591 1312 1191 710 1211 970 873 852 688 466 65 10 0 0 0 0 0 0 0 0 3 0 0 3 1 4 3 1 1 0
994 1459 1498 1756 1694 1801 2031 1955 1945 2060 2028 1938 1874 1449 1254 1490 1602 1320 1115 916 772 544 330 35 19 0 0 0 0 0 0 0 0 0 0 0 0 0 0 0 0 0 0
146 890 1294 1334 1568 1532 1803 1691 1865 1997 2053 2008 1916 1741 1413 1514 1680 1317 1248 808 693 322 88 58 22 38 0 21 0 0 0 0 0 0 0 0 0 0 0 0 0 0 0
0 440 1272 1200 1114 1013 1140 1211 1433 1757 1863 1709 1770 1619 1373 1146 1175 1145 1112 757 504 297 243 201 66 67 22 24 0 0 0 0 0 0 0 0 0 1 0 0 0 0 0
0 0 291 988 916 865 1054 920 1051 1371 1432 1468 1492 1339 954 823 837 927 509 529 431 219 124 219 250 55 47 212 49 0 0 0 0 0 0 0 0 1 0 0 0 0 0
0 0 0 125 847 709 773 844 901 976 1027 1033 1011 953 856 847 802 715 429 136 192 114 72 243 341 190 60 25 47 0 0 0 0 0 0 0 0 1 0 0 0 0 0
0 0 0 0 41 833 759 808 926 873 974 870 907 928 996 775 783 628 398 124 233 121 63 233 308 130 0 0 0 0 0 0 0 0 0 0 0 2 0 0 0 0 0
0 0 0 0 0 160 997 966 575 497 785 657 653 700 714 622 764 851 842 734 461 5 1 13 35 1 0 0 0 0 0 0 0 0 0 0 0 57 5 0 0 0 0
0 0 0 0 0 0 376 914 748 268 209 551 631 731 734 688 617 656 603 648 436 195 46 1 0 0 0 0 0 0 0 0 0 0 0 0 0 0 83 8 0 1 7
0 0 0 0 0 0 2 288 776 585 350 339 474 481 543 616 561 560 567 520 504 240 169 15 0 0 0 0 0 0 0 0 0 0 0 0 0 0 22 165 169 174 185
0 0 0 0 0 0 0 71 474 640 554 371 415 328 379 377 518 476 465 440 390 257 259 109 1 0 0 0 0 0 0 0 0 0 0 0 0 0 0 40 231 371 343
0 0 0 0 0 0 0 1 179 401 834 678 654 457 307 672 561 537 589 386 251 240 244 126 34 0 0 0 0 0 0 0 0 0 0 0 0 0 0 0 70 135 290
0 0 0 0 0 0 0 0 75 236 386 732 641 554 537 415 694 731 727 372 305 256 359 174 125 81 13 0 0 0 0 0 0 0 0 0 0 0 0 0 70 148 290
0 0 0 0 0 0 0 0 6 109 237 391 613 372 334 311 484 567 1009 550 455 386 408 63 79 101 167 22 5 0 0 0 0 0 0 0 0 5 25 15 0 27 103
0 0 0 0 0 0 0 0 12 111 96 239 501 411 185 156 212 428 492 576 474 415 261 83 19 7 93 101 7 0 0 0 0 0 0 0 0 10 47 75 73 32 0
0 0 0 0 0 0 0 0 7 12 69 158 307 433 365 265 119 288 331 178 251 290 342 222 203 200 21 0 0 9 0 9 5 12 16 20 4 34 69 87 85 96 68
0 0 0 0 0 0 0 0 0 13 16 233 225 322 341 367 310 142 237 316 252 220 257 219 194 179 151 42 22 18 0 0 0 1 27 20 48 68 86 73 76 91 131
0 0 0 0 0 0 0 4 24 25 101 112 112 170 361 390 385 324 221 231 264 376 218 214 291 237 119 44 9 4 1 0 0 7 55 77 65 78 102 87 77 98 140
0 0 0 0 0 0 0 3 36 26 23 37 49 237 373 267 414 337 358 298 290 195 134 322 443 459 237 71 13 44 50 21 28 1 13 57 88 126 141 108 58 66 87
7 0 0 0 0 0 0 0 5 12 59 145 284 308 340 321 278 254 400 379 188 160 107 190 259 322 331 242 200 46 67 165 75 92 2 47 69 59 69 60 61 81 62
16 41 46 0 0 0 0 2 2 42 71 213 179 289 254 205 153 121 143 219 324 310 176 116 170 117 237 150 102 102 47 52 132 130 63 78 224 146 86 14 14 15 9

GFSSE_con_sbcape_117.txt.gz
CAPE
1151 1461 2285 2548 2129 2191 2258 2343 2186 2199 2226 1757 1061 1055 1064 660 97 142 71 144 40 13 11 104 219 500 297 410 501 518 440 350 467 450 647 376 23 50 71 16 351 33 141
729 1264 2102 2496 2470 2336 2391 2603 2236 2087 2136 2040 1840 1380 1310 540 156 739 461 209 113 104 50 230 508 161 346 326 413 234 204 312 287 510 491 187 153 0 12 459 436 87 338
1001 1152 1420 2461 2414 2436 2373 2451 2324 2062 2240 2007 1869 1751 1035 519 238 686 1091 384 651 53 76 414 325 332 256 161 86 12 164 225 176 177 208 306 357 400 339 415 540 414 337
1083 1491 1359 2192 2454 2438 2454 2316 2457 2387 2307 2166 1850 1790 1156 670 376 594 1177 837 845 572 677 831 549 97 113 43 61 70 118 111 19 7 121 56 91 183 182 134 90 58 47
1195 1494 1620 2024 2076 2387 2440 2396 2339 2397 2112 1878 1952 1584 1230 875 395 432 1039 891 1120 993 1018 697 209 45 46 60 89 59 61 16 0 8 23 51 12 7 1 1 0 0 0
928 1319 1763 1996 1916 2028 2425 2389 2347 2248 2168 1743 1842 1681 1590 797 351 658 1239 789 1025 1009 672 181 92 0 10 63 41 24 0 0 0 3 0 0 4 0 0 0 0 0 0
407 1035 1322 1595 1845 1874 2029 1998 2144 1985 2066 1557 1894 1454 1081 969 1121 1476 1140 987 1051 756 555 125 47 7 0 0 0 0 0 0 0 0 0 1 0 0 0 0 0 0 0
0 576 1228 1383 1462 1565 1698 1679 1620 2064 2054 1837 1862 1762 1504 1653 1651 1317 1315 1042 739 653 271 65 52 12 0 0 0 0 0 0 0 0 0 3 0 0 0 0 0 0 0
0 0 1015 1409 1168 1054 1344 1392 1510 1565 1657 1771 1605 1540 1477 1383 1318 1513 1381 960 667 602 419 319 59 74 28 9 3 0 0 0 0 0 0 0 0 0 0 0 0 0 0
0 0 0 748 1115 1170 1103 1018 1081 1204 1224 1203 1281 1033 1005 799 877 915 781 638 613 611 441 368 296 92 68 121 5 0 0 0 0 0 0 0 0 0 0 0 0 0 0
0 0 0 0 548 834 964 1065 928 906 989 948 914 898 686 802 598 513 438 328 418 451 303 366 440 228 75 173 35 0 0 0 0 0 0 0 0 0 0 0 0 0 0
0 0 0 0 0 382 927 717 1021 1077 1056 727 701 709 681 724 612 396 334 131 295 236 127 383 494 208 0 0 0 0 0 0 0 0 0 0 0 1 1 0 0 0 0
0 0 0 0 0 0 612 1113 857 935 868 843 674 616 685 499 316 845 1076 358 192 0 0 33 78 1 0 0 0 0 0 0 0 0 0 0 0 57 5 0 0 0 0
0 0 0 0 0 0 0 914 961 658 652 497 517 328 475 334 303 383 787 1011 802 177 18 0 0 0 0 0 0 0 0 0 0 0 0 0 0 0 41 6 0 0 0
0 0 0 0 0 0 0 25 974 939 291 245 443 427 508 489 309 315 671 752 677 557 108 11 0 0 0 0 0 0 0 0 0 0 0 0 0 0 0 93 130 121 116
0 0 0 0 0 0 0 0 174 842 857 374 297 554 490 506 411 362 288 568 660 541 213 10 1 0 0 0 0 0 0 0 0 0 0 0 0 0 0 0 115 394 334
0 0 0 0 0 0 0 0 0 270 886 1060 612 555 368 309 332 237 182 123 458 528 240 110 5 1 0 0 0 0 0 0 0 0 0 0 0 0 0 0 3 80 199
0 0 0 0 0 0 0 0 0 98 344 888 1006 849 577 193 338 610 667 536 375 294 503 318 151 2 0 0 0 0 0 0 0 0 0 0 0 0 0 0 33 73 264
0 0 0 0 0 0 0 0 0 0 236 322 799 854 816 631 572 517 629 636 616 352 369 425 204 71 18 0 0 0 0 0 0 0 0 0 0 0 0 2 0 7 44
0 0 0 0 0 0 0 0 0 0 204 279 358 802 781 644 448 379 603 604 528 748 555 597 416 249 95 96 11 3 0 0 0 0 0 1 0 0 7 23 47 3 0
0 0 0 0 0 0 0 0 0 0 19 205 310 625 722 540 322 568 325 362 456 618 306 446 351 248 197 139 118 80 0 0 0 0 0 0 0 0 2 11 54 64 41
1 0 0 0 0 0 0 0 0 0 11 70 339 345 496 564 548 440 520 539 313 312 316 259 248 201 188 176 77 47 23 3 0 0 0 0 0 0 0 8 38 52 80
13 5 0 0 0 0 0 0 0 26 79 41 178 240 401 486 658 643 559 548 440 271 256 287 268 231 172 143 128 100 15 1 0 0 0 0 0 0 1 17 34 60 62
6 48 7 0 0 0 0 0 0 3 46 68 152 276 337 424 541 650 499 557 408 355 343 312 312 298 319 373 270 80 38 34 53 1 0 0 0 3 11 26 56 77 67
10 6 51 8 0 0 0 0 0 9 24 64 216 214 247 444 388 470 614 558 634 448 484 468 404 236 370 353 297 136 17 30 54 88 23 29 7 18 97 94 102 80 55
17 8 25 56 6 0 0 0 0 11 41 67 145 257 343 390 261 348 437 562 571 439 251 256 335 352 257 212 261 217 103 24 44 83 87 45 41 85 86 95 69 66 68